<?xml version="1.0" encoding="UTF-8" standalone="no" ?>
<gpx xmlns="http://www.topografix.com/GPX/1/1" xmlns:xsi="http://www.w3.org/2001/XMLSchema-instance" xsi:schemaLocation="http://www.topografix.com/GPX/1/1 http://www.topografix.com/GPX/1/1/gpx.xsd" version="1.1" creator="VisuGPX - https://www.visugpx.com">
  <metadata>
    <name>Velo</name>
    <desc><![CDATA[idor:10246719_102515280_10794639_12973163_1418743_13428926_12998252_13558460_14716825_14357364_14251590]]></desc>
  </metadata>
  <trk>
    <name><![CDATA[Vélodyssée_GesvrineNort_25.6km-10246719]]></name>
    <extensions>
      <line xmlns="http://www.topografix.com/GPX/gpx_style/0/2">
        <color>0000FF</color>
        <width>4</width>
      </line>
    </extensions>
    <trkseg>
      <trkpt lat="47.26852" lon="-1.54605">
        <ele>30</ele>
        <time>2023-11-15T07:10:39Z</time>
      </trkpt>
      <trkpt lat="47.26882" lon="-1.5462">
        <ele>31</ele>
        <time>2023-11-15T07:11:21Z</time>
      </trkpt>
      <trkpt lat="47.26899" lon="-1.54625">
        <ele>32</ele>
        <time>2023-11-15T07:11:44Z</time>
      </trkpt>
      <trkpt lat="47.27013" lon="-1.54619">
        <ele>32</ele>
        <time>2023-11-15T07:14:17Z</time>
      </trkpt>
      <trkpt lat="47.27038" lon="-1.54621">
        <ele>32</ele>
        <time>2023-11-15T07:14:50Z</time>
      </trkpt>
      <trkpt lat="47.27062" lon="-1.54627">
        <ele>32</ele>
        <time>2023-11-15T07:15:23Z</time>
      </trkpt>
      <trkpt lat="47.27136" lon="-1.54647">
        <ele>31</ele>
        <time>2023-11-15T07:17:03Z</time>
      </trkpt>
      <trkpt lat="47.27237" lon="-1.54681">
        <ele>32</ele>
        <time>2023-11-15T07:19:21Z</time>
      </trkpt>
      <trkpt lat="47.27279" lon="-1.54689">
        <ele>32</ele>
        <time>2023-11-15T07:20:18Z</time>
      </trkpt>
      <trkpt lat="47.27333" lon="-1.54707">
        <ele>32</ele>
        <time>2023-11-15T07:21:32Z</time>
      </trkpt>
      <trkpt lat="47.27349" lon="-1.54715">
        <ele>32</ele>
        <time>2023-11-15T07:21:54Z</time>
      </trkpt>
      <trkpt lat="47.27357" lon="-1.54716">
        <ele>33</ele>
        <time>2023-11-15T07:22:05Z</time>
      </trkpt>
      <trkpt lat="47.27368" lon="-1.54724">
        <ele>33</ele>
        <time>2023-11-15T07:22:21Z</time>
      </trkpt>
      <trkpt lat="47.27406" lon="-1.54771">
        <ele>34</ele>
        <time>2023-11-15T07:23:27Z</time>
      </trkpt>
      <trkpt lat="47.27421" lon="-1.54778">
        <ele>34</ele>
        <time>2023-11-15T07:23:48Z</time>
      </trkpt>
      <trkpt lat="47.27449" lon="-1.54762">
        <ele>35</ele>
        <time>2023-11-15T07:24:28Z</time>
      </trkpt>
      <trkpt lat="47.27456" lon="-1.54752">
        <ele>36</ele>
        <time>2023-11-15T07:24:41Z</time>
      </trkpt>
      <trkpt lat="47.27468" lon="-1.54749">
        <ele>36</ele>
        <time>2023-11-15T07:24:58Z</time>
      </trkpt>
      <trkpt lat="47.27487" lon="-1.54749">
        <ele>37</ele>
        <time>2023-11-15T07:25:23Z</time>
      </trkpt>
      <trkpt lat="47.27516" lon="-1.54755">
        <ele>38</ele>
        <time>2023-11-15T07:26:02Z</time>
      </trkpt>
      <trkpt lat="47.27571" lon="-1.54772">
        <ele>37</ele>
        <time>2023-11-15T07:27:17Z</time>
      </trkpt>
      <trkpt lat="47.27577" lon="-1.54776">
        <ele>37</ele>
        <time>2023-11-15T07:27:26Z</time>
      </trkpt>
      <trkpt lat="47.27583" lon="-1.54781">
        <ele>37</ele>
        <time>2023-11-15T07:27:35Z</time>
      </trkpt>
      <trkpt lat="47.27599" lon="-1.54817">
        <ele>38</ele>
        <time>2023-11-15T07:28:14Z</time>
      </trkpt>
      <trkpt lat="47.2761" lon="-1.54826">
        <ele>38</ele>
        <time>2023-11-15T07:28:31Z</time>
      </trkpt>
      <trkpt lat="47.27625" lon="-1.54828">
        <ele>38</ele>
        <time>2023-11-15T07:28:51Z</time>
      </trkpt>
      <trkpt lat="47.27658" lon="-1.54814">
        <ele>38</ele>
        <time>2023-11-15T07:29:37Z</time>
      </trkpt>
      <trkpt lat="47.27687" lon="-1.54816">
        <ele>38</ele>
        <time>2023-11-15T07:30:16Z</time>
      </trkpt>
      <trkpt lat="47.27728" lon="-1.54825">
        <ele>37</ele>
        <time>2023-11-15T07:31:11Z</time>
      </trkpt>
      <trkpt lat="47.28022" lon="-1.5491">
        <ele>25</ele>
        <time>2023-11-15T07:37:51Z</time>
      </trkpt>
      <trkpt lat="47.28142" lon="-1.54948">
        <ele>27</ele>
        <time>2023-11-15T07:40:34Z</time>
      </trkpt>
      <trkpt lat="47.28219" lon="-1.54965">
        <ele>27</ele>
        <time>2023-11-15T07:42:18Z</time>
      </trkpt>
      <trkpt lat="47.28269" lon="-1.54972">
        <ele>28</ele>
        <time>2023-11-15T07:43:25Z</time>
      </trkpt>
      <trkpt lat="47.28291" lon="-1.54987">
        <ele>28</ele>
        <time>2023-11-15T07:43:58Z</time>
      </trkpt>
      <trkpt lat="47.28302" lon="-1.54987">
        <ele>28</ele>
        <time>2023-11-15T07:44:12Z</time>
      </trkpt>
      <trkpt lat="47.28314" lon="-1.54977">
        <ele>28</ele>
        <time>2023-11-15T07:44:31Z</time>
      </trkpt>
      <trkpt lat="47.28323" lon="-1.54975">
        <ele>28</ele>
        <time>2023-11-15T07:44:43Z</time>
      </trkpt>
      <trkpt lat="47.28434" lon="-1.54984">
        <ele>28</ele>
        <time>2023-11-15T07:47:11Z</time>
      </trkpt>
      <trkpt lat="47.28504" lon="-1.54982">
        <ele>27</ele>
        <time>2023-11-15T07:48:45Z</time>
      </trkpt>
      <trkpt lat="47.28513" lon="-1.54985">
        <ele>27</ele>
        <time>2023-11-15T07:48:57Z</time>
      </trkpt>
      <trkpt lat="47.28533" lon="-1.55017">
        <ele>27</ele>
        <time>2023-11-15T07:49:36Z</time>
      </trkpt>
      <trkpt lat="47.28554" lon="-1.55044">
        <ele>27</ele>
        <time>2023-11-15T07:50:14Z</time>
      </trkpt>
      <trkpt lat="47.2856" lon="-1.55046">
        <ele>26</ele>
        <time>2023-11-15T07:50:22Z</time>
      </trkpt>
      <trkpt lat="47.28567" lon="-1.55046">
        <ele>26</ele>
        <time>2023-11-15T07:50:31Z</time>
      </trkpt>
      <trkpt lat="47.28572" lon="-1.55042">
        <ele>26</ele>
        <time>2023-11-15T07:50:39Z</time>
      </trkpt>
      <trkpt lat="47.28595" lon="-1.54993">
        <ele>26</ele>
        <time>2023-11-15T07:51:33Z</time>
      </trkpt>
      <trkpt lat="47.28607" lon="-1.54978">
        <ele>25</ele>
        <time>2023-11-15T07:51:54Z</time>
      </trkpt>
      <trkpt lat="47.28614" lon="-1.54975">
        <ele>25</ele>
        <time>2023-11-15T07:52:03Z</time>
      </trkpt>
      <trkpt lat="47.28803" lon="-1.54946">
        <ele>26</ele>
        <time>2023-11-15T07:56:17Z</time>
      </trkpt>
      <trkpt lat="47.28931" lon="-1.54923">
        <ele>27</ele>
        <time>2023-11-15T07:59:09Z</time>
      </trkpt>
      <trkpt lat="47.2897" lon="-1.54926">
        <ele>26</ele>
        <time>2023-11-15T08:00:01Z</time>
      </trkpt>
      <trkpt lat="47.28984" lon="-1.5493">
        <ele>26</ele>
        <time>2023-11-15T08:00:20Z</time>
      </trkpt>
      <trkpt lat="47.29002" lon="-1.54943">
        <ele>25</ele>
        <time>2023-11-15T08:00:47Z</time>
      </trkpt>
      <trkpt lat="47.29016" lon="-1.54933">
        <ele>26</ele>
        <time>2023-11-15T08:01:08Z</time>
      </trkpt>
      <trkpt lat="47.29034" lon="-1.54931">
        <ele>26</ele>
        <time>2023-11-15T08:01:32Z</time>
      </trkpt>
      <trkpt lat="47.29039" lon="-1.54922">
        <ele>26</ele>
        <time>2023-11-15T08:01:42Z</time>
      </trkpt>
      <trkpt lat="47.29046" lon="-1.54917">
        <ele>27</ele>
        <time>2023-11-15T08:01:53Z</time>
      </trkpt>
      <trkpt lat="47.29052" lon="-1.54916">
        <ele>27</ele>
        <time>2023-11-15T08:02:01Z</time>
      </trkpt>
      <trkpt lat="47.2914" lon="-1.54915">
        <ele>27</ele>
        <time>2023-11-15T08:03:58Z</time>
      </trkpt>
      <trkpt lat="47.29227" lon="-1.5491">
        <ele>28</ele>
        <time>2023-11-15T08:05:54Z</time>
      </trkpt>
      <trkpt lat="47.29251" lon="-1.54922">
        <ele>29</ele>
        <time>2023-11-15T08:06:28Z</time>
      </trkpt>
      <trkpt lat="47.29287" lon="-1.54917">
        <ele>30</ele>
        <time>2023-11-15T08:07:16Z</time>
      </trkpt>
      <trkpt lat="47.29306" lon="-1.54919">
        <ele>30</ele>
        <time>2023-11-15T08:07:42Z</time>
      </trkpt>
      <trkpt lat="47.29343" lon="-1.54912">
        <ele>31</ele>
        <time>2023-11-15T08:08:32Z</time>
      </trkpt>
      <trkpt lat="47.29356" lon="-1.54899">
        <ele>30</ele>
        <time>2023-11-15T08:08:53Z</time>
      </trkpt>
      <trkpt lat="47.29365" lon="-1.54895">
        <ele>30</ele>
        <time>2023-11-15T08:09:05Z</time>
      </trkpt>
      <trkpt lat="47.29407" lon="-1.54893">
        <ele>31</ele>
        <time>2023-11-15T08:10:01Z</time>
      </trkpt>
      <trkpt lat="47.29445" lon="-1.54886">
        <ele>31</ele>
        <time>2023-11-15T08:10:52Z</time>
      </trkpt>
      <trkpt lat="47.29469" lon="-1.54887">
        <ele>30</ele>
        <time>2023-11-15T08:11:24Z</time>
      </trkpt>
      <trkpt lat="47.29487" lon="-1.54891">
        <ele>31</ele>
        <time>2023-11-15T08:11:49Z</time>
      </trkpt>
      <trkpt lat="47.29585" lon="-1.54888">
        <ele>29</ele>
        <time>2023-11-15T08:14:00Z</time>
      </trkpt>
      <trkpt lat="47.29603" lon="-1.54884">
        <ele>29</ele>
        <time>2023-11-15T08:14:24Z</time>
      </trkpt>
      <trkpt lat="47.29618" lon="-1.54876">
        <ele>28</ele>
        <time>2023-11-15T08:14:45Z</time>
      </trkpt>
      <trkpt lat="47.29694" lon="-1.54859">
        <ele>27</ele>
        <time>2023-11-15T08:16:28Z</time>
      </trkpt>
      <trkpt lat="47.29712" lon="-1.54852">
        <ele>27</ele>
        <time>2023-11-15T08:16:53Z</time>
      </trkpt>
      <trkpt lat="47.29728" lon="-1.54855">
        <ele>27</ele>
        <time>2023-11-15T08:17:14Z</time>
      </trkpt>
      <trkpt lat="47.29786" lon="-1.54838">
        <ele>25</ele>
        <time>2023-11-15T08:18:33Z</time>
      </trkpt>
      <trkpt lat="47.29809" lon="-1.54845">
        <ele>25</ele>
        <time>2023-11-15T08:19:04Z</time>
      </trkpt>
      <trkpt lat="47.29833" lon="-1.54841">
        <ele>24</ele>
        <time>2023-11-15T08:19:37Z</time>
      </trkpt>
      <trkpt lat="47.29937" lon="-1.5481">
        <ele>26</ele>
        <time>2023-11-15T08:21:58Z</time>
      </trkpt>
      <trkpt lat="47.30078" lon="-1.54757">
        <ele>24</ele>
        <time>2023-11-15T08:25:12Z</time>
      </trkpt>
      <trkpt lat="47.30145" lon="-1.54724">
        <ele>23</ele>
        <time>2023-11-15T08:26:47Z</time>
      </trkpt>
      <trkpt lat="47.30254" lon="-1.54664">
        <ele>21</ele>
        <time>2023-11-15T08:29:22Z</time>
      </trkpt>
      <trkpt lat="47.30274" lon="-1.54656">
        <ele>20</ele>
        <time>2023-11-15T08:29:49Z</time>
      </trkpt>
      <trkpt lat="47.30291" lon="-1.54658">
        <ele>20</ele>
        <time>2023-11-15T08:30:12Z</time>
      </trkpt>
      <trkpt lat="47.30311" lon="-1.54668">
        <ele>19</ele>
        <time>2023-11-15T08:30:40Z</time>
      </trkpt>
      <trkpt lat="47.30325" lon="-1.5467">
        <ele>18</ele>
        <time>2023-11-15T08:30:59Z</time>
      </trkpt>
      <trkpt lat="47.30332" lon="-1.54669">
        <ele>18</ele>
        <time>2023-11-15T08:31:09Z</time>
      </trkpt>
      <trkpt lat="47.30362" lon="-1.54656">
        <ele>19</ele>
        <time>2023-11-15T08:31:50Z</time>
      </trkpt>
      <trkpt lat="47.30372" lon="-1.54645">
        <ele>20</ele>
        <time>2023-11-15T08:32:07Z</time>
      </trkpt>
      <trkpt lat="47.30398" lon="-1.54606">
        <ele>21</ele>
        <time>2023-11-15T08:32:56Z</time>
      </trkpt>
      <trkpt lat="47.30423" lon="-1.54579">
        <ele>22</ele>
        <time>2023-11-15T08:33:38Z</time>
      </trkpt>
      <trkpt lat="47.30518" lon="-1.54506">
        <ele>26</ele>
        <time>2023-11-15T08:36:01Z</time>
      </trkpt>
      <trkpt lat="47.30571" lon="-1.54462">
        <ele>27</ele>
        <time>2023-11-15T08:37:22Z</time>
      </trkpt>
      <trkpt lat="47.30672" lon="-1.54369">
        <ele>26</ele>
        <time>2023-11-15T08:40:01Z</time>
      </trkpt>
      <trkpt lat="47.30719" lon="-1.54331">
        <ele>24</ele>
        <time>2023-11-15T08:41:12Z</time>
      </trkpt>
      <trkpt lat="47.30736" lon="-1.54313">
        <ele>23</ele>
        <time>2023-11-15T08:41:40Z</time>
      </trkpt>
      <trkpt lat="47.30757" lon="-1.54304">
        <ele>22</ele>
        <time>2023-11-15T08:42:09Z</time>
      </trkpt>
      <trkpt lat="47.30769" lon="-1.54302">
        <ele>22</ele>
        <time>2023-11-15T08:42:26Z</time>
      </trkpt>
      <trkpt lat="47.30823" lon="-1.54275">
        <ele>19</ele>
        <time>2023-11-15T08:43:42Z</time>
      </trkpt>
      <trkpt lat="47.30839" lon="-1.54271">
        <ele>18</ele>
        <time>2023-11-15T08:44:03Z</time>
      </trkpt>
      <trkpt lat="47.3088" lon="-1.54268">
        <ele>16</ele>
        <time>2023-11-15T08:44:58Z</time>
      </trkpt>
      <trkpt lat="47.30931" lon="-1.54272">
        <ele>15</ele>
        <time>2023-11-15T08:46:06Z</time>
      </trkpt>
      <trkpt lat="47.30969" lon="-1.5429">
        <ele>14</ele>
        <time>2023-11-15T08:46:59Z</time>
      </trkpt>
      <trkpt lat="47.30977" lon="-1.54291">
        <ele>14</ele>
        <time>2023-11-15T08:47:10Z</time>
      </trkpt>
      <trkpt lat="47.30995" lon="-1.54284">
        <ele>13</ele>
        <time>2023-11-15T08:47:35Z</time>
      </trkpt>
      <trkpt lat="47.31021" lon="-1.54282">
        <ele>12</ele>
        <time>2023-11-15T08:48:10Z</time>
      </trkpt>
      <trkpt lat="47.31104" lon="-1.5429">
        <ele>10</ele>
        <time>2023-11-15T08:50:01Z</time>
      </trkpt>
      <trkpt lat="47.31143" lon="-1.54289">
        <ele>9</ele>
        <time>2023-11-15T08:50:53Z</time>
      </trkpt>
      <trkpt lat="47.31167" lon="-1.54292">
        <ele>9</ele>
        <time>2023-11-15T08:51:25Z</time>
      </trkpt>
      <trkpt lat="47.31196" lon="-1.54301">
        <ele>8</ele>
        <time>2023-11-15T08:52:05Z</time>
      </trkpt>
      <trkpt lat="47.31202" lon="-1.54305">
        <ele>8</ele>
        <time>2023-11-15T08:52:13Z</time>
      </trkpt>
      <trkpt lat="47.31212" lon="-1.54323">
        <ele>8</ele>
        <time>2023-11-15T08:52:34Z</time>
      </trkpt>
      <trkpt lat="47.31225" lon="-1.5433">
        <ele>8</ele>
        <time>2023-11-15T08:52:53Z</time>
      </trkpt>
      <trkpt lat="47.31234" lon="-1.54329">
        <ele>8</ele>
        <time>2023-11-15T08:53:05Z</time>
      </trkpt>
      <trkpt lat="47.31254" lon="-1.54307">
        <ele>7</ele>
        <time>2023-11-15T08:53:38Z</time>
      </trkpt>
      <trkpt lat="47.31277" lon="-1.54303">
        <ele>7</ele>
        <time>2023-11-15T08:54:09Z</time>
      </trkpt>
      <trkpt lat="47.31334" lon="-1.54307">
        <ele>9</ele>
        <time>2023-11-15T08:55:25Z</time>
      </trkpt>
      <trkpt lat="47.31352" lon="-1.54316">
        <ele>9</ele>
        <time>2023-11-15T08:55:51Z</time>
      </trkpt>
      <trkpt lat="47.3142" lon="-1.54323">
        <ele>8</ele>
        <time>2023-11-15T08:57:22Z</time>
      </trkpt>
      <trkpt lat="47.3145" lon="-1.54332">
        <ele>7</ele>
        <time>2023-11-15T08:58:02Z</time>
      </trkpt>
      <trkpt lat="47.315" lon="-1.54335">
        <ele>6</ele>
        <time>2023-11-15T08:59:09Z</time>
      </trkpt>
      <trkpt lat="47.31517" lon="-1.54326">
        <ele>6</ele>
        <time>2023-11-15T08:59:33Z</time>
      </trkpt>
      <trkpt lat="47.31598" lon="-1.54329">
        <ele>9</ele>
        <time>2023-11-15T09:01:21Z</time>
      </trkpt>
      <trkpt lat="47.31612" lon="-1.54326">
        <ele>10</ele>
        <time>2023-11-15T09:01:40Z</time>
      </trkpt>
      <trkpt lat="47.31631" lon="-1.54313">
        <ele>11</ele>
        <time>2023-11-15T09:02:08Z</time>
      </trkpt>
      <trkpt lat="47.31643" lon="-1.54295">
        <ele>11</ele>
        <time>2023-11-15T09:02:31Z</time>
      </trkpt>
      <trkpt lat="47.31701" lon="-1.54253">
        <ele>10</ele>
        <time>2023-11-15T09:03:57Z</time>
      </trkpt>
      <trkpt lat="47.31755" lon="-1.54196">
        <ele>11</ele>
        <time>2023-11-15T09:05:26Z</time>
      </trkpt>
      <trkpt lat="47.31769" lon="-1.54177">
        <ele>12</ele>
        <time>2023-11-15T09:05:51Z</time>
      </trkpt>
      <trkpt lat="47.31816" lon="-1.5409">
        <ele>12</ele>
        <time>2023-11-15T09:07:32Z</time>
      </trkpt>
      <trkpt lat="47.31967" lon="-1.53785">
        <ele>11</ele>
        <time>2023-11-15T09:13:14Z</time>
      </trkpt>
      <trkpt lat="47.3199" lon="-1.5376">
        <ele>11</ele>
        <time>2023-11-15T09:13:52Z</time>
      </trkpt>
      <trkpt lat="47.32" lon="-1.53744">
        <ele>11</ele>
        <time>2023-11-15T09:14:11Z</time>
      </trkpt>
      <trkpt lat="47.32033" lon="-1.53718">
        <ele>11</ele>
        <time>2023-11-15T09:15:01Z</time>
      </trkpt>
      <trkpt lat="47.32045" lon="-1.53706">
        <ele>12</ele>
        <time>2023-11-15T09:15:21Z</time>
      </trkpt>
      <trkpt lat="47.32056" lon="-1.5369">
        <ele>12</ele>
        <time>2023-11-15T09:15:41Z</time>
      </trkpt>
      <trkpt lat="47.32062" lon="-1.5367">
        <ele>14</ele>
        <time>2023-11-15T09:16:01Z</time>
      </trkpt>
      <trkpt lat="47.32066" lon="-1.53637">
        <ele>14</ele>
        <time>2023-11-15T09:16:31Z</time>
      </trkpt>
      <trkpt lat="47.32077" lon="-1.53615">
        <ele>15</ele>
        <time>2023-11-15T09:16:56Z</time>
      </trkpt>
      <trkpt lat="47.32105" lon="-1.53594">
        <ele>15</ele>
        <time>2023-11-15T09:17:38Z</time>
      </trkpt>
      <trkpt lat="47.32123" lon="-1.53587">
        <ele>15</ele>
        <time>2023-11-15T09:18:03Z</time>
      </trkpt>
      <trkpt lat="47.322" lon="-1.53583">
        <ele>15</ele>
        <time>2023-11-15T09:19:46Z</time>
      </trkpt>
      <trkpt lat="47.32222" lon="-1.53586">
        <ele>14</ele>
        <time>2023-11-15T09:20:15Z</time>
      </trkpt>
      <trkpt lat="47.32233" lon="-1.53584">
        <ele>14</ele>
        <time>2023-11-15T09:20:30Z</time>
      </trkpt>
      <trkpt lat="47.32239" lon="-1.53578">
        <ele>14</ele>
        <time>2023-11-15T09:20:40Z</time>
      </trkpt>
      <trkpt lat="47.32247" lon="-1.53562">
        <ele>15</ele>
        <time>2023-11-15T09:20:58Z</time>
      </trkpt>
      <trkpt lat="47.3225" lon="-1.53538">
        <ele>15</ele>
        <time>2023-11-15T09:21:20Z</time>
      </trkpt>
      <trkpt lat="47.3225" lon="-1.5351">
        <ele>16</ele>
        <time>2023-11-15T09:21:45Z</time>
      </trkpt>
      <trkpt lat="47.32256" lon="-1.53508">
        <ele>16</ele>
        <time>2023-11-15T09:21:53Z</time>
      </trkpt>
      <trkpt lat="47.32336" lon="-1.53555">
        <ele>19</ele>
        <time>2023-11-15T09:23:48Z</time>
      </trkpt>
      <trkpt lat="47.32573" lon="-1.53671">
        <ele>29</ele>
        <time>2023-11-15T09:29:21Z</time>
      </trkpt>
      <trkpt lat="47.32606" lon="-1.53685">
        <ele>28</ele>
        <time>2023-11-15T09:30:07Z</time>
      </trkpt>
      <trkpt lat="47.32648" lon="-1.53698">
        <ele>26</ele>
        <time>2023-11-15T09:31:04Z</time>
      </trkpt>
      <trkpt lat="47.32669" lon="-1.53697">
        <ele>25</ele>
        <time>2023-11-15T09:31:33Z</time>
      </trkpt>
      <trkpt lat="47.32717" lon="-1.53701">
        <ele>23</ele>
        <time>2023-11-15T09:32:37Z</time>
      </trkpt>
      <trkpt lat="47.32742" lon="-1.53697">
        <ele>21</ele>
        <time>2023-11-15T09:33:10Z</time>
      </trkpt>
      <trkpt lat="47.32758" lon="-1.5369">
        <ele>20</ele>
        <time>2023-11-15T09:33:33Z</time>
      </trkpt>
      <trkpt lat="47.32856" lon="-1.53676">
        <ele>16</ele>
        <time>2023-11-15T09:35:44Z</time>
      </trkpt>
      <trkpt lat="47.32852" lon="-1.53663">
        <ele>16</ele>
        <time>2023-11-15T09:35:57Z</time>
      </trkpt>
      <trkpt lat="47.32829" lon="-1.53626">
        <ele>17</ele>
        <time>2023-11-15T09:36:42Z</time>
      </trkpt>
      <trkpt lat="47.3283" lon="-1.53615">
        <ele>17</ele>
        <time>2023-11-15T09:36:52Z</time>
      </trkpt>
      <trkpt lat="47.32835" lon="-1.53608">
        <ele>16</ele>
        <time>2023-11-15T09:37:01Z</time>
      </trkpt>
      <trkpt lat="47.32891" lon="-1.5356">
        <ele>14</ele>
        <time>2023-11-15T09:38:28Z</time>
      </trkpt>
      <trkpt lat="47.32948" lon="-1.53532">
        <ele>13</ele>
        <time>2023-11-15T09:39:48Z</time>
      </trkpt>
      <trkpt lat="47.32977" lon="-1.53522">
        <ele>12</ele>
        <time>2023-11-15T09:40:28Z</time>
      </trkpt>
      <trkpt lat="47.32988" lon="-1.53515">
        <ele>12</ele>
        <time>2023-11-15T09:40:44Z</time>
      </trkpt>
      <trkpt lat="47.33011" lon="-1.53491">
        <ele>13</ele>
        <time>2023-11-15T09:41:21Z</time>
      </trkpt>
      <trkpt lat="47.33028" lon="-1.53482">
        <ele>14</ele>
        <time>2023-11-15T09:41:45Z</time>
      </trkpt>
      <trkpt lat="47.33093" lon="-1.53466">
        <ele>17</ele>
        <time>2023-11-15T09:43:13Z</time>
      </trkpt>
      <trkpt lat="47.33128" lon="-1.53463">
        <ele>19</ele>
        <time>2023-11-15T09:44:00Z</time>
      </trkpt>
      <trkpt lat="47.33141" lon="-1.53468">
        <ele>20</ele>
        <time>2023-11-15T09:44:18Z</time>
      </trkpt>
      <trkpt lat="47.33183" lon="-1.53477">
        <ele>22</ele>
        <time>2023-11-15T09:45:15Z</time>
      </trkpt>
      <trkpt lat="47.33202" lon="-1.53484">
        <ele>22</ele>
        <time>2023-11-15T09:45:41Z</time>
      </trkpt>
      <trkpt lat="47.33244" lon="-1.53505">
        <ele>23</ele>
        <time>2023-11-15T09:46:40Z</time>
      </trkpt>
      <trkpt lat="47.33255" lon="-1.53514">
        <ele>23</ele>
        <time>2023-11-15T09:46:57Z</time>
      </trkpt>
      <trkpt lat="47.3326" lon="-1.53548">
        <ele>22</ele>
        <time>2023-11-15T09:47:28Z</time>
      </trkpt>
      <trkpt lat="47.33312" lon="-1.5353">
        <ele>22</ele>
        <time>2023-11-15T09:48:40Z</time>
      </trkpt>
      <trkpt lat="47.33378" lon="-1.53503">
        <ele>21</ele>
        <time>2023-11-15T09:50:11Z</time>
      </trkpt>
      <trkpt lat="47.3341" lon="-1.53499">
        <ele>20</ele>
        <time>2023-11-15T09:50:54Z</time>
      </trkpt>
      <trkpt lat="47.3349" lon="-1.53483">
        <ele>17</ele>
        <time>2023-11-15T09:52:42Z</time>
      </trkpt>
      <trkpt lat="47.33496" lon="-1.53477">
        <ele>17</ele>
        <time>2023-11-15T09:52:51Z</time>
      </trkpt>
      <trkpt lat="47.33499" lon="-1.53466">
        <ele>17</ele>
        <time>2023-11-15T09:53:02Z</time>
      </trkpt>
      <trkpt lat="47.33519" lon="-1.53308">
        <ele>16</ele>
        <time>2023-11-15T09:55:27Z</time>
      </trkpt>
      <trkpt lat="47.33523" lon="-1.53297">
        <ele>16</ele>
        <time>2023-11-15T09:55:39Z</time>
      </trkpt>
      <trkpt lat="47.3353" lon="-1.5329">
        <ele>16</ele>
        <time>2023-11-15T09:55:50Z</time>
      </trkpt>
      <trkpt lat="47.33561" lon="-1.5327">
        <ele>14</ele>
        <time>2023-11-15T09:56:35Z</time>
      </trkpt>
      <trkpt lat="47.33653" lon="-1.53216">
        <ele>9</ele>
        <time>2023-11-15T09:58:47Z</time>
      </trkpt>
      <trkpt lat="47.33699" lon="-1.53192">
        <ele>7</ele>
        <time>2023-11-15T09:59:52Z</time>
      </trkpt>
      <trkpt lat="47.33704" lon="-1.53187">
        <ele>7</ele>
        <time>2023-11-15T10:00:00Z</time>
      </trkpt>
      <trkpt lat="47.33717" lon="-1.53184">
        <ele>7</ele>
        <time>2023-11-15T10:00:18Z</time>
      </trkpt>
      <trkpt lat="47.33774" lon="-1.5315">
        <ele>7</ele>
        <time>2023-11-15T10:01:40Z</time>
      </trkpt>
      <trkpt lat="47.33807" lon="-1.53084">
        <ele>6</ele>
        <time>2023-11-15T10:02:54Z</time>
      </trkpt>
      <trkpt lat="47.33816" lon="-1.53058">
        <ele>6</ele>
        <time>2023-11-15T10:03:21Z</time>
      </trkpt>
      <trkpt lat="47.3382" lon="-1.53054">
        <ele>6</ele>
        <time>2023-11-15T10:03:27Z</time>
      </trkpt>
      <trkpt lat="47.33826" lon="-1.53059">
        <ele>6</ele>
        <time>2023-11-15T10:03:36Z</time>
      </trkpt>
      <trkpt lat="47.33861" lon="-1.53118">
        <ele>7</ele>
        <time>2023-11-15T10:04:47Z</time>
      </trkpt>
      <trkpt lat="47.33865" lon="-1.53122">
        <ele>8</ele>
        <time>2023-11-15T10:04:54Z</time>
      </trkpt>
      <trkpt lat="47.33873" lon="-1.5312">
        <ele>8</ele>
        <time>2023-11-15T10:05:04Z</time>
      </trkpt>
      <trkpt lat="47.33973" lon="-1.5286">
        <ele>9</ele>
        <time>2023-11-15T10:09:35Z</time>
      </trkpt>
      <trkpt lat="47.33993" lon="-1.52876">
        <ele>10</ele>
        <time>2023-11-15T10:10:05Z</time>
      </trkpt>
      <trkpt lat="47.34007" lon="-1.52891">
        <ele>10</ele>
        <time>2023-11-15T10:10:28Z</time>
      </trkpt>
      <trkpt lat="47.34011" lon="-1.5285">
        <ele>10</ele>
        <time>2023-11-15T10:11:06Z</time>
      </trkpt>
      <trkpt lat="47.34018" lon="-1.5281">
        <ele>11</ele>
        <time>2023-11-15T10:11:43Z</time>
      </trkpt>
      <trkpt lat="47.34029" lon="-1.52778">
        <ele>11</ele>
        <time>2023-11-15T10:12:15Z</time>
      </trkpt>
      <trkpt lat="47.34058" lon="-1.52652">
        <ele>14</ele>
        <time>2023-11-15T10:14:16Z</time>
      </trkpt>
      <trkpt lat="47.34048" lon="-1.52646">
        <ele>14</ele>
        <time>2023-11-15T10:14:30Z</time>
      </trkpt>
      <trkpt lat="47.33941" lon="-1.52602">
        <ele>7</ele>
        <time>2023-11-15T10:16:58Z</time>
      </trkpt>
      <trkpt lat="47.33947" lon="-1.52516">
        <ele>7</ele>
        <time>2023-11-15T10:18:17Z</time>
      </trkpt>
      <trkpt lat="47.33951" lon="-1.52495">
        <ele>7</ele>
        <time>2023-11-15T10:18:36Z</time>
      </trkpt>
      <trkpt lat="47.33993" lon="-1.52476">
        <ele>9</ele>
        <time>2023-11-15T10:19:35Z</time>
      </trkpt>
      <trkpt lat="47.34017" lon="-1.52468">
        <ele>11</ele>
        <time>2023-11-15T10:20:08Z</time>
      </trkpt>
      <trkpt lat="47.34029" lon="-1.52519">
        <ele>12</ele>
        <time>2023-11-15T10:20:57Z</time>
      </trkpt>
      <trkpt lat="47.34031" lon="-1.52542">
        <ele>13</ele>
        <time>2023-11-15T10:21:18Z</time>
      </trkpt>
      <trkpt lat="47.34039" lon="-1.5256">
        <ele>13</ele>
        <time>2023-11-15T10:21:37Z</time>
      </trkpt>
      <trkpt lat="47.34051" lon="-1.52555">
        <ele>14</ele>
        <time>2023-11-15T10:21:54Z</time>
      </trkpt>
      <trkpt lat="47.34062" lon="-1.52542">
        <ele>15</ele>
        <time>2023-11-15T10:22:12Z</time>
      </trkpt>
      <trkpt lat="47.34067" lon="-1.525">
        <ele>14</ele>
        <time>2023-11-15T10:22:51Z</time>
      </trkpt>
      <trkpt lat="47.34073" lon="-1.52492">
        <ele>14</ele>
        <time>2023-11-15T10:23:02Z</time>
      </trkpt>
      <trkpt lat="47.34126" lon="-1.52506">
        <ele>18</ele>
        <time>2023-11-15T10:24:14Z</time>
      </trkpt>
      <trkpt lat="47.34126" lon="-1.52524">
        <ele>18</ele>
        <time>2023-11-15T10:24:30Z</time>
      </trkpt>
      <trkpt lat="47.34151" lon="-1.52533">
        <ele>20</ele>
        <time>2023-11-15T10:25:04Z</time>
      </trkpt>
      <trkpt lat="47.34159" lon="-1.52544">
        <ele>21</ele>
        <time>2023-11-15T10:25:19Z</time>
      </trkpt>
      <trkpt lat="47.34174" lon="-1.52489">
        <ele>22</ele>
        <time>2023-11-15T10:26:12Z</time>
      </trkpt>
      <trkpt lat="47.34181" lon="-1.52492">
        <ele>22</ele>
        <time>2023-11-15T10:26:22Z</time>
      </trkpt>
      <trkpt lat="47.34187" lon="-1.52468">
        <ele>23</ele>
        <time>2023-11-15T10:26:45Z</time>
      </trkpt>
      <trkpt lat="47.34233" lon="-1.5249">
        <ele>27</ele>
        <time>2023-11-15T10:27:50Z</time>
      </trkpt>
      <trkpt lat="47.34245" lon="-1.52519">
        <ele>28</ele>
        <time>2023-11-15T10:28:21Z</time>
      </trkpt>
      <trkpt lat="47.34255" lon="-1.52534">
        <ele>27</ele>
        <time>2023-11-15T10:28:40Z</time>
      </trkpt>
      <trkpt lat="47.34276" lon="-1.52545">
        <ele>27</ele>
        <time>2023-11-15T10:29:09Z</time>
      </trkpt>
      <trkpt lat="47.34296" lon="-1.52582">
        <ele>25</ele>
        <time>2023-11-15T10:29:52Z</time>
      </trkpt>
      <trkpt lat="47.34303" lon="-1.52606">
        <ele>23</ele>
        <time>2023-11-15T10:30:16Z</time>
      </trkpt>
      <trkpt lat="47.34396" lon="-1.52706">
        <ele>20</ele>
        <time>2023-11-15T10:32:49Z</time>
      </trkpt>
      <trkpt lat="47.34405" lon="-1.52711">
        <ele>20</ele>
        <time>2023-11-15T10:33:02Z</time>
      </trkpt>
      <trkpt lat="47.34511" lon="-1.52549">
        <ele>23</ele>
        <time>2023-11-15T10:36:26Z</time>
      </trkpt>
      <trkpt lat="47.34521" lon="-1.52539">
        <ele>23</ele>
        <time>2023-11-15T10:36:42Z</time>
      </trkpt>
      <trkpt lat="47.34538" lon="-1.5253">
        <ele>23</ele>
        <time>2023-11-15T10:37:06Z</time>
      </trkpt>
      <trkpt lat="47.3457" lon="-1.52487">
        <ele>24</ele>
        <time>2023-11-15T10:38:04Z</time>
      </trkpt>
      <trkpt lat="47.34586" lon="-1.52459">
        <ele>24</ele>
        <time>2023-11-15T10:38:37Z</time>
      </trkpt>
      <trkpt lat="47.34607" lon="-1.52433">
        <ele>24</ele>
        <time>2023-11-15T10:39:13Z</time>
      </trkpt>
      <trkpt lat="47.34612" lon="-1.5243">
        <ele>24</ele>
        <time>2023-11-15T10:39:21Z</time>
      </trkpt>
      <trkpt lat="47.34772" lon="-1.52425">
        <ele>24</ele>
        <time>2023-11-15T10:42:54Z</time>
      </trkpt>
      <trkpt lat="47.34775" lon="-1.52433">
        <ele>24</ele>
        <time>2023-11-15T10:43:03Z</time>
      </trkpt>
      <trkpt lat="47.34785" lon="-1.52504">
        <ele>26</ele>
        <time>2023-11-15T10:44:08Z</time>
      </trkpt>
      <trkpt lat="47.34796" lon="-1.52513">
        <ele>26</ele>
        <time>2023-11-15T10:44:25Z</time>
      </trkpt>
      <trkpt lat="47.34913" lon="-1.52527">
        <ele>26</ele>
        <time>2023-11-15T10:47:02Z</time>
      </trkpt>
      <trkpt lat="47.34952" lon="-1.52544">
        <ele>26</ele>
        <time>2023-11-15T10:47:56Z</time>
      </trkpt>
      <trkpt lat="47.34964" lon="-1.52542">
        <ele>26</ele>
        <time>2023-11-15T10:48:12Z</time>
      </trkpt>
      <trkpt lat="47.35024" lon="-1.52496">
        <ele>25</ele>
        <time>2023-11-15T10:49:42Z</time>
      </trkpt>
      <trkpt lat="47.35029" lon="-1.5249">
        <ele>25</ele>
        <time>2023-11-15T10:49:51Z</time>
      </trkpt>
      <trkpt lat="47.35048" lon="-1.52482">
        <ele>25</ele>
        <time>2023-11-15T10:50:17Z</time>
      </trkpt>
      <trkpt lat="47.35089" lon="-1.52457">
        <ele>24</ele>
        <time>2023-11-15T10:51:16Z</time>
      </trkpt>
      <trkpt lat="47.35112" lon="-1.52438">
        <ele>23</ele>
        <time>2023-11-15T10:51:51Z</time>
      </trkpt>
      <trkpt lat="47.35123" lon="-1.52411">
        <ele>23</ele>
        <time>2023-11-15T10:52:20Z</time>
      </trkpt>
      <trkpt lat="47.35127" lon="-1.52394">
        <ele>22</ele>
        <time>2023-11-15T10:52:36Z</time>
      </trkpt>
      <trkpt lat="47.35137" lon="-1.52328">
        <ele>22</ele>
        <time>2023-11-15T10:53:37Z</time>
      </trkpt>
      <trkpt lat="47.35143" lon="-1.52304">
        <ele>21</ele>
        <time>2023-11-15T10:54:00Z</time>
      </trkpt>
      <trkpt lat="47.35149" lon="-1.52302">
        <ele>21</ele>
        <time>2023-11-15T10:54:09Z</time>
      </trkpt>
      <trkpt lat="47.3518" lon="-1.52309">
        <ele>19</ele>
        <time>2023-11-15T10:54:51Z</time>
      </trkpt>
      <trkpt lat="47.35241" lon="-1.52313">
        <ele>14</ele>
        <time>2023-11-15T10:56:12Z</time>
      </trkpt>
      <trkpt lat="47.35271" lon="-1.52319">
        <ele>12</ele>
        <time>2023-11-15T10:56:52Z</time>
      </trkpt>
      <trkpt lat="47.35288" lon="-1.52315">
        <ele>12</ele>
        <time>2023-11-15T10:57:15Z</time>
      </trkpt>
      <trkpt lat="47.3536" lon="-1.52265">
        <ele>13</ele>
        <time>2023-11-15T10:59:02Z</time>
      </trkpt>
      <trkpt lat="47.35384" lon="-1.52256">
        <ele>15</ele>
        <time>2023-11-15T10:59:35Z</time>
      </trkpt>
      <trkpt lat="47.35416" lon="-1.52235">
        <ele>18</ele>
        <time>2023-11-15T11:00:21Z</time>
      </trkpt>
      <trkpt lat="47.35424" lon="-1.52236">
        <ele>18</ele>
        <time>2023-11-15T11:00:32Z</time>
      </trkpt>
      <trkpt lat="47.35432" lon="-1.52231">
        <ele>19</ele>
        <time>2023-11-15T11:00:44Z</time>
      </trkpt>
      <trkpt lat="47.3544" lon="-1.52224">
        <ele>19</ele>
        <time>2023-11-15T11:00:56Z</time>
      </trkpt>
      <trkpt lat="47.35451" lon="-1.52206">
        <ele>20</ele>
        <time>2023-11-15T11:01:18Z</time>
      </trkpt>
      <trkpt lat="47.35462" lon="-1.52174">
        <ele>21</ele>
        <time>2023-11-15T11:01:50Z</time>
      </trkpt>
      <trkpt lat="47.35475" lon="-1.52161">
        <ele>21</ele>
        <time>2023-11-15T11:02:11Z</time>
      </trkpt>
      <trkpt lat="47.35515" lon="-1.52145">
        <ele>21</ele>
        <time>2023-11-15T11:03:07Z</time>
      </trkpt>
      <trkpt lat="47.35562" lon="-1.52132">
        <ele>20</ele>
        <time>2023-11-15T11:04:11Z</time>
      </trkpt>
      <trkpt lat="47.35626" lon="-1.52099">
        <ele>19</ele>
        <time>2023-11-15T11:05:41Z</time>
      </trkpt>
      <trkpt lat="47.35637" lon="-1.52112">
        <ele>19</ele>
        <time>2023-11-15T11:06:00Z</time>
      </trkpt>
      <trkpt lat="47.3564" lon="-1.5212">
        <ele>19</ele>
        <time>2023-11-15T11:06:08Z</time>
      </trkpt>
      <trkpt lat="47.35649" lon="-1.52121">
        <ele>18</ele>
        <time>2023-11-15T11:06:20Z</time>
      </trkpt>
      <trkpt lat="47.35718" lon="-1.52183">
        <ele>16</ele>
        <time>2023-11-15T11:08:08Z</time>
      </trkpt>
      <trkpt lat="47.35812" lon="-1.52248">
        <ele>14</ele>
        <time>2023-11-15T11:10:26Z</time>
      </trkpt>
      <trkpt lat="47.35834" lon="-1.52266">
        <ele>14</ele>
        <time>2023-11-15T11:11:00Z</time>
      </trkpt>
      <trkpt lat="47.35852" lon="-1.52274">
        <ele>14</ele>
        <time>2023-11-15T11:11:25Z</time>
      </trkpt>
      <trkpt lat="47.35862" lon="-1.52273">
        <ele>14</ele>
        <time>2023-11-15T11:11:38Z</time>
      </trkpt>
      <trkpt lat="47.35897" lon="-1.52257">
        <ele>14</ele>
        <time>2023-11-15T11:12:27Z</time>
      </trkpt>
      <trkpt lat="47.35912" lon="-1.52255">
        <ele>14</ele>
        <time>2023-11-15T11:12:47Z</time>
      </trkpt>
      <trkpt lat="47.3592" lon="-1.52251">
        <ele>14</ele>
        <time>2023-11-15T11:12:59Z</time>
      </trkpt>
      <trkpt lat="47.35982" lon="-1.52144">
        <ele>10</ele>
        <time>2023-11-15T11:15:06Z</time>
      </trkpt>
      <trkpt lat="47.35999" lon="-1.52125">
        <ele>10</ele>
        <time>2023-11-15T11:15:34Z</time>
      </trkpt>
      <trkpt lat="47.36009" lon="-1.52123">
        <ele>10</ele>
        <time>2023-11-15T11:15:48Z</time>
      </trkpt>
      <trkpt lat="47.36016" lon="-1.52125">
        <ele>10</ele>
        <time>2023-11-15T11:15:57Z</time>
      </trkpt>
      <trkpt lat="47.36056" lon="-1.5221">
        <ele>10</ele>
        <time>2023-11-15T11:17:31Z</time>
      </trkpt>
      <trkpt lat="47.36071" lon="-1.52228">
        <ele>10</ele>
        <time>2023-11-15T11:17:57Z</time>
      </trkpt>
      <trkpt lat="47.36081" lon="-1.52233">
        <ele>10</ele>
        <time>2023-11-15T11:18:11Z</time>
      </trkpt>
      <trkpt lat="47.36149" lon="-1.52254">
        <ele>11</ele>
        <time>2023-11-15T11:19:44Z</time>
      </trkpt>
      <trkpt lat="47.36202" lon="-1.52268">
        <ele>11</ele>
        <time>2023-11-15T11:20:55Z</time>
      </trkpt>
      <trkpt lat="47.36221" lon="-1.52279">
        <ele>11</ele>
        <time>2023-11-15T11:21:23Z</time>
      </trkpt>
      <trkpt lat="47.36229" lon="-1.52287">
        <ele>11</ele>
        <time>2023-11-15T11:21:36Z</time>
      </trkpt>
      <trkpt lat="47.36241" lon="-1.52309">
        <ele>11</ele>
        <time>2023-11-15T11:22:01Z</time>
      </trkpt>
      <trkpt lat="47.36269" lon="-1.52395">
        <ele>12</ele>
        <time>2023-11-15T11:23:27Z</time>
      </trkpt>
      <trkpt lat="47.36293" lon="-1.52444">
        <ele>12</ele>
        <time>2023-11-15T11:24:22Z</time>
      </trkpt>
      <trkpt lat="47.36317" lon="-1.52503">
        <ele>10</ele>
        <time>2023-11-15T11:25:24Z</time>
      </trkpt>
      <trkpt lat="47.36361" lon="-1.52559">
        <ele>10</ele>
        <time>2023-11-15T11:26:42Z</time>
      </trkpt>
      <trkpt lat="47.36412" lon="-1.52639">
        <ele>8</ele>
        <time>2023-11-15T11:28:21Z</time>
      </trkpt>
      <trkpt lat="47.3642" lon="-1.52644">
        <ele>8</ele>
        <time>2023-11-15T11:28:33Z</time>
      </trkpt>
      <trkpt lat="47.36435" lon="-1.52639">
        <ele>8</ele>
        <time>2023-11-15T11:28:53Z</time>
      </trkpt>
      <trkpt lat="47.36475" lon="-1.52632">
        <ele>8</ele>
        <time>2023-11-15T11:29:47Z</time>
      </trkpt>
      <trkpt lat="47.36502" lon="-1.52623">
        <ele>9</ele>
        <time>2023-11-15T11:30:24Z</time>
      </trkpt>
      <trkpt lat="47.36518" lon="-1.52614">
        <ele>9</ele>
        <time>2023-11-15T11:30:47Z</time>
      </trkpt>
      <trkpt lat="47.3654" lon="-1.52596">
        <ele>10</ele>
        <time>2023-11-15T11:31:20Z</time>
      </trkpt>
      <trkpt lat="47.36565" lon="-1.52565">
        <ele>11</ele>
        <time>2023-11-15T11:32:04Z</time>
      </trkpt>
      <trkpt lat="47.36597" lon="-1.52517">
        <ele>11</ele>
        <time>2023-11-15T11:33:05Z</time>
      </trkpt>
      <trkpt lat="47.36605" lon="-1.52501">
        <ele>11</ele>
        <time>2023-11-15T11:33:23Z</time>
      </trkpt>
      <trkpt lat="47.36613" lon="-1.52474">
        <ele>10</ele>
        <time>2023-11-15T11:33:49Z</time>
      </trkpt>
      <trkpt lat="47.36624" lon="-1.52452">
        <ele>10</ele>
        <time>2023-11-15T11:34:14Z</time>
      </trkpt>
      <trkpt lat="47.36636" lon="-1.52395">
        <ele>11</ele>
        <time>2023-11-15T11:35:08Z</time>
      </trkpt>
      <trkpt lat="47.36651" lon="-1.52249">
        <ele>11</ele>
        <time>2023-11-15T11:37:21Z</time>
      </trkpt>
      <trkpt lat="47.36659" lon="-1.52214">
        <ele>11</ele>
        <time>2023-11-15T11:37:55Z</time>
      </trkpt>
      <trkpt lat="47.36703" lon="-1.52116">
        <ele>10</ele>
        <time>2023-11-15T11:39:41Z</time>
      </trkpt>
      <trkpt lat="47.36783" lon="-1.51906">
        <ele>8</ele>
        <time>2023-11-15T11:43:19Z</time>
      </trkpt>
      <trkpt lat="47.36808" lon="-1.51829">
        <ele>9</ele>
        <time>2023-11-15T11:44:36Z</time>
      </trkpt>
      <trkpt lat="47.3681" lon="-1.51816">
        <ele>9</ele>
        <time>2023-11-15T11:44:48Z</time>
      </trkpt>
      <trkpt lat="47.36808" lon="-1.51775">
        <ele>8</ele>
        <time>2023-11-15T11:45:25Z</time>
      </trkpt>
      <trkpt lat="47.36798" lon="-1.517">
        <ele>9</ele>
        <time>2023-11-15T11:46:34Z</time>
      </trkpt>
      <trkpt lat="47.36802" lon="-1.51684">
        <ele>10</ele>
        <time>2023-11-15T11:46:50Z</time>
      </trkpt>
      <trkpt lat="47.36823" lon="-1.51681">
        <ele>10</ele>
        <time>2023-11-15T11:47:18Z</time>
      </trkpt>
      <trkpt lat="47.36996" lon="-1.51675">
        <ele>12</ele>
        <time>2023-11-15T11:51:09Z</time>
      </trkpt>
      <trkpt lat="47.37011" lon="-1.51676">
        <ele>12</ele>
        <time>2023-11-15T11:51:29Z</time>
      </trkpt>
      <trkpt lat="47.37024" lon="-1.51685">
        <ele>12</ele>
        <time>2023-11-15T11:51:48Z</time>
      </trkpt>
      <trkpt lat="47.3704" lon="-1.51701">
        <ele>12</ele>
        <time>2023-11-15T11:52:14Z</time>
      </trkpt>
      <trkpt lat="47.37051" lon="-1.51706">
        <ele>12</ele>
        <time>2023-11-15T11:52:29Z</time>
      </trkpt>
      <trkpt lat="47.37067" lon="-1.51706">
        <ele>12</ele>
        <time>2023-11-15T11:52:50Z</time>
      </trkpt>
      <trkpt lat="47.37075" lon="-1.51711">
        <ele>12</ele>
        <time>2023-11-15T11:53:02Z</time>
      </trkpt>
      <trkpt lat="47.37079" lon="-1.51717">
        <ele>13</ele>
        <time>2023-11-15T11:53:10Z</time>
      </trkpt>
      <trkpt lat="47.37087" lon="-1.51715">
        <ele>13</ele>
        <time>2023-11-15T11:53:21Z</time>
      </trkpt>
      <trkpt lat="47.37096" lon="-1.51707">
        <ele>13</ele>
        <time>2023-11-15T11:53:35Z</time>
      </trkpt>
      <trkpt lat="47.37105" lon="-1.51704">
        <ele>13</ele>
        <time>2023-11-15T11:53:47Z</time>
      </trkpt>
      <trkpt lat="47.37192" lon="-1.51558">
        <ele>13</ele>
        <time>2023-11-15T11:56:43Z</time>
      </trkpt>
      <trkpt lat="47.3724" lon="-1.51467">
        <ele>10</ele>
        <time>2023-11-15T11:58:27Z</time>
      </trkpt>
      <trkpt lat="47.37262" lon="-1.5144">
        <ele>10</ele>
        <time>2023-11-15T11:59:05Z</time>
      </trkpt>
      <trkpt lat="47.37273" lon="-1.51432">
        <ele>10</ele>
        <time>2023-11-15T11:59:21Z</time>
      </trkpt>
      <trkpt lat="47.37279" lon="-1.51431">
        <ele>10</ele>
        <time>2023-11-15T11:59:29Z</time>
      </trkpt>
      <trkpt lat="47.37346" lon="-1.51429">
        <ele>9</ele>
        <time>2023-11-15T12:00:59Z</time>
      </trkpt>
      <trkpt lat="47.37358" lon="-1.51425">
        <ele>9</ele>
        <time>2023-11-15T12:01:15Z</time>
      </trkpt>
      <trkpt lat="47.37375" lon="-1.51405">
        <ele>10</ele>
        <time>2023-11-15T12:01:44Z</time>
      </trkpt>
      <trkpt lat="47.37393" lon="-1.51378">
        <ele>11</ele>
        <time>2023-11-15T12:02:19Z</time>
      </trkpt>
      <trkpt lat="47.37412" lon="-1.51342">
        <ele>12</ele>
        <time>2023-11-15T12:03:00Z</time>
      </trkpt>
      <trkpt lat="47.37417" lon="-1.51321">
        <ele>12</ele>
        <time>2023-11-15T12:03:20Z</time>
      </trkpt>
      <trkpt lat="47.37425" lon="-1.51237">
        <ele>11</ele>
        <time>2023-11-15T12:04:37Z</time>
      </trkpt>
      <trkpt lat="47.37425" lon="-1.51174">
        <ele>9</ele>
        <time>2023-11-15T12:05:33Z</time>
      </trkpt>
      <trkpt lat="47.37431" lon="-1.51088">
        <ele>8</ele>
        <time>2023-11-15T12:06:52Z</time>
      </trkpt>
      <trkpt lat="47.37431" lon="-1.51074">
        <ele>8</ele>
        <time>2023-11-15T12:07:04Z</time>
      </trkpt>
      <trkpt lat="47.37421" lon="-1.51061">
        <ele>8</ele>
        <time>2023-11-15T12:07:22Z</time>
      </trkpt>
      <trkpt lat="47.3742" lon="-1.51053">
        <ele>8</ele>
        <time>2023-11-15T12:07:29Z</time>
      </trkpt>
      <trkpt lat="47.37441" lon="-1.50934">
        <ele>7</ele>
        <time>2023-11-15T12:09:21Z</time>
      </trkpt>
      <trkpt lat="47.37457" lon="-1.50894">
        <ele>6</ele>
        <time>2023-11-15T12:10:03Z</time>
      </trkpt>
      <trkpt lat="47.37488" lon="-1.50871">
        <ele>6</ele>
        <time>2023-11-15T12:10:49Z</time>
      </trkpt>
      <trkpt lat="47.37494" lon="-1.50869">
        <ele>6</ele>
        <time>2023-11-15T12:10:57Z</time>
      </trkpt>
      <trkpt lat="47.37511" lon="-1.50868">
        <ele>6</ele>
        <time>2023-11-15T12:11:20Z</time>
      </trkpt>
      <trkpt lat="47.37559" lon="-1.50875">
        <ele>7</ele>
        <time>2023-11-15T12:12:24Z</time>
      </trkpt>
      <trkpt lat="47.37577" lon="-1.50867">
        <ele>6</ele>
        <time>2023-11-15T12:12:49Z</time>
      </trkpt>
      <trkpt lat="47.37586" lon="-1.50855">
        <ele>6</ele>
        <time>2023-11-15T12:13:05Z</time>
      </trkpt>
      <trkpt lat="47.37624" lon="-1.50781">
        <ele>7</ele>
        <time>2023-11-15T12:14:29Z</time>
      </trkpt>
      <trkpt lat="47.37631" lon="-1.50753">
        <ele>7</ele>
        <time>2023-11-15T12:14:56Z</time>
      </trkpt>
      <trkpt lat="47.37642" lon="-1.50731">
        <ele>8</ele>
        <time>2023-11-15T12:15:21Z</time>
      </trkpt>
      <trkpt lat="47.37642" lon="-1.50684">
        <ele>8</ele>
        <time>2023-11-15T12:16:03Z</time>
      </trkpt>
      <trkpt lat="47.37644" lon="-1.50675">
        <ele>8</ele>
        <time>2023-11-15T12:16:12Z</time>
      </trkpt>
      <trkpt lat="47.37648" lon="-1.50671">
        <ele>9</ele>
        <time>2023-11-15T12:16:18Z</time>
      </trkpt>
      <trkpt lat="47.37672" lon="-1.50671">
        <ele>9</ele>
        <time>2023-11-15T12:16:50Z</time>
      </trkpt>
      <trkpt lat="47.37687" lon="-1.50667">
        <ele>9</ele>
        <time>2023-11-15T12:17:11Z</time>
      </trkpt>
      <trkpt lat="47.37731" lon="-1.5067">
        <ele>11</ele>
        <time>2023-11-15T12:18:10Z</time>
      </trkpt>
      <trkpt lat="47.37805" lon="-1.50655">
        <ele>13</ele>
        <time>2023-11-15T12:19:49Z</time>
      </trkpt>
      <trkpt lat="47.37843" lon="-1.50654">
        <ele>14</ele>
        <time>2023-11-15T12:20:40Z</time>
      </trkpt>
      <trkpt lat="47.37882" lon="-1.50648">
        <ele>13</ele>
        <time>2023-11-15T12:21:32Z</time>
      </trkpt>
      <trkpt lat="47.37894" lon="-1.50648">
        <ele>13</ele>
        <time>2023-11-15T12:21:48Z</time>
      </trkpt>
      <trkpt lat="47.379" lon="-1.50651">
        <ele>13</ele>
        <time>2023-11-15T12:21:57Z</time>
      </trkpt>
      <trkpt lat="47.37911" lon="-1.50666">
        <ele>14</ele>
        <time>2023-11-15T12:22:17Z</time>
      </trkpt>
      <trkpt lat="47.3792" lon="-1.50671">
        <ele>14</ele>
        <time>2023-11-15T12:22:30Z</time>
      </trkpt>
      <trkpt lat="47.37926" lon="-1.5067">
        <ele>13</ele>
        <time>2023-11-15T12:22:38Z</time>
      </trkpt>
      <trkpt lat="47.37944" lon="-1.50658">
        <ele>11</ele>
        <time>2023-11-15T12:23:04Z</time>
      </trkpt>
      <trkpt lat="47.37958" lon="-1.5066">
        <ele>10</ele>
        <time>2023-11-15T12:23:23Z</time>
      </trkpt>
      <trkpt lat="47.37964" lon="-1.50664">
        <ele>10</ele>
        <time>2023-11-15T12:23:32Z</time>
      </trkpt>
      <trkpt lat="47.37991" lon="-1.50698">
        <ele>9</ele>
        <time>2023-11-15T12:24:19Z</time>
      </trkpt>
      <trkpt lat="47.38004" lon="-1.50709">
        <ele>8</ele>
        <time>2023-11-15T12:24:39Z</time>
      </trkpt>
      <trkpt lat="47.38026" lon="-1.50717">
        <ele>7</ele>
        <time>2023-11-15T12:25:09Z</time>
      </trkpt>
      <trkpt lat="47.38059" lon="-1.50716">
        <ele>6</ele>
        <time>2023-11-15T12:25:53Z</time>
      </trkpt>
      <trkpt lat="47.38081" lon="-1.50728">
        <ele>5</ele>
        <time>2023-11-15T12:26:24Z</time>
      </trkpt>
      <trkpt lat="47.38116" lon="-1.50763">
        <ele>5</ele>
        <time>2023-11-15T12:27:21Z</time>
      </trkpt>
      <trkpt lat="47.38139" lon="-1.50774">
        <ele>6</ele>
        <time>2023-11-15T12:27:53Z</time>
      </trkpt>
      <trkpt lat="47.38161" lon="-1.50775">
        <ele>6</ele>
        <time>2023-11-15T12:28:23Z</time>
      </trkpt>
      <trkpt lat="47.38175" lon="-1.50782">
        <ele>6</ele>
        <time>2023-11-15T12:28:42Z</time>
      </trkpt>
      <trkpt lat="47.38214" lon="-1.50824">
        <ele>6</ele>
        <time>2023-11-15T12:29:47Z</time>
      </trkpt>
      <trkpt lat="47.3824" lon="-1.5086">
        <ele>6</ele>
        <time>2023-11-15T12:30:34Z</time>
      </trkpt>
      <trkpt lat="47.38249" lon="-1.50889">
        <ele>6</ele>
        <time>2023-11-15T12:31:03Z</time>
      </trkpt>
      <trkpt lat="47.38259" lon="-1.50938">
        <ele>7</ele>
        <time>2023-11-15T12:31:49Z</time>
      </trkpt>
      <trkpt lat="47.38275" lon="-1.5099">
        <ele>7</ele>
        <time>2023-11-15T12:32:41Z</time>
      </trkpt>
      <trkpt lat="47.38284" lon="-1.51004">
        <ele>7</ele>
        <time>2023-11-15T12:32:58Z</time>
      </trkpt>
      <trkpt lat="47.38301" lon="-1.5102">
        <ele>8</ele>
        <time>2023-11-15T12:33:25Z</time>
      </trkpt>
      <trkpt lat="47.38313" lon="-1.51045">
        <ele>8</ele>
        <time>2023-11-15T12:33:53Z</time>
      </trkpt>
      <trkpt lat="47.38318" lon="-1.51047">
        <ele>8</ele>
        <time>2023-11-15T12:34:00Z</time>
      </trkpt>
      <trkpt lat="47.38339" lon="-1.51045">
        <ele>8</ele>
        <time>2023-11-15T12:34:28Z</time>
      </trkpt>
      <trkpt lat="47.38348" lon="-1.51052">
        <ele>8</ele>
        <time>2023-11-15T12:34:42Z</time>
      </trkpt>
      <trkpt lat="47.3837" lon="-1.51094">
        <ele>7</ele>
        <time>2023-11-15T12:35:29Z</time>
      </trkpt>
      <trkpt lat="47.38458" lon="-1.51288">
        <ele>6</ele>
        <time>2023-11-15T12:39:00Z</time>
      </trkpt>
      <trkpt lat="47.38472" lon="-1.513">
        <ele>6</ele>
        <time>2023-11-15T12:39:22Z</time>
      </trkpt>
      <trkpt lat="47.38496" lon="-1.51329">
        <ele>7</ele>
        <time>2023-11-15T12:40:03Z</time>
      </trkpt>
      <trkpt lat="47.38513" lon="-1.5136">
        <ele>7</ele>
        <time>2023-11-15T12:40:39Z</time>
      </trkpt>
      <trkpt lat="47.38653" lon="-1.51726">
        <ele>8</ele>
        <time>2023-11-15T12:46:59Z</time>
      </trkpt>
      <trkpt lat="47.3874" lon="-1.51966">
        <ele>7</ele>
        <time>2023-11-15T12:51:05Z</time>
      </trkpt>
      <trkpt lat="47.38758" lon="-1.52033">
        <ele>7</ele>
        <time>2023-11-15T12:52:10Z</time>
      </trkpt>
      <trkpt lat="47.38806" lon="-1.52288">
        <ele>9</ele>
        <time>2023-11-15T12:56:10Z</time>
      </trkpt>
      <trkpt lat="47.38842" lon="-1.5253">
        <ele>11</ele>
        <time>2023-11-15T12:59:53Z</time>
      </trkpt>
      <trkpt lat="47.38852" lon="-1.52615">
        <ele>11</ele>
        <time>2023-11-15T13:01:11Z</time>
      </trkpt>
      <trkpt lat="47.38879" lon="-1.52698">
        <ele>12</ele>
        <time>2023-11-15T13:02:35Z</time>
      </trkpt>
      <trkpt lat="47.38882" lon="-1.52758">
        <ele>13</ele>
        <time>2023-11-15T13:03:29Z</time>
      </trkpt>
      <trkpt lat="47.38878" lon="-1.52788">
        <ele>14</ele>
        <time>2023-11-15T13:03:56Z</time>
      </trkpt>
      <trkpt lat="47.38849" lon="-1.52914">
        <ele>14</ele>
        <time>2023-11-15T13:05:57Z</time>
      </trkpt>
      <trkpt lat="47.38844" lon="-1.52979">
        <ele>14</ele>
        <time>2023-11-15T13:06:56Z</time>
      </trkpt>
      <trkpt lat="47.38847" lon="-1.52983">
        <ele>14</ele>
        <time>2023-11-15T13:07:01Z</time>
      </trkpt>
      <trkpt lat="47.38865" lon="-1.52975">
        <ele>13</ele>
        <time>2023-11-15T13:07:26Z</time>
      </trkpt>
      <trkpt lat="47.38881" lon="-1.52974">
        <ele>13</ele>
        <time>2023-11-15T13:07:48Z</time>
      </trkpt>
      <trkpt lat="47.38895" lon="-1.52976">
        <ele>13</ele>
        <time>2023-11-15T13:08:06Z</time>
      </trkpt>
      <trkpt lat="47.38952" lon="-1.52994">
        <ele>12</ele>
        <time>2023-11-15T13:09:24Z</time>
      </trkpt>
      <trkpt lat="47.38959" lon="-1.52999">
        <ele>12</ele>
        <time>2023-11-15T13:09:35Z</time>
      </trkpt>
      <trkpt lat="47.38964" lon="-1.53007">
        <ele>12</ele>
        <time>2023-11-15T13:09:44Z</time>
      </trkpt>
      <trkpt lat="47.38973" lon="-1.53038">
        <ele>12</ele>
        <time>2023-11-15T13:10:15Z</time>
      </trkpt>
      <trkpt lat="47.38976" lon="-1.53081">
        <ele>13</ele>
        <time>2023-11-15T13:10:54Z</time>
      </trkpt>
      <trkpt lat="47.38967" lon="-1.53225">
        <ele>16</ele>
        <time>2023-11-15T13:13:05Z</time>
      </trkpt>
      <trkpt lat="47.38974" lon="-1.53227">
        <ele>16</ele>
        <time>2023-11-15T13:13:14Z</time>
      </trkpt>
      <trkpt lat="47.38983" lon="-1.53212">
        <ele>16</ele>
        <time>2023-11-15T13:13:32Z</time>
      </trkpt>
      <trkpt lat="47.39033" lon="-1.53103">
        <ele>14</ele>
        <time>2023-11-15T13:15:31Z</time>
      </trkpt>
      <trkpt lat="47.39069" lon="-1.53042">
        <ele>14</ele>
        <time>2023-11-15T13:16:44Z</time>
      </trkpt>
      <trkpt lat="47.39089" lon="-1.53014">
        <ele>13</ele>
        <time>2023-11-15T13:17:21Z</time>
      </trkpt>
      <trkpt lat="47.39111" lon="-1.52993">
        <ele>13</ele>
        <time>2023-11-15T13:17:56Z</time>
      </trkpt>
      <trkpt lat="47.39162" lon="-1.52963">
        <ele>12</ele>
        <time>2023-11-15T13:19:09Z</time>
      </trkpt>
      <trkpt lat="47.39215" lon="-1.52922">
        <ele>11</ele>
        <time>2023-11-15T13:20:29Z</time>
      </trkpt>
      <trkpt lat="47.39242" lon="-1.52904">
        <ele>10</ele>
        <time>2023-11-15T13:21:09Z</time>
      </trkpt>
      <trkpt lat="47.3927" lon="-1.52892">
        <ele>10</ele>
        <time>2023-11-15T13:21:48Z</time>
      </trkpt>
      <trkpt lat="47.39333" lon="-1.52873">
        <ele>9</ele>
        <time>2023-11-15T13:23:13Z</time>
      </trkpt>
      <trkpt lat="47.39355" lon="-1.52863">
        <ele>9</ele>
        <time>2023-11-15T13:23:44Z</time>
      </trkpt>
      <trkpt lat="47.39458" lon="-1.52803">
        <ele>9</ele>
        <time>2023-11-15T13:26:12Z</time>
      </trkpt>
      <trkpt lat="47.3949" lon="-1.52791">
        <ele>10</ele>
        <time>2023-11-15T13:26:56Z</time>
      </trkpt>
      <trkpt lat="47.3952" lon="-1.52786">
        <ele>10</ele>
        <time>2023-11-15T13:27:36Z</time>
      </trkpt>
      <trkpt lat="47.39523" lon="-1.52781">
        <ele>10</ele>
        <time>2023-11-15T13:27:42Z</time>
      </trkpt>
      <trkpt lat="47.39531" lon="-1.52776">
        <ele>10</ele>
        <time>2023-11-15T13:27:54Z</time>
      </trkpt>
      <trkpt lat="47.39834" lon="-1.53371">
        <ele>12</ele>
        <time>2023-11-15T13:39:06Z</time>
      </trkpt>
      <trkpt lat="47.39857" lon="-1.53422">
        <ele>13</ele>
        <time>2023-11-15T13:40:02Z</time>
      </trkpt>
      <trkpt lat="47.39914" lon="-1.53533">
        <ele>14</ele>
        <time>2023-11-15T13:42:08Z</time>
      </trkpt>
      <trkpt lat="47.3998" lon="-1.53672">
        <ele>17</ele>
        <time>2023-11-15T13:44:41Z</time>
      </trkpt>
      <trkpt lat="47.40004" lon="-1.53543">
        <ele>15</ele>
        <time>2023-11-15T13:46:42Z</time>
      </trkpt>
      <trkpt lat="47.40005" lon="-1.53496">
        <ele>14</ele>
        <time>2023-11-15T13:47:24Z</time>
      </trkpt>
      <trkpt lat="47.40008" lon="-1.53483">
        <ele>13</ele>
        <time>2023-11-15T13:47:37Z</time>
      </trkpt>
      <trkpt lat="47.40038" lon="-1.53411">
        <ele>11</ele>
        <time>2023-11-15T13:48:53Z</time>
      </trkpt>
      <trkpt lat="47.40092" lon="-1.53325">
        <ele>10</ele>
        <time>2023-11-15T13:50:39Z</time>
      </trkpt>
      <trkpt lat="47.40099" lon="-1.53338">
        <ele>10</ele>
        <time>2023-11-15T13:50:54Z</time>
      </trkpt>
      <trkpt lat="47.40116" lon="-1.53449">
        <ele>11</ele>
        <time>2023-11-15T13:52:37Z</time>
      </trkpt>
      <trkpt lat="47.40127" lon="-1.53483">
        <ele>11</ele>
        <time>2023-11-15T13:53:11Z</time>
      </trkpt>
      <trkpt lat="47.40142" lon="-1.53505">
        <ele>11</ele>
        <time>2023-11-15T13:53:39Z</time>
      </trkpt>
      <trkpt lat="47.40178" lon="-1.53536">
        <ele>10</ele>
        <time>2023-11-15T13:54:35Z</time>
      </trkpt>
      <trkpt lat="47.40184" lon="-1.53548">
        <ele>10</ele>
        <time>2023-11-15T13:54:48Z</time>
      </trkpt>
      <trkpt lat="47.4019" lon="-1.53569">
        <ele>10</ele>
        <time>2023-11-15T13:55:09Z</time>
      </trkpt>
      <trkpt lat="47.40201" lon="-1.53637">
        <ele>10</ele>
        <time>2023-11-15T13:56:12Z</time>
      </trkpt>
      <trkpt lat="47.40205" lon="-1.53645">
        <ele>10</ele>
        <time>2023-11-15T13:56:21Z</time>
      </trkpt>
      <trkpt lat="47.40216" lon="-1.53647">
        <ele>9</ele>
        <time>2023-11-15T13:56:36Z</time>
      </trkpt>
      <trkpt lat="47.40223" lon="-1.53645">
        <ele>9</ele>
        <time>2023-11-15T13:56:45Z</time>
      </trkpt>
      <trkpt lat="47.40237" lon="-1.53546">
        <ele>10</ele>
        <time>2023-11-15T13:58:17Z</time>
      </trkpt>
      <trkpt lat="47.40247" lon="-1.53498">
        <ele>10</ele>
        <time>2023-11-15T13:59:02Z</time>
      </trkpt>
      <trkpt lat="47.40255" lon="-1.53473">
        <ele>9</ele>
        <time>2023-11-15T13:59:27Z</time>
      </trkpt>
      <trkpt lat="47.40385" lon="-1.53265">
        <ele>9</ele>
        <time>2023-11-15T14:03:43Z</time>
      </trkpt>
      <trkpt lat="47.40431" lon="-1.53168">
        <ele>10</ele>
        <time>2023-11-15T14:05:30Z</time>
      </trkpt>
      <trkpt lat="47.40456" lon="-1.53146">
        <ele>9</ele>
        <time>2023-11-15T14:06:08Z</time>
      </trkpt>
      <trkpt lat="47.40491" lon="-1.53129">
        <ele>9</ele>
        <time>2023-11-15T14:06:58Z</time>
      </trkpt>
      <trkpt lat="47.40554" lon="-1.53087">
        <ele>8</ele>
        <time>2023-11-15T14:08:30Z</time>
      </trkpt>
      <trkpt lat="47.406" lon="-1.53061">
        <ele>8</ele>
        <time>2023-11-15T14:09:36Z</time>
      </trkpt>
      <trkpt lat="47.40617" lon="-1.53057">
        <ele>9</ele>
        <time>2023-11-15T14:09:58Z</time>
      </trkpt>
      <trkpt lat="47.40637" lon="-1.53065">
        <ele>9</ele>
        <time>2023-11-15T14:10:26Z</time>
      </trkpt>
      <trkpt lat="47.40641" lon="-1.53063">
        <ele>9</ele>
        <time>2023-11-15T14:10:32Z</time>
      </trkpt>
      <trkpt lat="47.40671" lon="-1.52931">
        <ele>10</ele>
        <time>2023-11-15T14:12:38Z</time>
      </trkpt>
      <trkpt lat="47.40678" lon="-1.52884">
        <ele>10</ele>
        <time>2023-11-15T14:13:21Z</time>
      </trkpt>
      <trkpt lat="47.40684" lon="-1.5278">
        <ele>10</ele>
        <time>2023-11-15T14:14:55Z</time>
      </trkpt>
      <trkpt lat="47.40678" lon="-1.52697">
        <ele>10</ele>
        <time>2023-11-15T14:16:11Z</time>
      </trkpt>
      <trkpt lat="47.40669" lon="-1.52642">
        <ele>10</ele>
        <time>2023-11-15T14:17:02Z</time>
      </trkpt>
      <trkpt lat="47.40651" lon="-1.52572">
        <ele>10</ele>
        <time>2023-11-15T14:18:09Z</time>
      </trkpt>
      <trkpt lat="47.4063" lon="-1.52521">
        <ele>10</ele>
        <time>2023-11-15T14:19:03Z</time>
      </trkpt>
      <trkpt lat="47.40591" lon="-1.52455">
        <ele>9</ele>
        <time>2023-11-15T14:20:22Z</time>
      </trkpt>
      <trkpt lat="47.40416" lon="-1.52207">
        <ele>8</ele>
        <time>2023-11-15T14:25:46Z</time>
      </trkpt>
      <trkpt lat="47.404" lon="-1.52178">
        <ele>9</ele>
        <time>2023-11-15T14:26:20Z</time>
      </trkpt>
      <trkpt lat="47.40375" lon="-1.5215">
        <ele>10</ele>
        <time>2023-11-15T14:27:02Z</time>
      </trkpt>
      <trkpt lat="47.40235" lon="-1.51949">
        <ele>8</ele>
        <time>2023-11-15T14:31:22Z</time>
      </trkpt>
      <trkpt lat="47.4021" lon="-1.51917">
        <ele>8</ele>
        <time>2023-11-15T14:32:06Z</time>
      </trkpt>
      <trkpt lat="47.4021" lon="-1.51909">
        <ele>8</ele>
        <time>2023-11-15T14:32:14Z</time>
      </trkpt>
      <trkpt lat="47.40223" lon="-1.51893">
        <ele>7</ele>
        <time>2023-11-15T14:32:36Z</time>
      </trkpt>
      <trkpt lat="47.40227" lon="-1.51894">
        <ele>7</ele>
        <time>2023-11-15T14:32:42Z</time>
      </trkpt>
      <trkpt lat="47.40232" lon="-1.519">
        <ele>7</ele>
        <time>2023-11-15T14:32:50Z</time>
      </trkpt>
      <trkpt lat="47.40334" lon="-1.52059">
        <ele>12</ele>
        <time>2023-11-15T14:36:08Z</time>
      </trkpt>
      <trkpt lat="47.40389" lon="-1.5213">
        <ele>9</ele>
        <time>2023-11-15T14:37:45Z</time>
      </trkpt>
      <trkpt lat="47.40412" lon="-1.52172">
        <ele>8</ele>
        <time>2023-11-15T14:38:34Z</time>
      </trkpt>
      <trkpt lat="47.40461" lon="-1.52233">
        <ele>7</ele>
        <time>2023-11-15T14:40:00Z</time>
      </trkpt>
      <trkpt lat="47.40546" lon="-1.52352">
        <ele>8</ele>
        <time>2023-11-15T14:42:36Z</time>
      </trkpt>
      <trkpt lat="47.40613" lon="-1.52451">
        <ele>9</ele>
        <time>2023-11-15T14:44:42Z</time>
      </trkpt>
      <trkpt lat="47.40631" lon="-1.5248">
        <ele>9</ele>
        <time>2023-11-15T14:45:18Z</time>
      </trkpt>
      <trkpt lat="47.40661" lon="-1.5254">
        <ele>10</ele>
        <time>2023-11-15T14:46:25Z</time>
      </trkpt>
      <trkpt lat="47.40673" lon="-1.52575">
        <ele>10</ele>
        <time>2023-11-15T14:47:01Z</time>
      </trkpt>
      <trkpt lat="47.4069" lon="-1.52648">
        <ele>9</ele>
        <time>2023-11-15T14:48:11Z</time>
      </trkpt>
      <trkpt lat="47.40698" lon="-1.52705">
        <ele>9</ele>
        <time>2023-11-15T14:49:03Z</time>
      </trkpt>
      <trkpt lat="47.40703" lon="-1.52762">
        <ele>9</ele>
        <time>2023-11-15T14:49:55Z</time>
      </trkpt>
      <trkpt lat="47.40703" lon="-1.52815">
        <ele>9</ele>
        <time>2023-11-15T14:50:43Z</time>
      </trkpt>
      <trkpt lat="47.40699" lon="-1.52868">
        <ele>9</ele>
        <time>2023-11-15T14:51:31Z</time>
      </trkpt>
      <trkpt lat="47.4069" lon="-1.52936">
        <ele>9</ele>
        <time>2023-11-15T14:52:34Z</time>
      </trkpt>
      <trkpt lat="47.40651" lon="-1.53131">
        <ele>8</ele>
        <time>2023-11-15T14:55:37Z</time>
      </trkpt>
      <trkpt lat="47.40648" lon="-1.53213">
        <ele>7</ele>
        <time>2023-11-15T14:56:51Z</time>
      </trkpt>
      <trkpt lat="47.40653" lon="-1.53239">
        <ele>7</ele>
        <time>2023-11-15T14:57:16Z</time>
      </trkpt>
      <trkpt lat="47.40658" lon="-1.53251">
        <ele>7</ele>
        <time>2023-11-15T14:57:29Z</time>
      </trkpt>
      <trkpt lat="47.4067" lon="-1.53269">
        <ele>7</ele>
        <time>2023-11-15T14:57:51Z</time>
      </trkpt>
      <trkpt lat="47.40687" lon="-1.53281">
        <ele>6</ele>
        <time>2023-11-15T14:58:17Z</time>
      </trkpt>
      <trkpt lat="47.40782" lon="-1.53319">
        <ele>6</ele>
        <time>2023-11-15T15:00:28Z</time>
      </trkpt>
      <trkpt lat="47.40836" lon="-1.53344">
        <ele>5</ele>
        <time>2023-11-15T15:01:43Z</time>
      </trkpt>
      <trkpt lat="47.4095" lon="-1.53389">
        <ele>7</ele>
        <time>2023-11-15T15:04:21Z</time>
      </trkpt>
      <trkpt lat="47.40977" lon="-1.53405">
        <ele>7</ele>
        <time>2023-11-15T15:05:00Z</time>
      </trkpt>
      <trkpt lat="47.41012" lon="-1.53442">
        <ele>7</ele>
        <time>2023-11-15T15:05:57Z</time>
      </trkpt>
      <trkpt lat="47.4102" lon="-1.53454">
        <ele>7</ele>
        <time>2023-11-15T15:06:12Z</time>
      </trkpt>
      <trkpt lat="47.41034" lon="-1.53465">
        <ele>8</ele>
        <time>2023-11-15T15:06:33Z</time>
      </trkpt>
      <trkpt lat="47.41063" lon="-1.53499">
        <ele>8</ele>
        <time>2023-11-15T15:07:23Z</time>
      </trkpt>
      <trkpt lat="47.41092" lon="-1.53525">
        <ele>8</ele>
        <time>2023-11-15T15:08:08Z</time>
      </trkpt>
      <trkpt lat="47.41109" lon="-1.53536">
        <ele>8</ele>
        <time>2023-11-15T15:08:33Z</time>
      </trkpt>
      <trkpt lat="47.41139" lon="-1.53546">
        <ele>8</ele>
        <time>2023-11-15T15:09:14Z</time>
      </trkpt>
      <trkpt lat="47.41161" lon="-1.53547">
        <ele>8</ele>
        <time>2023-11-15T15:09:43Z</time>
      </trkpt>
      <trkpt lat="47.41184" lon="-1.53544">
        <ele>8</ele>
        <time>2023-11-15T15:10:14Z</time>
      </trkpt>
      <trkpt lat="47.41457" lon="-1.53457">
        <ele>8</ele>
        <time>2023-11-15T15:16:27Z</time>
      </trkpt>
      <trkpt lat="47.41495" lon="-1.5345">
        <ele>9</ele>
        <time>2023-11-15T15:17:18Z</time>
      </trkpt>
      <trkpt lat="47.41542" lon="-1.53452">
        <ele>10</ele>
        <time>2023-11-15T15:18:21Z</time>
      </trkpt>
      <trkpt lat="47.41582" lon="-1.53462">
        <ele>10</ele>
        <time>2023-11-15T15:19:15Z</time>
      </trkpt>
      <trkpt lat="47.41615" lon="-1.53477">
        <ele>10</ele>
        <time>2023-11-15T15:20:01Z</time>
      </trkpt>
      <trkpt lat="47.41814" lon="-1.53598">
        <ele>6</ele>
        <time>2023-11-15T15:24:48Z</time>
      </trkpt>
      <trkpt lat="47.41845" lon="-1.53608">
        <ele>6</ele>
        <time>2023-11-15T15:25:30Z</time>
      </trkpt>
      <trkpt lat="47.41865" lon="-1.53608">
        <ele>7</ele>
        <time>2023-11-15T15:25:57Z</time>
      </trkpt>
      <trkpt lat="47.41883" lon="-1.53603">
        <ele>7</ele>
        <time>2023-11-15T15:26:21Z</time>
      </trkpt>
      <trkpt lat="47.41904" lon="-1.53592">
        <ele>7</ele>
        <time>2023-11-15T15:26:51Z</time>
      </trkpt>
      <trkpt lat="47.42003" lon="-1.53531">
        <ele>7</ele>
        <time>2023-11-15T15:29:14Z</time>
      </trkpt>
      <trkpt lat="47.42175" lon="-1.5343">
        <ele>11</ele>
        <time>2023-11-15T15:33:21Z</time>
      </trkpt>
      <trkpt lat="47.42202" lon="-1.53417">
        <ele>11</ele>
        <time>2023-11-15T15:33:59Z</time>
      </trkpt>
      <trkpt lat="47.42227" lon="-1.534">
        <ele>11</ele>
        <time>2023-11-15T15:34:36Z</time>
      </trkpt>
      <trkpt lat="47.42293" lon="-1.53362">
        <ele>10</ele>
        <time>2023-11-15T15:36:10Z</time>
      </trkpt>
      <trkpt lat="47.4235" lon="-1.53337">
        <ele>10</ele>
        <time>2023-11-15T15:37:30Z</time>
      </trkpt>
      <trkpt lat="47.42495" lon="-1.53291">
        <ele>9</ele>
        <time>2023-11-15T15:40:48Z</time>
      </trkpt>
      <trkpt lat="47.42532" lon="-1.53276">
        <ele>10</ele>
        <time>2023-11-15T15:41:39Z</time>
      </trkpt>
      <trkpt lat="47.42555" lon="-1.53261">
        <ele>10</ele>
        <time>2023-11-15T15:42:12Z</time>
      </trkpt>
      <trkpt lat="47.42584" lon="-1.53228">
        <ele>10</ele>
        <time>2023-11-15T15:43:01Z</time>
      </trkpt>
    </trkseg>
  </trk>
  <trk>
    <name><![CDATA[Velodyssée_GesvrineNortBoucle_37km-10251580]]></name>
    <extensions>
      <line xmlns="http://www.topografix.com/GPX/gpx_style/0/2">
        <color>00FF00</color>
        <width>4</width>
      </line>
    </extensions>
    <trkseg>
      <trkpt lat="47.26852" lon="-1.54605">
        <ele>30</ele>
        <time>2023-11-15T07:10:24Z</time>
      </trkpt>
      <trkpt lat="47.26882" lon="-1.5462">
        <ele>31</ele>
        <time>2023-11-15T07:11:06Z</time>
      </trkpt>
      <trkpt lat="47.26899" lon="-1.54625">
        <ele>32</ele>
        <time>2023-11-15T07:11:29Z</time>
      </trkpt>
      <trkpt lat="47.27013" lon="-1.54619">
        <ele>32</ele>
        <time>2023-11-15T07:14:02Z</time>
      </trkpt>
      <trkpt lat="47.27038" lon="-1.54621">
        <ele>32</ele>
        <time>2023-11-15T07:14:35Z</time>
      </trkpt>
      <trkpt lat="47.27062" lon="-1.54627">
        <ele>32</ele>
        <time>2023-11-15T07:15:08Z</time>
      </trkpt>
      <trkpt lat="47.27136" lon="-1.54647">
        <ele>31</ele>
        <time>2023-11-15T07:16:48Z</time>
      </trkpt>
      <trkpt lat="47.27237" lon="-1.54681">
        <ele>32</ele>
        <time>2023-11-15T07:19:06Z</time>
      </trkpt>
      <trkpt lat="47.27279" lon="-1.54689">
        <ele>32</ele>
        <time>2023-11-15T07:20:03Z</time>
      </trkpt>
      <trkpt lat="47.27333" lon="-1.54707">
        <ele>32</ele>
        <time>2023-11-15T07:21:17Z</time>
      </trkpt>
      <trkpt lat="47.27349" lon="-1.54715">
        <ele>32</ele>
        <time>2023-11-15T07:21:39Z</time>
      </trkpt>
      <trkpt lat="47.27357" lon="-1.54716">
        <ele>33</ele>
        <time>2023-11-15T07:21:50Z</time>
      </trkpt>
      <trkpt lat="47.27368" lon="-1.54724">
        <ele>33</ele>
        <time>2023-11-15T07:22:06Z</time>
      </trkpt>
      <trkpt lat="47.27406" lon="-1.54771">
        <ele>34</ele>
        <time>2023-11-15T07:23:12Z</time>
      </trkpt>
      <trkpt lat="47.27421" lon="-1.54778">
        <ele>34</ele>
        <time>2023-11-15T07:23:33Z</time>
      </trkpt>
      <trkpt lat="47.27449" lon="-1.54762">
        <ele>35</ele>
        <time>2023-11-15T07:24:13Z</time>
      </trkpt>
      <trkpt lat="47.27456" lon="-1.54752">
        <ele>36</ele>
        <time>2023-11-15T07:24:26Z</time>
      </trkpt>
      <trkpt lat="47.27468" lon="-1.54749">
        <ele>36</ele>
        <time>2023-11-15T07:24:43Z</time>
      </trkpt>
      <trkpt lat="47.27487" lon="-1.54749">
        <ele>37</ele>
        <time>2023-11-15T07:25:08Z</time>
      </trkpt>
      <trkpt lat="47.27516" lon="-1.54755">
        <ele>38</ele>
        <time>2023-11-15T07:25:47Z</time>
      </trkpt>
      <trkpt lat="47.27571" lon="-1.54772">
        <ele>37</ele>
        <time>2023-11-15T07:27:02Z</time>
      </trkpt>
      <trkpt lat="47.27577" lon="-1.54776">
        <ele>37</ele>
        <time>2023-11-15T07:27:11Z</time>
      </trkpt>
      <trkpt lat="47.27583" lon="-1.54781">
        <ele>37</ele>
        <time>2023-11-15T07:27:20Z</time>
      </trkpt>
      <trkpt lat="47.27599" lon="-1.54817">
        <ele>38</ele>
        <time>2023-11-15T07:27:59Z</time>
      </trkpt>
      <trkpt lat="47.2761" lon="-1.54826">
        <ele>38</ele>
        <time>2023-11-15T07:28:16Z</time>
      </trkpt>
      <trkpt lat="47.27625" lon="-1.54828">
        <ele>38</ele>
        <time>2023-11-15T07:28:36Z</time>
      </trkpt>
      <trkpt lat="47.27658" lon="-1.54814">
        <ele>38</ele>
        <time>2023-11-15T07:29:22Z</time>
      </trkpt>
      <trkpt lat="47.27687" lon="-1.54816">
        <ele>38</ele>
        <time>2023-11-15T07:30:01Z</time>
      </trkpt>
      <trkpt lat="47.27728" lon="-1.54825">
        <ele>37</ele>
        <time>2023-11-15T07:30:56Z</time>
      </trkpt>
      <trkpt lat="47.28022" lon="-1.5491">
        <ele>25</ele>
        <time>2023-11-15T07:37:36Z</time>
      </trkpt>
      <trkpt lat="47.28142" lon="-1.54948">
        <ele>27</ele>
        <time>2023-11-15T07:40:19Z</time>
      </trkpt>
      <trkpt lat="47.28219" lon="-1.54965">
        <ele>27</ele>
        <time>2023-11-15T07:42:03Z</time>
      </trkpt>
      <trkpt lat="47.28269" lon="-1.54972">
        <ele>28</ele>
        <time>2023-11-15T07:43:10Z</time>
      </trkpt>
      <trkpt lat="47.28291" lon="-1.54987">
        <ele>28</ele>
        <time>2023-11-15T07:43:43Z</time>
      </trkpt>
      <trkpt lat="47.28302" lon="-1.54987">
        <ele>28</ele>
        <time>2023-11-15T07:43:57Z</time>
      </trkpt>
      <trkpt lat="47.28314" lon="-1.54977">
        <ele>28</ele>
        <time>2023-11-15T07:44:16Z</time>
      </trkpt>
      <trkpt lat="47.28323" lon="-1.54975">
        <ele>28</ele>
        <time>2023-11-15T07:44:28Z</time>
      </trkpt>
      <trkpt lat="47.28434" lon="-1.54984">
        <ele>28</ele>
        <time>2023-11-15T07:46:56Z</time>
      </trkpt>
      <trkpt lat="47.28504" lon="-1.54982">
        <ele>27</ele>
        <time>2023-11-15T07:48:30Z</time>
      </trkpt>
      <trkpt lat="47.28513" lon="-1.54985">
        <ele>27</ele>
        <time>2023-11-15T07:48:42Z</time>
      </trkpt>
      <trkpt lat="47.28533" lon="-1.55017">
        <ele>27</ele>
        <time>2023-11-15T07:49:21Z</time>
      </trkpt>
      <trkpt lat="47.28554" lon="-1.55044">
        <ele>27</ele>
        <time>2023-11-15T07:49:59Z</time>
      </trkpt>
      <trkpt lat="47.2856" lon="-1.55046">
        <ele>26</ele>
        <time>2023-11-15T07:50:07Z</time>
      </trkpt>
      <trkpt lat="47.28567" lon="-1.55046">
        <ele>26</ele>
        <time>2023-11-15T07:50:16Z</time>
      </trkpt>
      <trkpt lat="47.28572" lon="-1.55042">
        <ele>26</ele>
        <time>2023-11-15T07:50:24Z</time>
      </trkpt>
      <trkpt lat="47.28595" lon="-1.54993">
        <ele>26</ele>
        <time>2023-11-15T07:51:18Z</time>
      </trkpt>
      <trkpt lat="47.28607" lon="-1.54978">
        <ele>25</ele>
        <time>2023-11-15T07:51:39Z</time>
      </trkpt>
      <trkpt lat="47.28614" lon="-1.54975">
        <ele>25</ele>
        <time>2023-11-15T07:51:48Z</time>
      </trkpt>
      <trkpt lat="47.28803" lon="-1.54946">
        <ele>26</ele>
        <time>2023-11-15T07:56:02Z</time>
      </trkpt>
      <trkpt lat="47.28931" lon="-1.54923">
        <ele>27</ele>
        <time>2023-11-15T07:58:54Z</time>
      </trkpt>
      <trkpt lat="47.2897" lon="-1.54926">
        <ele>26</ele>
        <time>2023-11-15T07:59:46Z</time>
      </trkpt>
      <trkpt lat="47.28984" lon="-1.5493">
        <ele>26</ele>
        <time>2023-11-15T08:00:05Z</time>
      </trkpt>
      <trkpt lat="47.29002" lon="-1.54943">
        <ele>25</ele>
        <time>2023-11-15T08:00:32Z</time>
      </trkpt>
      <trkpt lat="47.29016" lon="-1.54933">
        <ele>26</ele>
        <time>2023-11-15T08:00:53Z</time>
      </trkpt>
      <trkpt lat="47.29034" lon="-1.54931">
        <ele>26</ele>
        <time>2023-11-15T08:01:17Z</time>
      </trkpt>
      <trkpt lat="47.29039" lon="-1.54922">
        <ele>26</ele>
        <time>2023-11-15T08:01:27Z</time>
      </trkpt>
      <trkpt lat="47.29046" lon="-1.54917">
        <ele>27</ele>
        <time>2023-11-15T08:01:38Z</time>
      </trkpt>
      <trkpt lat="47.29052" lon="-1.54916">
        <ele>27</ele>
        <time>2023-11-15T08:01:46Z</time>
      </trkpt>
      <trkpt lat="47.2914" lon="-1.54915">
        <ele>27</ele>
        <time>2023-11-15T08:03:43Z</time>
      </trkpt>
      <trkpt lat="47.29227" lon="-1.5491">
        <ele>28</ele>
        <time>2023-11-15T08:05:39Z</time>
      </trkpt>
      <trkpt lat="47.29251" lon="-1.54922">
        <ele>29</ele>
        <time>2023-11-15T08:06:13Z</time>
      </trkpt>
      <trkpt lat="47.29287" lon="-1.54917">
        <ele>30</ele>
        <time>2023-11-15T08:07:01Z</time>
      </trkpt>
      <trkpt lat="47.29306" lon="-1.54919">
        <ele>30</ele>
        <time>2023-11-15T08:07:27Z</time>
      </trkpt>
      <trkpt lat="47.29343" lon="-1.54912">
        <ele>31</ele>
        <time>2023-11-15T08:08:17Z</time>
      </trkpt>
      <trkpt lat="47.29356" lon="-1.54899">
        <ele>30</ele>
        <time>2023-11-15T08:08:38Z</time>
      </trkpt>
      <trkpt lat="47.29365" lon="-1.54895">
        <ele>30</ele>
        <time>2023-11-15T08:08:50Z</time>
      </trkpt>
      <trkpt lat="47.29407" lon="-1.54893">
        <ele>31</ele>
        <time>2023-11-15T08:09:46Z</time>
      </trkpt>
      <trkpt lat="47.29445" lon="-1.54886">
        <ele>31</ele>
        <time>2023-11-15T08:10:37Z</time>
      </trkpt>
      <trkpt lat="47.29469" lon="-1.54887">
        <ele>30</ele>
        <time>2023-11-15T08:11:09Z</time>
      </trkpt>
      <trkpt lat="47.29487" lon="-1.54891">
        <ele>31</ele>
        <time>2023-11-15T08:11:34Z</time>
      </trkpt>
      <trkpt lat="47.29585" lon="-1.54888">
        <ele>29</ele>
        <time>2023-11-15T08:13:45Z</time>
      </trkpt>
      <trkpt lat="47.29603" lon="-1.54884">
        <ele>29</ele>
        <time>2023-11-15T08:14:09Z</time>
      </trkpt>
      <trkpt lat="47.29618" lon="-1.54876">
        <ele>28</ele>
        <time>2023-11-15T08:14:30Z</time>
      </trkpt>
      <trkpt lat="47.29694" lon="-1.54859">
        <ele>27</ele>
        <time>2023-11-15T08:16:13Z</time>
      </trkpt>
      <trkpt lat="47.29712" lon="-1.54852">
        <ele>27</ele>
        <time>2023-11-15T08:16:38Z</time>
      </trkpt>
      <trkpt lat="47.29728" lon="-1.54855">
        <ele>27</ele>
        <time>2023-11-15T08:16:59Z</time>
      </trkpt>
      <trkpt lat="47.29786" lon="-1.54838">
        <ele>25</ele>
        <time>2023-11-15T08:18:18Z</time>
      </trkpt>
      <trkpt lat="47.29809" lon="-1.54845">
        <ele>25</ele>
        <time>2023-11-15T08:18:49Z</time>
      </trkpt>
      <trkpt lat="47.29833" lon="-1.54841">
        <ele>24</ele>
        <time>2023-11-15T08:19:22Z</time>
      </trkpt>
      <trkpt lat="47.29937" lon="-1.5481">
        <ele>26</ele>
        <time>2023-11-15T08:21:43Z</time>
      </trkpt>
      <trkpt lat="47.30078" lon="-1.54757">
        <ele>24</ele>
        <time>2023-11-15T08:24:57Z</time>
      </trkpt>
      <trkpt lat="47.30145" lon="-1.54724">
        <ele>23</ele>
        <time>2023-11-15T08:26:32Z</time>
      </trkpt>
      <trkpt lat="47.30254" lon="-1.54664">
        <ele>21</ele>
        <time>2023-11-15T08:29:07Z</time>
      </trkpt>
      <trkpt lat="47.30274" lon="-1.54656">
        <ele>20</ele>
        <time>2023-11-15T08:29:34Z</time>
      </trkpt>
      <trkpt lat="47.30291" lon="-1.54658">
        <ele>20</ele>
        <time>2023-11-15T08:29:57Z</time>
      </trkpt>
      <trkpt lat="47.30311" lon="-1.54668">
        <ele>19</ele>
        <time>2023-11-15T08:30:25Z</time>
      </trkpt>
      <trkpt lat="47.30325" lon="-1.5467">
        <ele>18</ele>
        <time>2023-11-15T08:30:44Z</time>
      </trkpt>
      <trkpt lat="47.30332" lon="-1.54669">
        <ele>18</ele>
        <time>2023-11-15T08:30:54Z</time>
      </trkpt>
      <trkpt lat="47.30362" lon="-1.54656">
        <ele>19</ele>
        <time>2023-11-15T08:31:35Z</time>
      </trkpt>
      <trkpt lat="47.30372" lon="-1.54645">
        <ele>20</ele>
        <time>2023-11-15T08:31:52Z</time>
      </trkpt>
      <trkpt lat="47.30398" lon="-1.54606">
        <ele>21</ele>
        <time>2023-11-15T08:32:41Z</time>
      </trkpt>
      <trkpt lat="47.30423" lon="-1.54579">
        <ele>22</ele>
        <time>2023-11-15T08:33:23Z</time>
      </trkpt>
      <trkpt lat="47.30518" lon="-1.54506">
        <ele>26</ele>
        <time>2023-11-15T08:35:46Z</time>
      </trkpt>
      <trkpt lat="47.30571" lon="-1.54462">
        <ele>27</ele>
        <time>2023-11-15T08:37:07Z</time>
      </trkpt>
      <trkpt lat="47.30672" lon="-1.54369">
        <ele>26</ele>
        <time>2023-11-15T08:39:46Z</time>
      </trkpt>
      <trkpt lat="47.30719" lon="-1.54331">
        <ele>24</ele>
        <time>2023-11-15T08:40:57Z</time>
      </trkpt>
      <trkpt lat="47.30736" lon="-1.54313">
        <ele>23</ele>
        <time>2023-11-15T08:41:25Z</time>
      </trkpt>
      <trkpt lat="47.30757" lon="-1.54304">
        <ele>22</ele>
        <time>2023-11-15T08:41:54Z</time>
      </trkpt>
      <trkpt lat="47.30769" lon="-1.54302">
        <ele>22</ele>
        <time>2023-11-15T08:42:11Z</time>
      </trkpt>
      <trkpt lat="47.30823" lon="-1.54275">
        <ele>19</ele>
        <time>2023-11-15T08:43:27Z</time>
      </trkpt>
      <trkpt lat="47.30839" lon="-1.54271">
        <ele>18</ele>
        <time>2023-11-15T08:43:48Z</time>
      </trkpt>
      <trkpt lat="47.3088" lon="-1.54268">
        <ele>16</ele>
        <time>2023-11-15T08:44:43Z</time>
      </trkpt>
      <trkpt lat="47.30931" lon="-1.54272">
        <ele>15</ele>
        <time>2023-11-15T08:45:51Z</time>
      </trkpt>
      <trkpt lat="47.30969" lon="-1.5429">
        <ele>14</ele>
        <time>2023-11-15T08:46:44Z</time>
      </trkpt>
      <trkpt lat="47.30977" lon="-1.54291">
        <ele>14</ele>
        <time>2023-11-15T08:46:55Z</time>
      </trkpt>
      <trkpt lat="47.30995" lon="-1.54284">
        <ele>13</ele>
        <time>2023-11-15T08:47:20Z</time>
      </trkpt>
      <trkpt lat="47.31021" lon="-1.54282">
        <ele>12</ele>
        <time>2023-11-15T08:47:55Z</time>
      </trkpt>
      <trkpt lat="47.31104" lon="-1.5429">
        <ele>10</ele>
        <time>2023-11-15T08:49:46Z</time>
      </trkpt>
      <trkpt lat="47.31143" lon="-1.54289">
        <ele>9</ele>
        <time>2023-11-15T08:50:38Z</time>
      </trkpt>
      <trkpt lat="47.31167" lon="-1.54292">
        <ele>9</ele>
        <time>2023-11-15T08:51:10Z</time>
      </trkpt>
      <trkpt lat="47.31196" lon="-1.54301">
        <ele>8</ele>
        <time>2023-11-15T08:51:50Z</time>
      </trkpt>
      <trkpt lat="47.31202" lon="-1.54305">
        <ele>8</ele>
        <time>2023-11-15T08:51:58Z</time>
      </trkpt>
      <trkpt lat="47.31212" lon="-1.54323">
        <ele>8</ele>
        <time>2023-11-15T08:52:19Z</time>
      </trkpt>
      <trkpt lat="47.31225" lon="-1.5433">
        <ele>8</ele>
        <time>2023-11-15T08:52:38Z</time>
      </trkpt>
      <trkpt lat="47.31234" lon="-1.54329">
        <ele>8</ele>
        <time>2023-11-15T08:52:50Z</time>
      </trkpt>
      <trkpt lat="47.31254" lon="-1.54307">
        <ele>7</ele>
        <time>2023-11-15T08:53:23Z</time>
      </trkpt>
      <trkpt lat="47.31277" lon="-1.54303">
        <ele>7</ele>
        <time>2023-11-15T08:53:54Z</time>
      </trkpt>
      <trkpt lat="47.31334" lon="-1.54307">
        <ele>9</ele>
        <time>2023-11-15T08:55:10Z</time>
      </trkpt>
      <trkpt lat="47.31352" lon="-1.54316">
        <ele>9</ele>
        <time>2023-11-15T08:55:36Z</time>
      </trkpt>
      <trkpt lat="47.3142" lon="-1.54323">
        <ele>8</ele>
        <time>2023-11-15T08:57:07Z</time>
      </trkpt>
      <trkpt lat="47.3145" lon="-1.54332">
        <ele>7</ele>
        <time>2023-11-15T08:57:47Z</time>
      </trkpt>
      <trkpt lat="47.315" lon="-1.54335">
        <ele>6</ele>
        <time>2023-11-15T08:58:54Z</time>
      </trkpt>
      <trkpt lat="47.31517" lon="-1.54326">
        <ele>6</ele>
        <time>2023-11-15T08:59:18Z</time>
      </trkpt>
      <trkpt lat="47.31598" lon="-1.54329">
        <ele>9</ele>
        <time>2023-11-15T09:01:06Z</time>
      </trkpt>
      <trkpt lat="47.31612" lon="-1.54326">
        <ele>10</ele>
        <time>2023-11-15T09:01:25Z</time>
      </trkpt>
      <trkpt lat="47.31631" lon="-1.54313">
        <ele>11</ele>
        <time>2023-11-15T09:01:53Z</time>
      </trkpt>
      <trkpt lat="47.31643" lon="-1.54295">
        <ele>11</ele>
        <time>2023-11-15T09:02:16Z</time>
      </trkpt>
      <trkpt lat="47.31701" lon="-1.54253">
        <ele>10</ele>
        <time>2023-11-15T09:03:42Z</time>
      </trkpt>
      <trkpt lat="47.31755" lon="-1.54196">
        <ele>11</ele>
        <time>2023-11-15T09:05:11Z</time>
      </trkpt>
      <trkpt lat="47.31769" lon="-1.54177">
        <ele>12</ele>
        <time>2023-11-15T09:05:36Z</time>
      </trkpt>
      <trkpt lat="47.31816" lon="-1.5409">
        <ele>12</ele>
        <time>2023-11-15T09:07:17Z</time>
      </trkpt>
      <trkpt lat="47.31967" lon="-1.53785">
        <ele>11</ele>
        <time>2023-11-15T09:12:59Z</time>
      </trkpt>
      <trkpt lat="47.3199" lon="-1.5376">
        <ele>11</ele>
        <time>2023-11-15T09:13:37Z</time>
      </trkpt>
      <trkpt lat="47.32" lon="-1.53744">
        <ele>11</ele>
        <time>2023-11-15T09:13:56Z</time>
      </trkpt>
      <trkpt lat="47.32033" lon="-1.53718">
        <ele>11</ele>
        <time>2023-11-15T09:14:46Z</time>
      </trkpt>
      <trkpt lat="47.32045" lon="-1.53706">
        <ele>12</ele>
        <time>2023-11-15T09:15:06Z</time>
      </trkpt>
      <trkpt lat="47.32056" lon="-1.5369">
        <ele>12</ele>
        <time>2023-11-15T09:15:26Z</time>
      </trkpt>
      <trkpt lat="47.32062" lon="-1.5367">
        <ele>14</ele>
        <time>2023-11-15T09:15:46Z</time>
      </trkpt>
      <trkpt lat="47.32066" lon="-1.53637">
        <ele>14</ele>
        <time>2023-11-15T09:16:16Z</time>
      </trkpt>
      <trkpt lat="47.32077" lon="-1.53615">
        <ele>15</ele>
        <time>2023-11-15T09:16:41Z</time>
      </trkpt>
      <trkpt lat="47.32105" lon="-1.53594">
        <ele>15</ele>
        <time>2023-11-15T09:17:23Z</time>
      </trkpt>
      <trkpt lat="47.32123" lon="-1.53587">
        <ele>15</ele>
        <time>2023-11-15T09:17:48Z</time>
      </trkpt>
      <trkpt lat="47.322" lon="-1.53583">
        <ele>15</ele>
        <time>2023-11-15T09:19:31Z</time>
      </trkpt>
      <trkpt lat="47.32222" lon="-1.53586">
        <ele>14</ele>
        <time>2023-11-15T09:20:00Z</time>
      </trkpt>
      <trkpt lat="47.32233" lon="-1.53584">
        <ele>14</ele>
        <time>2023-11-15T09:20:15Z</time>
      </trkpt>
      <trkpt lat="47.32239" lon="-1.53578">
        <ele>14</ele>
        <time>2023-11-15T09:20:25Z</time>
      </trkpt>
      <trkpt lat="47.32247" lon="-1.53562">
        <ele>15</ele>
        <time>2023-11-15T09:20:43Z</time>
      </trkpt>
      <trkpt lat="47.3225" lon="-1.53538">
        <ele>15</ele>
        <time>2023-11-15T09:21:05Z</time>
      </trkpt>
      <trkpt lat="47.3225" lon="-1.5351">
        <ele>16</ele>
        <time>2023-11-15T09:21:30Z</time>
      </trkpt>
      <trkpt lat="47.32256" lon="-1.53508">
        <ele>16</ele>
        <time>2023-11-15T09:21:38Z</time>
      </trkpt>
      <trkpt lat="47.32336" lon="-1.53555">
        <ele>19</ele>
        <time>2023-11-15T09:23:33Z</time>
      </trkpt>
      <trkpt lat="47.32573" lon="-1.53671">
        <ele>29</ele>
        <time>2023-11-15T09:29:06Z</time>
      </trkpt>
      <trkpt lat="47.32606" lon="-1.53685">
        <ele>28</ele>
        <time>2023-11-15T09:29:52Z</time>
      </trkpt>
      <trkpt lat="47.32648" lon="-1.53698">
        <ele>26</ele>
        <time>2023-11-15T09:30:49Z</time>
      </trkpt>
      <trkpt lat="47.32669" lon="-1.53697">
        <ele>25</ele>
        <time>2023-11-15T09:31:18Z</time>
      </trkpt>
      <trkpt lat="47.32717" lon="-1.53701">
        <ele>23</ele>
        <time>2023-11-15T09:32:22Z</time>
      </trkpt>
      <trkpt lat="47.32742" lon="-1.53697">
        <ele>21</ele>
        <time>2023-11-15T09:32:55Z</time>
      </trkpt>
      <trkpt lat="47.32758" lon="-1.5369">
        <ele>20</ele>
        <time>2023-11-15T09:33:18Z</time>
      </trkpt>
      <trkpt lat="47.32856" lon="-1.53676">
        <ele>16</ele>
        <time>2023-11-15T09:35:29Z</time>
      </trkpt>
      <trkpt lat="47.32852" lon="-1.53663">
        <ele>16</ele>
        <time>2023-11-15T09:35:42Z</time>
      </trkpt>
      <trkpt lat="47.32829" lon="-1.53626">
        <ele>17</ele>
        <time>2023-11-15T09:36:27Z</time>
      </trkpt>
      <trkpt lat="47.3283" lon="-1.53615">
        <ele>17</ele>
        <time>2023-11-15T09:36:37Z</time>
      </trkpt>
      <trkpt lat="47.32835" lon="-1.53608">
        <ele>16</ele>
        <time>2023-11-15T09:36:46Z</time>
      </trkpt>
      <trkpt lat="47.32891" lon="-1.5356">
        <ele>14</ele>
        <time>2023-11-15T09:38:13Z</time>
      </trkpt>
      <trkpt lat="47.32948" lon="-1.53532">
        <ele>13</ele>
        <time>2023-11-15T09:39:33Z</time>
      </trkpt>
      <trkpt lat="47.32977" lon="-1.53522">
        <ele>12</ele>
        <time>2023-11-15T09:40:13Z</time>
      </trkpt>
      <trkpt lat="47.32988" lon="-1.53515">
        <ele>12</ele>
        <time>2023-11-15T09:40:29Z</time>
      </trkpt>
      <trkpt lat="47.33011" lon="-1.53491">
        <ele>13</ele>
        <time>2023-11-15T09:41:06Z</time>
      </trkpt>
      <trkpt lat="47.33028" lon="-1.53482">
        <ele>14</ele>
        <time>2023-11-15T09:41:30Z</time>
      </trkpt>
      <trkpt lat="47.33093" lon="-1.53466">
        <ele>17</ele>
        <time>2023-11-15T09:42:58Z</time>
      </trkpt>
      <trkpt lat="47.33128" lon="-1.53463">
        <ele>19</ele>
        <time>2023-11-15T09:43:45Z</time>
      </trkpt>
      <trkpt lat="47.33141" lon="-1.53468">
        <ele>20</ele>
        <time>2023-11-15T09:44:03Z</time>
      </trkpt>
      <trkpt lat="47.33183" lon="-1.53477">
        <ele>22</ele>
        <time>2023-11-15T09:45:00Z</time>
      </trkpt>
      <trkpt lat="47.33202" lon="-1.53484">
        <ele>22</ele>
        <time>2023-11-15T09:45:26Z</time>
      </trkpt>
      <trkpt lat="47.33244" lon="-1.53505">
        <ele>23</ele>
        <time>2023-11-15T09:46:25Z</time>
      </trkpt>
      <trkpt lat="47.33255" lon="-1.53514">
        <ele>23</ele>
        <time>2023-11-15T09:46:42Z</time>
      </trkpt>
      <trkpt lat="47.3326" lon="-1.53548">
        <ele>22</ele>
        <time>2023-11-15T09:47:13Z</time>
      </trkpt>
      <trkpt lat="47.33312" lon="-1.5353">
        <ele>22</ele>
        <time>2023-11-15T09:48:25Z</time>
      </trkpt>
      <trkpt lat="47.33378" lon="-1.53503">
        <ele>21</ele>
        <time>2023-11-15T09:49:56Z</time>
      </trkpt>
      <trkpt lat="47.3341" lon="-1.53499">
        <ele>20</ele>
        <time>2023-11-15T09:50:39Z</time>
      </trkpt>
      <trkpt lat="47.3349" lon="-1.53483">
        <ele>17</ele>
        <time>2023-11-15T09:52:27Z</time>
      </trkpt>
      <trkpt lat="47.33496" lon="-1.53477">
        <ele>17</ele>
        <time>2023-11-15T09:52:36Z</time>
      </trkpt>
      <trkpt lat="47.33499" lon="-1.53466">
        <ele>17</ele>
        <time>2023-11-15T09:52:47Z</time>
      </trkpt>
      <trkpt lat="47.33519" lon="-1.53308">
        <ele>16</ele>
        <time>2023-11-15T09:55:12Z</time>
      </trkpt>
      <trkpt lat="47.33523" lon="-1.53297">
        <ele>16</ele>
        <time>2023-11-15T09:55:24Z</time>
      </trkpt>
      <trkpt lat="47.3353" lon="-1.5329">
        <ele>16</ele>
        <time>2023-11-15T09:55:35Z</time>
      </trkpt>
      <trkpt lat="47.33561" lon="-1.5327">
        <ele>14</ele>
        <time>2023-11-15T09:56:20Z</time>
      </trkpt>
      <trkpt lat="47.33653" lon="-1.53216">
        <ele>9</ele>
        <time>2023-11-15T09:58:32Z</time>
      </trkpt>
      <trkpt lat="47.33699" lon="-1.53192">
        <ele>7</ele>
        <time>2023-11-15T09:59:37Z</time>
      </trkpt>
      <trkpt lat="47.33704" lon="-1.53187">
        <ele>7</ele>
        <time>2023-11-15T09:59:45Z</time>
      </trkpt>
      <trkpt lat="47.33717" lon="-1.53184">
        <ele>7</ele>
        <time>2023-11-15T10:00:03Z</time>
      </trkpt>
      <trkpt lat="47.33774" lon="-1.5315">
        <ele>7</ele>
        <time>2023-11-15T10:01:25Z</time>
      </trkpt>
      <trkpt lat="47.33807" lon="-1.53084">
        <ele>6</ele>
        <time>2023-11-15T10:02:39Z</time>
      </trkpt>
      <trkpt lat="47.33816" lon="-1.53058">
        <ele>6</ele>
        <time>2023-11-15T10:03:06Z</time>
      </trkpt>
      <trkpt lat="47.3382" lon="-1.53054">
        <ele>6</ele>
        <time>2023-11-15T10:03:12Z</time>
      </trkpt>
      <trkpt lat="47.33826" lon="-1.53059">
        <ele>6</ele>
        <time>2023-11-15T10:03:21Z</time>
      </trkpt>
      <trkpt lat="47.33861" lon="-1.53118">
        <ele>7</ele>
        <time>2023-11-15T10:04:32Z</time>
      </trkpt>
      <trkpt lat="47.33865" lon="-1.53122">
        <ele>8</ele>
        <time>2023-11-15T10:04:39Z</time>
      </trkpt>
      <trkpt lat="47.33873" lon="-1.5312">
        <ele>8</ele>
        <time>2023-11-15T10:04:49Z</time>
      </trkpt>
      <trkpt lat="47.33973" lon="-1.5286">
        <ele>9</ele>
        <time>2023-11-15T10:09:20Z</time>
      </trkpt>
      <trkpt lat="47.33993" lon="-1.52876">
        <ele>10</ele>
        <time>2023-11-15T10:09:50Z</time>
      </trkpt>
      <trkpt lat="47.34007" lon="-1.52891">
        <ele>10</ele>
        <time>2023-11-15T10:10:13Z</time>
      </trkpt>
      <trkpt lat="47.34011" lon="-1.5285">
        <ele>10</ele>
        <time>2023-11-15T10:10:51Z</time>
      </trkpt>
      <trkpt lat="47.34018" lon="-1.5281">
        <ele>11</ele>
        <time>2023-11-15T10:11:28Z</time>
      </trkpt>
      <trkpt lat="47.34029" lon="-1.52778">
        <ele>11</ele>
        <time>2023-11-15T10:12:00Z</time>
      </trkpt>
      <trkpt lat="47.34058" lon="-1.52652">
        <ele>14</ele>
        <time>2023-11-15T10:14:01Z</time>
      </trkpt>
      <trkpt lat="47.34048" lon="-1.52646">
        <ele>14</ele>
        <time>2023-11-15T10:14:15Z</time>
      </trkpt>
      <trkpt lat="47.33941" lon="-1.52602">
        <ele>7</ele>
        <time>2023-11-15T10:16:43Z</time>
      </trkpt>
      <trkpt lat="47.33947" lon="-1.52516">
        <ele>7</ele>
        <time>2023-11-15T10:18:02Z</time>
      </trkpt>
      <trkpt lat="47.33951" lon="-1.52495">
        <ele>7</ele>
        <time>2023-11-15T10:18:21Z</time>
      </trkpt>
      <trkpt lat="47.33993" lon="-1.52476">
        <ele>9</ele>
        <time>2023-11-15T10:19:20Z</time>
      </trkpt>
      <trkpt lat="47.34017" lon="-1.52468">
        <ele>11</ele>
        <time>2023-11-15T10:19:53Z</time>
      </trkpt>
      <trkpt lat="47.34029" lon="-1.52519">
        <ele>12</ele>
        <time>2023-11-15T10:20:42Z</time>
      </trkpt>
      <trkpt lat="47.34031" lon="-1.52542">
        <ele>13</ele>
        <time>2023-11-15T10:21:03Z</time>
      </trkpt>
      <trkpt lat="47.34039" lon="-1.5256">
        <ele>13</ele>
        <time>2023-11-15T10:21:22Z</time>
      </trkpt>
      <trkpt lat="47.34051" lon="-1.52555">
        <ele>14</ele>
        <time>2023-11-15T10:21:39Z</time>
      </trkpt>
      <trkpt lat="47.34062" lon="-1.52542">
        <ele>15</ele>
        <time>2023-11-15T10:21:57Z</time>
      </trkpt>
      <trkpt lat="47.34067" lon="-1.525">
        <ele>14</ele>
        <time>2023-11-15T10:22:36Z</time>
      </trkpt>
      <trkpt lat="47.34073" lon="-1.52492">
        <ele>14</ele>
        <time>2023-11-15T10:22:47Z</time>
      </trkpt>
      <trkpt lat="47.34126" lon="-1.52506">
        <ele>18</ele>
        <time>2023-11-15T10:23:59Z</time>
      </trkpt>
      <trkpt lat="47.34126" lon="-1.52524">
        <ele>18</ele>
        <time>2023-11-15T10:24:15Z</time>
      </trkpt>
      <trkpt lat="47.34151" lon="-1.52533">
        <ele>20</ele>
        <time>2023-11-15T10:24:49Z</time>
      </trkpt>
      <trkpt lat="47.34159" lon="-1.52544">
        <ele>21</ele>
        <time>2023-11-15T10:25:04Z</time>
      </trkpt>
      <trkpt lat="47.34174" lon="-1.52489">
        <ele>22</ele>
        <time>2023-11-15T10:25:57Z</time>
      </trkpt>
      <trkpt lat="47.34181" lon="-1.52492">
        <ele>22</ele>
        <time>2023-11-15T10:26:07Z</time>
      </trkpt>
      <trkpt lat="47.34187" lon="-1.52468">
        <ele>23</ele>
        <time>2023-11-15T10:26:30Z</time>
      </trkpt>
      <trkpt lat="47.34233" lon="-1.5249">
        <ele>27</ele>
        <time>2023-11-15T10:27:35Z</time>
      </trkpt>
      <trkpt lat="47.34245" lon="-1.52519">
        <ele>28</ele>
        <time>2023-11-15T10:28:06Z</time>
      </trkpt>
      <trkpt lat="47.34255" lon="-1.52534">
        <ele>27</ele>
        <time>2023-11-15T10:28:25Z</time>
      </trkpt>
      <trkpt lat="47.34276" lon="-1.52545">
        <ele>27</ele>
        <time>2023-11-15T10:28:54Z</time>
      </trkpt>
      <trkpt lat="47.34296" lon="-1.52582">
        <ele>25</ele>
        <time>2023-11-15T10:29:37Z</time>
      </trkpt>
      <trkpt lat="47.34303" lon="-1.52606">
        <ele>23</ele>
        <time>2023-11-15T10:30:01Z</time>
      </trkpt>
      <trkpt lat="47.34396" lon="-1.52706">
        <ele>20</ele>
        <time>2023-11-15T10:32:34Z</time>
      </trkpt>
      <trkpt lat="47.34405" lon="-1.52711">
        <ele>20</ele>
        <time>2023-11-15T10:32:47Z</time>
      </trkpt>
      <trkpt lat="47.34511" lon="-1.52549">
        <ele>23</ele>
        <time>2023-11-15T10:36:11Z</time>
      </trkpt>
      <trkpt lat="47.34521" lon="-1.52539">
        <ele>23</ele>
        <time>2023-11-15T10:36:27Z</time>
      </trkpt>
      <trkpt lat="47.34538" lon="-1.5253">
        <ele>23</ele>
        <time>2023-11-15T10:36:51Z</time>
      </trkpt>
      <trkpt lat="47.3457" lon="-1.52487">
        <ele>24</ele>
        <time>2023-11-15T10:37:49Z</time>
      </trkpt>
      <trkpt lat="47.34586" lon="-1.52459">
        <ele>24</ele>
        <time>2023-11-15T10:38:22Z</time>
      </trkpt>
      <trkpt lat="47.34607" lon="-1.52433">
        <ele>24</ele>
        <time>2023-11-15T10:38:58Z</time>
      </trkpt>
      <trkpt lat="47.34612" lon="-1.5243">
        <ele>24</ele>
        <time>2023-11-15T10:39:06Z</time>
      </trkpt>
      <trkpt lat="47.34772" lon="-1.52425">
        <ele>24</ele>
        <time>2023-11-15T10:42:39Z</time>
      </trkpt>
      <trkpt lat="47.34775" lon="-1.52433">
        <ele>24</ele>
        <time>2023-11-15T10:42:48Z</time>
      </trkpt>
      <trkpt lat="47.34785" lon="-1.52504">
        <ele>26</ele>
        <time>2023-11-15T10:43:53Z</time>
      </trkpt>
      <trkpt lat="47.34796" lon="-1.52513">
        <ele>26</ele>
        <time>2023-11-15T10:44:10Z</time>
      </trkpt>
      <trkpt lat="47.34913" lon="-1.52527">
        <ele>26</ele>
        <time>2023-11-15T10:46:47Z</time>
      </trkpt>
      <trkpt lat="47.34952" lon="-1.52544">
        <ele>26</ele>
        <time>2023-11-15T10:47:41Z</time>
      </trkpt>
      <trkpt lat="47.34964" lon="-1.52542">
        <ele>26</ele>
        <time>2023-11-15T10:47:57Z</time>
      </trkpt>
      <trkpt lat="47.35024" lon="-1.52496">
        <ele>25</ele>
        <time>2023-11-15T10:49:27Z</time>
      </trkpt>
      <trkpt lat="47.35029" lon="-1.5249">
        <ele>25</ele>
        <time>2023-11-15T10:49:36Z</time>
      </trkpt>
      <trkpt lat="47.35048" lon="-1.52482">
        <ele>25</ele>
        <time>2023-11-15T10:50:02Z</time>
      </trkpt>
      <trkpt lat="47.35089" lon="-1.52457">
        <ele>24</ele>
        <time>2023-11-15T10:51:01Z</time>
      </trkpt>
      <trkpt lat="47.35112" lon="-1.52438">
        <ele>23</ele>
        <time>2023-11-15T10:51:36Z</time>
      </trkpt>
      <trkpt lat="47.35123" lon="-1.52411">
        <ele>23</ele>
        <time>2023-11-15T10:52:05Z</time>
      </trkpt>
      <trkpt lat="47.35127" lon="-1.52394">
        <ele>22</ele>
        <time>2023-11-15T10:52:21Z</time>
      </trkpt>
      <trkpt lat="47.35137" lon="-1.52328">
        <ele>22</ele>
        <time>2023-11-15T10:53:22Z</time>
      </trkpt>
      <trkpt lat="47.35143" lon="-1.52304">
        <ele>21</ele>
        <time>2023-11-15T10:53:45Z</time>
      </trkpt>
      <trkpt lat="47.35149" lon="-1.52302">
        <ele>21</ele>
        <time>2023-11-15T10:53:54Z</time>
      </trkpt>
      <trkpt lat="47.3518" lon="-1.52309">
        <ele>19</ele>
        <time>2023-11-15T10:54:36Z</time>
      </trkpt>
      <trkpt lat="47.35241" lon="-1.52313">
        <ele>14</ele>
        <time>2023-11-15T10:55:57Z</time>
      </trkpt>
      <trkpt lat="47.35271" lon="-1.52319">
        <ele>12</ele>
        <time>2023-11-15T10:56:37Z</time>
      </trkpt>
      <trkpt lat="47.35288" lon="-1.52315">
        <ele>12</ele>
        <time>2023-11-15T10:57:00Z</time>
      </trkpt>
      <trkpt lat="47.3536" lon="-1.52265">
        <ele>13</ele>
        <time>2023-11-15T10:58:47Z</time>
      </trkpt>
      <trkpt lat="47.35384" lon="-1.52256">
        <ele>15</ele>
        <time>2023-11-15T10:59:20Z</time>
      </trkpt>
      <trkpt lat="47.35416" lon="-1.52235">
        <ele>18</ele>
        <time>2023-11-15T11:00:06Z</time>
      </trkpt>
      <trkpt lat="47.35424" lon="-1.52236">
        <ele>18</ele>
        <time>2023-11-15T11:00:17Z</time>
      </trkpt>
      <trkpt lat="47.35432" lon="-1.52231">
        <ele>19</ele>
        <time>2023-11-15T11:00:29Z</time>
      </trkpt>
      <trkpt lat="47.3544" lon="-1.52224">
        <ele>19</ele>
        <time>2023-11-15T11:00:41Z</time>
      </trkpt>
      <trkpt lat="47.35451" lon="-1.52206">
        <ele>20</ele>
        <time>2023-11-15T11:01:03Z</time>
      </trkpt>
      <trkpt lat="47.35462" lon="-1.52174">
        <ele>21</ele>
        <time>2023-11-15T11:01:35Z</time>
      </trkpt>
      <trkpt lat="47.35475" lon="-1.52161">
        <ele>21</ele>
        <time>2023-11-15T11:01:56Z</time>
      </trkpt>
      <trkpt lat="47.35515" lon="-1.52145">
        <ele>21</ele>
        <time>2023-11-15T11:02:52Z</time>
      </trkpt>
      <trkpt lat="47.35562" lon="-1.52132">
        <ele>20</ele>
        <time>2023-11-15T11:03:56Z</time>
      </trkpt>
      <trkpt lat="47.35626" lon="-1.52099">
        <ele>19</ele>
        <time>2023-11-15T11:05:26Z</time>
      </trkpt>
      <trkpt lat="47.35637" lon="-1.52112">
        <ele>19</ele>
        <time>2023-11-15T11:05:45Z</time>
      </trkpt>
      <trkpt lat="47.3564" lon="-1.5212">
        <ele>19</ele>
        <time>2023-11-15T11:05:53Z</time>
      </trkpt>
      <trkpt lat="47.35649" lon="-1.52121">
        <ele>18</ele>
        <time>2023-11-15T11:06:05Z</time>
      </trkpt>
      <trkpt lat="47.35718" lon="-1.52183">
        <ele>16</ele>
        <time>2023-11-15T11:07:53Z</time>
      </trkpt>
      <trkpt lat="47.35812" lon="-1.52248">
        <ele>14</ele>
        <time>2023-11-15T11:10:11Z</time>
      </trkpt>
      <trkpt lat="47.35834" lon="-1.52266">
        <ele>14</ele>
        <time>2023-11-15T11:10:45Z</time>
      </trkpt>
      <trkpt lat="47.35852" lon="-1.52274">
        <ele>14</ele>
        <time>2023-11-15T11:11:10Z</time>
      </trkpt>
      <trkpt lat="47.35862" lon="-1.52273">
        <ele>14</ele>
        <time>2023-11-15T11:11:23Z</time>
      </trkpt>
      <trkpt lat="47.35897" lon="-1.52257">
        <ele>14</ele>
        <time>2023-11-15T11:12:12Z</time>
      </trkpt>
      <trkpt lat="47.35912" lon="-1.52255">
        <ele>14</ele>
        <time>2023-11-15T11:12:32Z</time>
      </trkpt>
      <trkpt lat="47.3592" lon="-1.52251">
        <ele>14</ele>
        <time>2023-11-15T11:12:44Z</time>
      </trkpt>
      <trkpt lat="47.35982" lon="-1.52144">
        <ele>10</ele>
        <time>2023-11-15T11:14:51Z</time>
      </trkpt>
      <trkpt lat="47.35999" lon="-1.52125">
        <ele>10</ele>
        <time>2023-11-15T11:15:19Z</time>
      </trkpt>
      <trkpt lat="47.36009" lon="-1.52123">
        <ele>10</ele>
        <time>2023-11-15T11:15:33Z</time>
      </trkpt>
      <trkpt lat="47.36016" lon="-1.52125">
        <ele>10</ele>
        <time>2023-11-15T11:15:42Z</time>
      </trkpt>
      <trkpt lat="47.36056" lon="-1.5221">
        <ele>10</ele>
        <time>2023-11-15T11:17:16Z</time>
      </trkpt>
      <trkpt lat="47.36071" lon="-1.52228">
        <ele>10</ele>
        <time>2023-11-15T11:17:42Z</time>
      </trkpt>
      <trkpt lat="47.36081" lon="-1.52233">
        <ele>10</ele>
        <time>2023-11-15T11:17:56Z</time>
      </trkpt>
      <trkpt lat="47.36149" lon="-1.52254">
        <ele>11</ele>
        <time>2023-11-15T11:19:29Z</time>
      </trkpt>
      <trkpt lat="47.36202" lon="-1.52268">
        <ele>11</ele>
        <time>2023-11-15T11:20:40Z</time>
      </trkpt>
      <trkpt lat="47.36221" lon="-1.52279">
        <ele>11</ele>
        <time>2023-11-15T11:21:08Z</time>
      </trkpt>
      <trkpt lat="47.36229" lon="-1.52287">
        <ele>11</ele>
        <time>2023-11-15T11:21:21Z</time>
      </trkpt>
      <trkpt lat="47.36241" lon="-1.52309">
        <ele>11</ele>
        <time>2023-11-15T11:21:46Z</time>
      </trkpt>
      <trkpt lat="47.36269" lon="-1.52395">
        <ele>12</ele>
        <time>2023-11-15T11:23:12Z</time>
      </trkpt>
      <trkpt lat="47.36293" lon="-1.52444">
        <ele>12</ele>
        <time>2023-11-15T11:24:07Z</time>
      </trkpt>
      <trkpt lat="47.36317" lon="-1.52503">
        <ele>10</ele>
        <time>2023-11-15T11:25:09Z</time>
      </trkpt>
      <trkpt lat="47.36361" lon="-1.52559">
        <ele>10</ele>
        <time>2023-11-15T11:26:27Z</time>
      </trkpt>
      <trkpt lat="47.36412" lon="-1.52639">
        <ele>8</ele>
        <time>2023-11-15T11:28:06Z</time>
      </trkpt>
      <trkpt lat="47.3642" lon="-1.52644">
        <ele>8</ele>
        <time>2023-11-15T11:28:18Z</time>
      </trkpt>
      <trkpt lat="47.36435" lon="-1.52639">
        <ele>8</ele>
        <time>2023-11-15T11:28:38Z</time>
      </trkpt>
      <trkpt lat="47.36475" lon="-1.52632">
        <ele>8</ele>
        <time>2023-11-15T11:29:32Z</time>
      </trkpt>
      <trkpt lat="47.36502" lon="-1.52623">
        <ele>9</ele>
        <time>2023-11-15T11:30:09Z</time>
      </trkpt>
      <trkpt lat="47.36518" lon="-1.52614">
        <ele>9</ele>
        <time>2023-11-15T11:30:32Z</time>
      </trkpt>
      <trkpt lat="47.3654" lon="-1.52596">
        <ele>10</ele>
        <time>2023-11-15T11:31:05Z</time>
      </trkpt>
      <trkpt lat="47.36565" lon="-1.52565">
        <ele>11</ele>
        <time>2023-11-15T11:31:49Z</time>
      </trkpt>
      <trkpt lat="47.36597" lon="-1.52517">
        <ele>11</ele>
        <time>2023-11-15T11:32:50Z</time>
      </trkpt>
      <trkpt lat="47.36605" lon="-1.52501">
        <ele>11</ele>
        <time>2023-11-15T11:33:08Z</time>
      </trkpt>
      <trkpt lat="47.36613" lon="-1.52474">
        <ele>10</ele>
        <time>2023-11-15T11:33:34Z</time>
      </trkpt>
      <trkpt lat="47.36624" lon="-1.52452">
        <ele>10</ele>
        <time>2023-11-15T11:33:59Z</time>
      </trkpt>
      <trkpt lat="47.36636" lon="-1.52395">
        <ele>11</ele>
        <time>2023-11-15T11:34:53Z</time>
      </trkpt>
      <trkpt lat="47.36651" lon="-1.52249">
        <ele>11</ele>
        <time>2023-11-15T11:37:06Z</time>
      </trkpt>
      <trkpt lat="47.36659" lon="-1.52214">
        <ele>11</ele>
        <time>2023-11-15T11:37:40Z</time>
      </trkpt>
      <trkpt lat="47.36703" lon="-1.52116">
        <ele>10</ele>
        <time>2023-11-15T11:39:26Z</time>
      </trkpt>
      <trkpt lat="47.36783" lon="-1.51906">
        <ele>8</ele>
        <time>2023-11-15T11:43:04Z</time>
      </trkpt>
      <trkpt lat="47.36808" lon="-1.51829">
        <ele>9</ele>
        <time>2023-11-15T11:44:21Z</time>
      </trkpt>
      <trkpt lat="47.3681" lon="-1.51816">
        <ele>9</ele>
        <time>2023-11-15T11:44:33Z</time>
      </trkpt>
      <trkpt lat="47.36808" lon="-1.51775">
        <ele>8</ele>
        <time>2023-11-15T11:45:10Z</time>
      </trkpt>
      <trkpt lat="47.36798" lon="-1.517">
        <ele>9</ele>
        <time>2023-11-15T11:46:19Z</time>
      </trkpt>
      <trkpt lat="47.36802" lon="-1.51684">
        <ele>10</ele>
        <time>2023-11-15T11:46:35Z</time>
      </trkpt>
      <trkpt lat="47.36823" lon="-1.51681">
        <ele>10</ele>
        <time>2023-11-15T11:47:03Z</time>
      </trkpt>
      <trkpt lat="47.36996" lon="-1.51675">
        <ele>12</ele>
        <time>2023-11-15T11:50:54Z</time>
      </trkpt>
      <trkpt lat="47.37011" lon="-1.51676">
        <ele>12</ele>
        <time>2023-11-15T11:51:14Z</time>
      </trkpt>
      <trkpt lat="47.37024" lon="-1.51685">
        <ele>12</ele>
        <time>2023-11-15T11:51:33Z</time>
      </trkpt>
      <trkpt lat="47.3704" lon="-1.51701">
        <ele>12</ele>
        <time>2023-11-15T11:51:59Z</time>
      </trkpt>
      <trkpt lat="47.37051" lon="-1.51706">
        <ele>12</ele>
        <time>2023-11-15T11:52:14Z</time>
      </trkpt>
      <trkpt lat="47.37067" lon="-1.51706">
        <ele>12</ele>
        <time>2023-11-15T11:52:35Z</time>
      </trkpt>
      <trkpt lat="47.37075" lon="-1.51711">
        <ele>12</ele>
        <time>2023-11-15T11:52:47Z</time>
      </trkpt>
      <trkpt lat="47.37079" lon="-1.51717">
        <ele>13</ele>
        <time>2023-11-15T11:52:55Z</time>
      </trkpt>
      <trkpt lat="47.37087" lon="-1.51715">
        <ele>13</ele>
        <time>2023-11-15T11:53:06Z</time>
      </trkpt>
      <trkpt lat="47.37096" lon="-1.51707">
        <ele>13</ele>
        <time>2023-11-15T11:53:20Z</time>
      </trkpt>
      <trkpt lat="47.37105" lon="-1.51704">
        <ele>13</ele>
        <time>2023-11-15T11:53:32Z</time>
      </trkpt>
      <trkpt lat="47.37192" lon="-1.51558">
        <ele>13</ele>
        <time>2023-11-15T11:56:28Z</time>
      </trkpt>
      <trkpt lat="47.3724" lon="-1.51467">
        <ele>10</ele>
        <time>2023-11-15T11:58:12Z</time>
      </trkpt>
      <trkpt lat="47.37262" lon="-1.5144">
        <ele>10</ele>
        <time>2023-11-15T11:58:50Z</time>
      </trkpt>
      <trkpt lat="47.37273" lon="-1.51432">
        <ele>10</ele>
        <time>2023-11-15T11:59:06Z</time>
      </trkpt>
      <trkpt lat="47.37279" lon="-1.51431">
        <ele>10</ele>
        <time>2023-11-15T11:59:14Z</time>
      </trkpt>
      <trkpt lat="47.37346" lon="-1.51429">
        <ele>9</ele>
        <time>2023-11-15T12:00:44Z</time>
      </trkpt>
      <trkpt lat="47.37358" lon="-1.51425">
        <ele>9</ele>
        <time>2023-11-15T12:01:00Z</time>
      </trkpt>
      <trkpt lat="47.37375" lon="-1.51405">
        <ele>10</ele>
        <time>2023-11-15T12:01:29Z</time>
      </trkpt>
      <trkpt lat="47.37393" lon="-1.51378">
        <ele>11</ele>
        <time>2023-11-15T12:02:04Z</time>
      </trkpt>
      <trkpt lat="47.37412" lon="-1.51342">
        <ele>12</ele>
        <time>2023-11-15T12:02:45Z</time>
      </trkpt>
      <trkpt lat="47.37417" lon="-1.51321">
        <ele>12</ele>
        <time>2023-11-15T12:03:05Z</time>
      </trkpt>
      <trkpt lat="47.37425" lon="-1.51237">
        <ele>11</ele>
        <time>2023-11-15T12:04:22Z</time>
      </trkpt>
      <trkpt lat="47.37425" lon="-1.51174">
        <ele>9</ele>
        <time>2023-11-15T12:05:18Z</time>
      </trkpt>
      <trkpt lat="47.37431" lon="-1.51088">
        <ele>8</ele>
        <time>2023-11-15T12:06:37Z</time>
      </trkpt>
      <trkpt lat="47.37431" lon="-1.51074">
        <ele>8</ele>
        <time>2023-11-15T12:06:49Z</time>
      </trkpt>
      <trkpt lat="47.37421" lon="-1.51061">
        <ele>8</ele>
        <time>2023-11-15T12:07:07Z</time>
      </trkpt>
      <trkpt lat="47.3742" lon="-1.51053">
        <ele>8</ele>
        <time>2023-11-15T12:07:14Z</time>
      </trkpt>
      <trkpt lat="47.37441" lon="-1.50934">
        <ele>7</ele>
        <time>2023-11-15T12:09:06Z</time>
      </trkpt>
      <trkpt lat="47.37457" lon="-1.50894">
        <ele>6</ele>
        <time>2023-11-15T12:09:48Z</time>
      </trkpt>
      <trkpt lat="47.37488" lon="-1.50871">
        <ele>6</ele>
        <time>2023-11-15T12:10:34Z</time>
      </trkpt>
      <trkpt lat="47.37494" lon="-1.50869">
        <ele>6</ele>
        <time>2023-11-15T12:10:42Z</time>
      </trkpt>
      <trkpt lat="47.37511" lon="-1.50868">
        <ele>6</ele>
        <time>2023-11-15T12:11:05Z</time>
      </trkpt>
      <trkpt lat="47.37559" lon="-1.50875">
        <ele>7</ele>
        <time>2023-11-15T12:12:09Z</time>
      </trkpt>
      <trkpt lat="47.37577" lon="-1.50867">
        <ele>6</ele>
        <time>2023-11-15T12:12:34Z</time>
      </trkpt>
      <trkpt lat="47.37586" lon="-1.50855">
        <ele>6</ele>
        <time>2023-11-15T12:12:50Z</time>
      </trkpt>
      <trkpt lat="47.37624" lon="-1.50781">
        <ele>7</ele>
        <time>2023-11-15T12:14:14Z</time>
      </trkpt>
      <trkpt lat="47.37631" lon="-1.50753">
        <ele>7</ele>
        <time>2023-11-15T12:14:41Z</time>
      </trkpt>
      <trkpt lat="47.37642" lon="-1.50731">
        <ele>8</ele>
        <time>2023-11-15T12:15:06Z</time>
      </trkpt>
      <trkpt lat="47.37642" lon="-1.50684">
        <ele>8</ele>
        <time>2023-11-15T12:15:48Z</time>
      </trkpt>
      <trkpt lat="47.37644" lon="-1.50675">
        <ele>8</ele>
        <time>2023-11-15T12:15:57Z</time>
      </trkpt>
      <trkpt lat="47.37648" lon="-1.50671">
        <ele>9</ele>
        <time>2023-11-15T12:16:03Z</time>
      </trkpt>
      <trkpt lat="47.37672" lon="-1.50671">
        <ele>9</ele>
        <time>2023-11-15T12:16:35Z</time>
      </trkpt>
      <trkpt lat="47.37687" lon="-1.50667">
        <ele>9</ele>
        <time>2023-11-15T12:16:56Z</time>
      </trkpt>
      <trkpt lat="47.37731" lon="-1.5067">
        <ele>11</ele>
        <time>2023-11-15T12:17:55Z</time>
      </trkpt>
      <trkpt lat="47.37805" lon="-1.50655">
        <ele>13</ele>
        <time>2023-11-15T12:19:34Z</time>
      </trkpt>
      <trkpt lat="47.37843" lon="-1.50654">
        <ele>14</ele>
        <time>2023-11-15T12:20:25Z</time>
      </trkpt>
      <trkpt lat="47.37882" lon="-1.50648">
        <ele>13</ele>
        <time>2023-11-15T12:21:17Z</time>
      </trkpt>
      <trkpt lat="47.37894" lon="-1.50648">
        <ele>13</ele>
        <time>2023-11-15T12:21:33Z</time>
      </trkpt>
      <trkpt lat="47.379" lon="-1.50651">
        <ele>13</ele>
        <time>2023-11-15T12:21:42Z</time>
      </trkpt>
      <trkpt lat="47.37911" lon="-1.50666">
        <ele>14</ele>
        <time>2023-11-15T12:22:02Z</time>
      </trkpt>
      <trkpt lat="47.3792" lon="-1.50671">
        <ele>14</ele>
        <time>2023-11-15T12:22:15Z</time>
      </trkpt>
      <trkpt lat="47.37926" lon="-1.5067">
        <ele>13</ele>
        <time>2023-11-15T12:22:23Z</time>
      </trkpt>
      <trkpt lat="47.37944" lon="-1.50658">
        <ele>11</ele>
        <time>2023-11-15T12:22:49Z</time>
      </trkpt>
      <trkpt lat="47.37958" lon="-1.5066">
        <ele>10</ele>
        <time>2023-11-15T12:23:08Z</time>
      </trkpt>
      <trkpt lat="47.37964" lon="-1.50664">
        <ele>10</ele>
        <time>2023-11-15T12:23:17Z</time>
      </trkpt>
      <trkpt lat="47.37991" lon="-1.50698">
        <ele>9</ele>
        <time>2023-11-15T12:24:04Z</time>
      </trkpt>
      <trkpt lat="47.38004" lon="-1.50709">
        <ele>8</ele>
        <time>2023-11-15T12:24:24Z</time>
      </trkpt>
      <trkpt lat="47.38026" lon="-1.50717">
        <ele>7</ele>
        <time>2023-11-15T12:24:54Z</time>
      </trkpt>
      <trkpt lat="47.38059" lon="-1.50716">
        <ele>6</ele>
        <time>2023-11-15T12:25:38Z</time>
      </trkpt>
      <trkpt lat="47.38081" lon="-1.50728">
        <ele>5</ele>
        <time>2023-11-15T12:26:09Z</time>
      </trkpt>
      <trkpt lat="47.38116" lon="-1.50763">
        <ele>5</ele>
        <time>2023-11-15T12:27:06Z</time>
      </trkpt>
      <trkpt lat="47.38139" lon="-1.50774">
        <ele>6</ele>
        <time>2023-11-15T12:27:38Z</time>
      </trkpt>
      <trkpt lat="47.38161" lon="-1.50775">
        <ele>6</ele>
        <time>2023-11-15T12:28:08Z</time>
      </trkpt>
      <trkpt lat="47.38175" lon="-1.50782">
        <ele>6</ele>
        <time>2023-11-15T12:28:27Z</time>
      </trkpt>
      <trkpt lat="47.38214" lon="-1.50824">
        <ele>6</ele>
        <time>2023-11-15T12:29:32Z</time>
      </trkpt>
      <trkpt lat="47.3824" lon="-1.5086">
        <ele>6</ele>
        <time>2023-11-15T12:30:19Z</time>
      </trkpt>
      <trkpt lat="47.38249" lon="-1.50889">
        <ele>6</ele>
        <time>2023-11-15T12:30:48Z</time>
      </trkpt>
      <trkpt lat="47.38259" lon="-1.50938">
        <ele>7</ele>
        <time>2023-11-15T12:31:34Z</time>
      </trkpt>
      <trkpt lat="47.38275" lon="-1.5099">
        <ele>7</ele>
        <time>2023-11-15T12:32:26Z</time>
      </trkpt>
      <trkpt lat="47.38284" lon="-1.51004">
        <ele>7</ele>
        <time>2023-11-15T12:32:43Z</time>
      </trkpt>
      <trkpt lat="47.38301" lon="-1.5102">
        <ele>8</ele>
        <time>2023-11-15T12:33:10Z</time>
      </trkpt>
      <trkpt lat="47.38313" lon="-1.51045">
        <ele>8</ele>
        <time>2023-11-15T12:33:38Z</time>
      </trkpt>
      <trkpt lat="47.38318" lon="-1.51047">
        <ele>8</ele>
        <time>2023-11-15T12:33:45Z</time>
      </trkpt>
      <trkpt lat="47.38339" lon="-1.51045">
        <ele>8</ele>
        <time>2023-11-15T12:34:13Z</time>
      </trkpt>
      <trkpt lat="47.38348" lon="-1.51052">
        <ele>8</ele>
        <time>2023-11-15T12:34:27Z</time>
      </trkpt>
      <trkpt lat="47.3837" lon="-1.51094">
        <ele>7</ele>
        <time>2023-11-15T12:35:14Z</time>
      </trkpt>
      <trkpt lat="47.38458" lon="-1.51288">
        <ele>6</ele>
        <time>2023-11-15T12:38:45Z</time>
      </trkpt>
      <trkpt lat="47.38472" lon="-1.513">
        <ele>6</ele>
        <time>2023-11-15T12:39:07Z</time>
      </trkpt>
      <trkpt lat="47.38496" lon="-1.51329">
        <ele>7</ele>
        <time>2023-11-15T12:39:48Z</time>
      </trkpt>
      <trkpt lat="47.38513" lon="-1.5136">
        <ele>7</ele>
        <time>2023-11-15T12:40:24Z</time>
      </trkpt>
      <trkpt lat="47.38653" lon="-1.51726">
        <ele>8</ele>
        <time>2023-11-15T12:46:44Z</time>
      </trkpt>
      <trkpt lat="47.3874" lon="-1.51966">
        <ele>7</ele>
        <time>2023-11-15T12:50:50Z</time>
      </trkpt>
      <trkpt lat="47.38758" lon="-1.52033">
        <ele>7</ele>
        <time>2023-11-15T12:51:55Z</time>
      </trkpt>
      <trkpt lat="47.38806" lon="-1.52288">
        <ele>9</ele>
        <time>2023-11-15T12:55:55Z</time>
      </trkpt>
      <trkpt lat="47.38842" lon="-1.5253">
        <ele>11</ele>
        <time>2023-11-15T12:59:38Z</time>
      </trkpt>
      <trkpt lat="47.38852" lon="-1.52615">
        <ele>11</ele>
        <time>2023-11-15T13:00:56Z</time>
      </trkpt>
      <trkpt lat="47.38879" lon="-1.52698">
        <ele>12</ele>
        <time>2023-11-15T13:02:20Z</time>
      </trkpt>
      <trkpt lat="47.38882" lon="-1.52758">
        <ele>13</ele>
        <time>2023-11-15T13:03:14Z</time>
      </trkpt>
      <trkpt lat="47.38878" lon="-1.52788">
        <ele>14</ele>
        <time>2023-11-15T13:03:41Z</time>
      </trkpt>
      <trkpt lat="47.38849" lon="-1.52914">
        <ele>14</ele>
        <time>2023-11-15T13:05:42Z</time>
      </trkpt>
      <trkpt lat="47.38844" lon="-1.52979">
        <ele>14</ele>
        <time>2023-11-15T13:06:41Z</time>
      </trkpt>
      <trkpt lat="47.38847" lon="-1.52983">
        <ele>14</ele>
        <time>2023-11-15T13:06:46Z</time>
      </trkpt>
      <trkpt lat="47.38865" lon="-1.52975">
        <ele>13</ele>
        <time>2023-11-15T13:07:11Z</time>
      </trkpt>
      <trkpt lat="47.38881" lon="-1.52974">
        <ele>13</ele>
        <time>2023-11-15T13:07:33Z</time>
      </trkpt>
      <trkpt lat="47.38895" lon="-1.52976">
        <ele>13</ele>
        <time>2023-11-15T13:07:51Z</time>
      </trkpt>
      <trkpt lat="47.38952" lon="-1.52994">
        <ele>12</ele>
        <time>2023-11-15T13:09:09Z</time>
      </trkpt>
      <trkpt lat="47.38959" lon="-1.52999">
        <ele>12</ele>
        <time>2023-11-15T13:09:20Z</time>
      </trkpt>
      <trkpt lat="47.38964" lon="-1.53007">
        <ele>12</ele>
        <time>2023-11-15T13:09:29Z</time>
      </trkpt>
      <trkpt lat="47.38973" lon="-1.53038">
        <ele>12</ele>
        <time>2023-11-15T13:10:00Z</time>
      </trkpt>
      <trkpt lat="47.38976" lon="-1.53081">
        <ele>13</ele>
        <time>2023-11-15T13:10:39Z</time>
      </trkpt>
      <trkpt lat="47.38967" lon="-1.53225">
        <ele>16</ele>
        <time>2023-11-15T13:12:50Z</time>
      </trkpt>
      <trkpt lat="47.38974" lon="-1.53227">
        <ele>16</ele>
        <time>2023-11-15T13:12:59Z</time>
      </trkpt>
      <trkpt lat="47.38983" lon="-1.53212">
        <ele>16</ele>
        <time>2023-11-15T13:13:17Z</time>
      </trkpt>
      <trkpt lat="47.39033" lon="-1.53103">
        <ele>14</ele>
        <time>2023-11-15T13:15:16Z</time>
      </trkpt>
      <trkpt lat="47.39069" lon="-1.53042">
        <ele>14</ele>
        <time>2023-11-15T13:16:29Z</time>
      </trkpt>
      <trkpt lat="47.39089" lon="-1.53014">
        <ele>13</ele>
        <time>2023-11-15T13:17:06Z</time>
      </trkpt>
      <trkpt lat="47.39111" lon="-1.52993">
        <ele>13</ele>
        <time>2023-11-15T13:17:41Z</time>
      </trkpt>
      <trkpt lat="47.39162" lon="-1.52963">
        <ele>12</ele>
        <time>2023-11-15T13:18:54Z</time>
      </trkpt>
      <trkpt lat="47.39215" lon="-1.52922">
        <ele>11</ele>
        <time>2023-11-15T13:20:14Z</time>
      </trkpt>
      <trkpt lat="47.39242" lon="-1.52904">
        <ele>10</ele>
        <time>2023-11-15T13:20:54Z</time>
      </trkpt>
      <trkpt lat="47.3927" lon="-1.52892">
        <ele>10</ele>
        <time>2023-11-15T13:21:33Z</time>
      </trkpt>
      <trkpt lat="47.39333" lon="-1.52873">
        <ele>9</ele>
        <time>2023-11-15T13:22:58Z</time>
      </trkpt>
      <trkpt lat="47.39355" lon="-1.52863">
        <ele>9</ele>
        <time>2023-11-15T13:23:29Z</time>
      </trkpt>
      <trkpt lat="47.39458" lon="-1.52803">
        <ele>9</ele>
        <time>2023-11-15T13:25:57Z</time>
      </trkpt>
      <trkpt lat="47.3949" lon="-1.52791">
        <ele>10</ele>
        <time>2023-11-15T13:26:41Z</time>
      </trkpt>
      <trkpt lat="47.3952" lon="-1.52786">
        <ele>10</ele>
        <time>2023-11-15T13:27:21Z</time>
      </trkpt>
      <trkpt lat="47.39523" lon="-1.52781">
        <ele>10</ele>
        <time>2023-11-15T13:27:27Z</time>
      </trkpt>
      <trkpt lat="47.39531" lon="-1.52776">
        <ele>10</ele>
        <time>2023-11-15T13:27:39Z</time>
      </trkpt>
      <trkpt lat="47.39834" lon="-1.53371">
        <ele>12</ele>
        <time>2023-11-15T13:38:51Z</time>
      </trkpt>
      <trkpt lat="47.39857" lon="-1.53422">
        <ele>13</ele>
        <time>2023-11-15T13:39:47Z</time>
      </trkpt>
      <trkpt lat="47.39914" lon="-1.53533">
        <ele>14</ele>
        <time>2023-11-15T13:41:53Z</time>
      </trkpt>
      <trkpt lat="47.3998" lon="-1.53672">
        <ele>17</ele>
        <time>2023-11-15T13:44:26Z</time>
      </trkpt>
      <trkpt lat="47.40004" lon="-1.53543">
        <ele>15</ele>
        <time>2023-11-15T13:46:27Z</time>
      </trkpt>
      <trkpt lat="47.40005" lon="-1.53496">
        <ele>14</ele>
        <time>2023-11-15T13:47:09Z</time>
      </trkpt>
      <trkpt lat="47.40008" lon="-1.53483">
        <ele>13</ele>
        <time>2023-11-15T13:47:22Z</time>
      </trkpt>
      <trkpt lat="47.40026" lon="-1.53437">
        <ele>12</ele>
        <time>2023-11-15T13:48:10Z</time>
      </trkpt>
      <trkpt lat="47.40047" lon="-1.53395">
        <ele>11</ele>
        <time>2023-11-15T13:48:57Z</time>
      </trkpt>
      <trkpt lat="47.40092" lon="-1.53325">
        <ele>10</ele>
        <time>2023-11-15T13:50:24Z</time>
      </trkpt>
      <trkpt lat="47.40097" lon="-1.53332">
        <ele>10</ele>
        <time>2023-11-15T13:50:33Z</time>
      </trkpt>
      <trkpt lat="47.40116" lon="-1.53449">
        <ele>11</ele>
        <time>2023-11-15T13:52:22Z</time>
      </trkpt>
      <trkpt lat="47.40125" lon="-1.53478">
        <ele>11</ele>
        <time>2023-11-15T13:52:51Z</time>
      </trkpt>
      <trkpt lat="47.40142" lon="-1.53505">
        <ele>11</ele>
        <time>2023-11-15T13:53:24Z</time>
      </trkpt>
      <trkpt lat="47.40178" lon="-1.53536">
        <ele>10</ele>
        <time>2023-11-15T13:54:20Z</time>
      </trkpt>
      <trkpt lat="47.40184" lon="-1.53548">
        <ele>10</ele>
        <time>2023-11-15T13:54:33Z</time>
      </trkpt>
      <trkpt lat="47.4019" lon="-1.53569">
        <ele>10</ele>
        <time>2023-11-15T13:54:54Z</time>
      </trkpt>
      <trkpt lat="47.40201" lon="-1.53637">
        <ele>10</ele>
        <time>2023-11-15T13:55:57Z</time>
      </trkpt>
      <trkpt lat="47.4022" lon="-1.53841">
        <ele>12</ele>
        <time>2023-11-15T13:59:03Z</time>
      </trkpt>
      <trkpt lat="47.39967" lon="-1.5373">
        <ele>18</ele>
        <time>2023-11-15T14:04:55Z</time>
      </trkpt>
      <trkpt lat="47.3972" lon="-1.53717">
        <ele>21</ele>
        <time>2023-11-15T14:10:25Z</time>
      </trkpt>
      <trkpt lat="47.39467" lon="-1.53528">
        <ele>11</ele>
        <time>2023-11-15T14:16:43Z</time>
      </trkpt>
      <trkpt lat="47.39311" lon="-1.53507">
        <ele>17</ele>
        <time>2023-11-15T14:20:12Z</time>
      </trkpt>
      <trkpt lat="47.3884" lon="-1.53635">
        <ele>23</ele>
        <time>2023-11-15T14:30:51Z</time>
      </trkpt>
      <trkpt lat="47.38625" lon="-1.53648">
        <ele>26</ele>
        <time>2023-11-15T14:35:38Z</time>
      </trkpt>
      <trkpt lat="47.38372" lon="-1.53704">
        <ele>26</ele>
        <time>2023-11-15T14:41:20Z</time>
      </trkpt>
      <trkpt lat="47.37945" lon="-1.53919">
        <ele>29</ele>
        <time>2023-11-15T14:51:22Z</time>
      </trkpt>
      <trkpt lat="47.37779" lon="-1.53901">
        <ele>29</ele>
        <time>2023-11-15T14:55:04Z</time>
      </trkpt>
      <trkpt lat="47.37599" lon="-1.54073">
        <ele>31</ele>
        <time>2023-11-15T14:59:50Z</time>
      </trkpt>
      <trkpt lat="47.37288" lon="-1.54082">
        <ele>22</ele>
        <time>2023-11-15T15:06:45Z</time>
      </trkpt>
      <trkpt lat="47.37096" lon="-1.54064">
        <ele>19</ele>
        <time>2023-11-15T15:11:02Z</time>
      </trkpt>
      <trkpt lat="47.36948" lon="-1.54176">
        <ele>19</ele>
        <time>2023-11-15T15:14:44Z</time>
      </trkpt>
      <trkpt lat="47.36686" lon="-1.54348">
        <ele>19</ele>
        <time>2023-11-15T15:21:07Z</time>
      </trkpt>
      <trkpt lat="47.36474" lon="-1.543">
        <ele>20</ele>
        <time>2023-11-15T15:25:53Z</time>
      </trkpt>
      <trkpt lat="47.36442" lon="-1.53897">
        <ele>24</ele>
        <time>2023-11-15T15:31:59Z</time>
      </trkpt>
      <trkpt lat="47.36285" lon="-1.53734">
        <ele>27</ele>
        <time>2023-11-15T15:36:16Z</time>
      </trkpt>
      <trkpt lat="47.36189" lon="-1.53781">
        <ele>27</ele>
        <time>2023-11-15T15:38:31Z</time>
      </trkpt>
      <trkpt lat="47.36012" lon="-1.53811">
        <ele>28</ele>
        <time>2023-11-15T15:42:28Z</time>
      </trkpt>
      <trkpt lat="47.35468" lon="-1.53532">
        <ele>33</ele>
        <time>2023-11-15T15:55:17Z</time>
      </trkpt>
      <trkpt lat="47.34843" lon="-1.53335">
        <ele>37</ele>
        <time>2023-11-15T16:09:30Z</time>
      </trkpt>
      <trkpt lat="47.34774" lon="-1.53082">
        <ele>29</ele>
        <time>2023-11-15T16:13:36Z</time>
      </trkpt>
      <trkpt lat="47.3441" lon="-1.52863">
        <ele>20</ele>
        <time>2023-11-15T16:22:21Z</time>
      </trkpt>
      <trkpt lat="47.34119" lon="-1.52614">
        <ele>19</ele>
        <time>2023-11-15T16:29:50Z</time>
      </trkpt>
      <trkpt lat="47.34058" lon="-1.52717">
        <ele>13</ele>
        <time>2023-11-15T16:31:53Z</time>
      </trkpt>
      <trkpt lat="47.33869" lon="-1.53142">
        <ele>8</ele>
        <time>2023-11-15T16:39:33Z</time>
      </trkpt>
      <trkpt lat="47.33799" lon="-1.5309">
        <ele>6</ele>
        <time>2023-11-15T16:41:18Z</time>
      </trkpt>
      <trkpt lat="47.33517" lon="-1.53275">
        <ele>16</ele>
        <time>2023-11-15T16:48:10Z</time>
      </trkpt>
      <trkpt lat="47.33491" lon="-1.53519">
        <ele>18</ele>
        <time>2023-11-15T16:51:53Z</time>
      </trkpt>
      <trkpt lat="47.33253" lon="-1.53579">
        <ele>22</ele>
        <time>2023-11-15T16:57:15Z</time>
      </trkpt>
      <trkpt lat="47.33232" lon="-1.53481">
        <ele>23</ele>
        <time>2023-11-15T16:58:48Z</time>
      </trkpt>
      <trkpt lat="47.32929" lon="-1.53498">
        <ele>13</ele>
        <time>2023-11-15T17:05:33Z</time>
      </trkpt>
      <trkpt lat="47.32812" lon="-1.53609">
        <ele>17</ele>
        <time>2023-11-15T17:08:38Z</time>
      </trkpt>
      <trkpt lat="47.32856" lon="-1.53699">
        <ele>17</ele>
        <time>2023-11-15T17:10:19Z</time>
      </trkpt>
      <trkpt lat="47.32592" lon="-1.53706">
        <ele>28</ele>
        <time>2023-11-15T17:16:11Z</time>
      </trkpt>
      <trkpt lat="47.3222" lon="-1.53508">
        <ele>16</ele>
        <time>2023-11-15T17:24:59Z</time>
      </trkpt>
      <trkpt lat="47.31755" lon="-1.54222">
        <ele>10</ele>
        <time>2023-11-15T17:39:54Z</time>
      </trkpt>
      <trkpt lat="47.31498" lon="-1.54302">
        <ele>6</ele>
        <time>2023-11-15T17:45:45Z</time>
      </trkpt>
      <trkpt lat="47.30784" lon="-1.54258">
        <ele>21</ele>
        <time>2023-11-15T18:01:39Z</time>
      </trkpt>
      <trkpt lat="47.30331" lon="-1.5468">
        <ele>18</ele>
        <time>2023-11-15T18:13:34Z</time>
      </trkpt>
      <trkpt lat="47.28551" lon="-1.54984">
        <ele>26</ele>
        <time>2023-11-15T18:53:25Z</time>
      </trkpt>
      <trkpt lat="47.26825" lon="-1.54608">
        <ele>29</ele>
        <time>2023-11-15T19:32:13Z</time>
      </trkpt>
    </trkseg>
  </trk>
  <trk>
    <name><![CDATA[TreillièresGranchamp_BoucleVelo28km-10794639]]></name>
    <extensions>
      <line xmlns="http://www.topografix.com/GPX/gpx_style/0/2">
        <color>FF0000</color>
        <width>4</width>
      </line>
    </extensions>
    <trkseg>
      <trkpt lat="47.26944" lon="-1.54452">
        <ele>27</ele>
        <time>2023-11-15T07:10:14Z</time>
      </trkpt>
      <trkpt lat="47.2688" lon="-1.54589">
        <ele>31</ele>
        <time>2023-11-15T07:10:34Z</time>
      </trkpt>
      <trkpt lat="47.26493" lon="-1.54675">
        <ele>20</ele>
        <time>2023-11-15T07:11:44Z</time>
      </trkpt>
      <trkpt lat="47.26199" lon="-1.55022">
        <ele>12</ele>
        <time>2023-11-15T07:12:51Z</time>
      </trkpt>
      <trkpt lat="47.26003" lon="-1.55585">
        <ele>8</ele>
        <time>2023-11-15T07:14:07Z</time>
      </trkpt>
      <trkpt lat="47.26081" lon="-1.56278">
        <ele>25</ele>
        <time>2023-11-15T07:15:32Z</time>
      </trkpt>
      <trkpt lat="47.26361" lon="-1.56956">
        <ele>28</ele>
        <time>2023-11-15T07:17:08Z</time>
      </trkpt>
      <trkpt lat="47.26439" lon="-1.57404">
        <ele>34</ele>
        <time>2023-11-15T07:18:04Z</time>
      </trkpt>
      <trkpt lat="47.26312" lon="-1.58003">
        <ele>43</ele>
        <time>2023-11-15T07:19:19Z</time>
      </trkpt>
      <trkpt lat="47.26826" lon="-1.58212">
        <ele>49</ele>
        <time>2023-11-15T07:20:54Z</time>
      </trkpt>
      <trkpt lat="47.26708" lon="-1.58595">
        <ele>51</ele>
        <time>2023-11-15T07:21:45Z</time>
      </trkpt>
      <trkpt lat="47.2781" lon="-1.59684">
        <ele>50</ele>
        <time>2023-11-15T07:25:41Z</time>
      </trkpt>
      <trkpt lat="47.28065" lon="-1.59143">
        <ele>53</ele>
        <time>2023-11-15T07:27:01Z</time>
      </trkpt>
      <trkpt lat="47.28315" lon="-1.59425">
        <ele>54</ele>
        <time>2023-11-15T07:27:57Z</time>
      </trkpt>
      <trkpt lat="47.28785" lon="-1.59605">
        <ele>53</ele>
        <time>2023-11-15T07:29:23Z</time>
      </trkpt>
      <trkpt lat="47.29558" lon="-1.59699">
        <ele>57</ele>
        <time>2023-11-15T07:31:41Z</time>
      </trkpt>
      <trkpt lat="47.3015" lon="-1.60356">
        <ele>62</ele>
        <time>2023-11-15T07:33:53Z</time>
      </trkpt>
      <trkpt lat="47.30517" lon="-1.60348">
        <ele>60</ele>
        <time>2023-11-15T07:34:58Z</time>
      </trkpt>
      <trkpt lat="47.31349" lon="-1.59944">
        <ele>22</ele>
        <time>2023-11-15T07:37:34Z</time>
      </trkpt>
      <trkpt lat="47.31496" lon="-1.60125">
        <ele>26</ele>
        <time>2023-11-15T07:38:08Z</time>
      </trkpt>
      <trkpt lat="47.31555" lon="-1.59829">
        <ele>31</ele>
        <time>2023-11-15T07:38:45Z</time>
      </trkpt>
      <trkpt lat="47.31658" lon="-1.60038">
        <ele>40</ele>
        <time>2023-11-15T07:39:17Z</time>
      </trkpt>
      <trkpt lat="47.31932" lon="-1.59966">
        <ele>45</ele>
        <time>2023-11-15T07:40:06Z</time>
      </trkpt>
      <trkpt lat="47.32308" lon="-1.59959">
        <ele>48</ele>
        <time>2023-11-15T07:41:13Z</time>
      </trkpt>
      <trkpt lat="47.32406" lon="-1.60081">
        <ele>50</ele>
        <time>2023-11-15T07:41:36Z</time>
      </trkpt>
      <trkpt lat="47.32529" lon="-1.60154">
        <ele>51</ele>
        <time>2023-11-15T07:41:59Z</time>
      </trkpt>
      <trkpt lat="47.327" lon="-1.60002">
        <ele>54</ele>
        <time>2023-11-15T07:42:35Z</time>
      </trkpt>
      <trkpt lat="47.32744" lon="-1.6019">
        <ele>55</ele>
        <time>2023-11-15T07:42:59Z</time>
      </trkpt>
      <trkpt lat="47.33365" lon="-1.6011">
        <ele>50</ele>
        <time>2023-11-15T07:44:50Z</time>
      </trkpt>
      <trkpt lat="47.33668" lon="-1.60442">
        <ele>40</ele>
        <time>2023-11-15T07:45:57Z</time>
      </trkpt>
      <trkpt lat="47.34588" lon="-1.60839">
        <ele>32</ele>
        <time>2023-11-15T07:48:48Z</time>
      </trkpt>
      <trkpt lat="47.34818" lon="-1.60644">
        <ele>39</ele>
        <time>2023-11-15T07:49:35Z</time>
      </trkpt>
      <trkpt lat="47.35194" lon="-1.60579">
        <ele>42</ele>
        <time>2023-11-15T07:50:42Z</time>
      </trkpt>
      <trkpt lat="47.3515" lon="-1.60197">
        <ele>41</ele>
        <time>2023-11-15T07:51:29Z</time>
      </trkpt>
      <trkpt lat="47.35419" lon="-1.60291">
        <ele>43</ele>
        <time>2023-11-15T07:52:18Z</time>
      </trkpt>
      <trkpt lat="47.35473" lon="-1.59822">
        <ele>42</ele>
        <time>2023-11-15T07:53:15Z</time>
      </trkpt>
      <trkpt lat="47.35659" lon="-1.58652">
        <ele>33</ele>
        <time>2023-11-15T07:55:40Z</time>
      </trkpt>
      <trkpt lat="47.35424" lon="-1.5853">
        <ele>18</ele>
        <time>2023-11-15T07:56:24Z</time>
      </trkpt>
      <trkpt lat="47.34681" lon="-1.58941">
        <ele>43</ele>
        <time>2023-11-15T07:58:46Z</time>
      </trkpt>
      <trkpt lat="47.33844" lon="-1.57808">
        <ele>39</ele>
        <time>2023-11-15T08:02:08Z</time>
      </trkpt>
      <trkpt lat="47.33712" lon="-1.57433">
        <ele>42</ele>
        <time>2023-11-15T08:02:59Z</time>
      </trkpt>
      <trkpt lat="47.33341" lon="-1.57043">
        <ele>33</ele>
        <time>2023-11-15T08:04:20Z</time>
      </trkpt>
      <trkpt lat="47.32352" lon="-1.55332">
        <ele>29</ele>
        <time>2023-11-15T08:08:51Z</time>
      </trkpt>
      <trkpt lat="47.31814" lon="-1.54755">
        <ele>24</ele>
        <time>2023-11-15T08:10:49Z</time>
      </trkpt>
      <trkpt lat="47.31599" lon="-1.54307">
        <ele>8</ele>
        <time>2023-11-15T08:11:56Z</time>
      </trkpt>
      <trkpt lat="47.30816" lon="-1.54293">
        <ele>19</ele>
        <time>2023-11-15T08:14:15Z</time>
      </trkpt>
      <trkpt lat="47.2995" lon="-1.54805">
        <ele>26</ele>
        <time>2023-11-15T08:17:01Z</time>
      </trkpt>
      <trkpt lat="47.29034" lon="-1.54928">
        <ele>26</ele>
        <time>2023-11-15T08:19:44Z</time>
      </trkpt>
      <trkpt lat="47.28545" lon="-1.54964">
        <ele>26</ele>
        <time>2023-11-15T08:21:12Z</time>
      </trkpt>
      <trkpt lat="47.27423" lon="-1.54726">
        <ele>34</ele>
        <time>2023-11-15T08:24:33Z</time>
      </trkpt>
      <trkpt lat="47.26899" lon="-1.54592">
        <ele>31</ele>
        <time>2023-11-15T08:26:08Z</time>
      </trkpt>
      <trkpt lat="47.26921" lon="-1.54449">
        <ele>27</ele>
        <time>2023-11-15T08:26:26Z</time>
      </trkpt>
    </trkseg>
  </trk>
  <trk>
    <name><![CDATA[Carquefou_DomicileVoieVerte_9.3km-12973163]]></name>
    <extensions>
      <line xmlns="http://www.topografix.com/GPX/gpx_style/0/2">
        <color>00FFFF</color>
        <width>4</width>
      </line>
    </extensions>
    <trkseg>
      <trkpt lat="47.29763" lon="-1.48598">
        <ele>25</ele>
        <time>2023-11-15T07:46:52Z</time>
      </trkpt>
      <trkpt lat="47.29737" lon="-1.48594">
        <ele>25</ele>
        <time>2023-11-15T07:47:27Z</time>
      </trkpt>
      <trkpt lat="47.29708" lon="-1.48587">
        <ele>26</ele>
        <time>2023-11-15T07:48:06Z</time>
      </trkpt>
      <trkpt lat="47.29683" lon="-1.48583">
        <ele>26</ele>
        <time>2023-11-15T07:48:40Z</time>
      </trkpt>
      <trkpt lat="47.29665" lon="-1.48603">
        <ele>26</ele>
        <time>2023-11-15T07:49:10Z</time>
      </trkpt>
      <trkpt lat="47.29657" lon="-1.4864">
        <ele>27</ele>
        <time>2023-11-15T07:49:45Z</time>
      </trkpt>
      <trkpt lat="47.29623" lon="-1.48656">
        <ele>28</ele>
        <time>2023-11-15T07:50:33Z</time>
      </trkpt>
      <trkpt lat="47.29603" lon="-1.48663">
        <ele>28</ele>
        <time>2023-11-15T07:51:00Z</time>
      </trkpt>
      <trkpt lat="47.2954" lon="-1.48689">
        <ele>30</ele>
        <time>2023-11-15T07:52:27Z</time>
      </trkpt>
      <trkpt lat="47.29514" lon="-1.48701">
        <ele>30</ele>
        <time>2023-11-15T07:53:04Z</time>
      </trkpt>
      <trkpt lat="47.29485" lon="-1.4873">
        <ele>30</ele>
        <time>2023-11-15T07:53:50Z</time>
      </trkpt>
      <trkpt lat="47.29434" lon="-1.48773">
        <ele>29</ele>
        <time>2023-11-15T07:55:09Z</time>
      </trkpt>
      <trkpt lat="47.29416" lon="-1.48788">
        <ele>29</ele>
        <time>2023-11-15T07:55:36Z</time>
      </trkpt>
      <trkpt lat="47.29407" lon="-1.48815">
        <ele>28</ele>
        <time>2023-11-15T07:56:04Z</time>
      </trkpt>
      <trkpt lat="47.2939" lon="-1.48839">
        <ele>27</ele>
        <time>2023-11-15T07:56:35Z</time>
      </trkpt>
      <trkpt lat="47.29375" lon="-1.48867">
        <ele>27</ele>
        <time>2023-11-15T07:57:07Z</time>
      </trkpt>
      <trkpt lat="47.29364" lon="-1.48898">
        <ele>27</ele>
        <time>2023-11-15T07:57:39Z</time>
      </trkpt>
      <trkpt lat="47.29349" lon="-1.48942">
        <ele>26</ele>
        <time>2023-11-15T07:58:24Z</time>
      </trkpt>
      <trkpt lat="47.29339" lon="-1.48982">
        <ele>25</ele>
        <time>2023-11-15T07:59:02Z</time>
      </trkpt>
      <trkpt lat="47.29334" lon="-1.49023">
        <ele>25</ele>
        <time>2023-11-15T07:59:40Z</time>
      </trkpt>
      <trkpt lat="47.29332" lon="-1.49062">
        <ele>24</ele>
        <time>2023-11-15T08:00:15Z</time>
      </trkpt>
      <trkpt lat="47.2933" lon="-1.49139">
        <ele>23</ele>
        <time>2023-11-15T08:01:25Z</time>
      </trkpt>
      <trkpt lat="47.29329" lon="-1.49175">
        <ele>23</ele>
        <time>2023-11-15T08:01:58Z</time>
      </trkpt>
      <trkpt lat="47.29329" lon="-1.49209">
        <ele>22</ele>
        <time>2023-11-15T08:02:28Z</time>
      </trkpt>
      <trkpt lat="47.29331" lon="-1.49242">
        <ele>21</ele>
        <time>2023-11-15T08:02:58Z</time>
      </trkpt>
      <trkpt lat="47.29331" lon="-1.49279">
        <ele>21</ele>
        <time>2023-11-15T08:03:32Z</time>
      </trkpt>
      <trkpt lat="47.29331" lon="-1.49312">
        <ele>21</ele>
        <time>2023-11-15T08:04:02Z</time>
      </trkpt>
      <trkpt lat="47.29329" lon="-1.49346">
        <ele>21</ele>
        <time>2023-11-15T08:04:33Z</time>
      </trkpt>
      <trkpt lat="47.29328" lon="-1.4938">
        <ele>21</ele>
        <time>2023-11-15T08:05:03Z</time>
      </trkpt>
      <trkpt lat="47.29322" lon="-1.4941">
        <ele>22</ele>
        <time>2023-11-15T08:05:32Z</time>
      </trkpt>
      <trkpt lat="47.29315" lon="-1.49442">
        <ele>21</ele>
        <time>2023-11-15T08:06:02Z</time>
      </trkpt>
      <trkpt lat="47.29312" lon="-1.49474">
        <ele>21</ele>
        <time>2023-11-15T08:06:31Z</time>
      </trkpt>
      <trkpt lat="47.29306" lon="-1.49509">
        <ele>20</ele>
        <time>2023-11-15T08:07:04Z</time>
      </trkpt>
      <trkpt lat="47.293" lon="-1.49543">
        <ele>19</ele>
        <time>2023-11-15T08:07:36Z</time>
      </trkpt>
      <trkpt lat="47.29292" lon="-1.49574">
        <ele>18</ele>
        <time>2023-11-15T08:08:06Z</time>
      </trkpt>
      <trkpt lat="47.29291" lon="-1.49605">
        <ele>17</ele>
        <time>2023-11-15T08:08:34Z</time>
      </trkpt>
      <trkpt lat="47.29284" lon="-1.49639">
        <ele>17</ele>
        <time>2023-11-15T08:09:06Z</time>
      </trkpt>
      <trkpt lat="47.29274" lon="-1.49663">
        <ele>16</ele>
        <time>2023-11-15T08:09:32Z</time>
      </trkpt>
      <trkpt lat="47.29265" lon="-1.49692">
        <ele>16</ele>
        <time>2023-11-15T08:10:00Z</time>
      </trkpt>
      <trkpt lat="47.29269" lon="-1.49728">
        <ele>15</ele>
        <time>2023-11-15T08:10:33Z</time>
      </trkpt>
      <trkpt lat="47.29255" lon="-1.4975">
        <ele>15</ele>
        <time>2023-11-15T08:11:01Z</time>
      </trkpt>
      <trkpt lat="47.29234" lon="-1.49753">
        <ele>15</ele>
        <time>2023-11-15T08:11:29Z</time>
      </trkpt>
      <trkpt lat="47.29217" lon="-1.4977">
        <ele>14</ele>
        <time>2023-11-15T08:11:56Z</time>
      </trkpt>
      <trkpt lat="47.29202" lon="-1.49787">
        <ele>13</ele>
        <time>2023-11-15T08:12:22Z</time>
      </trkpt>
      <trkpt lat="47.29169" lon="-1.49795">
        <ele>13</ele>
        <time>2023-11-15T08:13:06Z</time>
      </trkpt>
      <trkpt lat="47.29159" lon="-1.49818">
        <ele>12</ele>
        <time>2023-11-15T08:13:31Z</time>
      </trkpt>
      <trkpt lat="47.29144" lon="-1.49835">
        <ele>12</ele>
        <time>2023-11-15T08:13:56Z</time>
      </trkpt>
      <trkpt lat="47.29127" lon="-1.4985">
        <ele>12</ele>
        <time>2023-11-15T08:14:23Z</time>
      </trkpt>
      <trkpt lat="47.2911" lon="-1.49863">
        <ele>12</ele>
        <time>2023-11-15T08:14:48Z</time>
      </trkpt>
      <trkpt lat="47.2908" lon="-1.49879">
        <ele>12</ele>
        <time>2023-11-15T08:15:31Z</time>
      </trkpt>
      <trkpt lat="47.29028" lon="-1.49901">
        <ele>11</ele>
        <time>2023-11-15T08:16:43Z</time>
      </trkpt>
      <trkpt lat="47.29007" lon="-1.49908">
        <ele>11</ele>
        <time>2023-11-15T08:17:12Z</time>
      </trkpt>
      <trkpt lat="47.28983" lon="-1.49915">
        <ele>12</ele>
        <time>2023-11-15T08:17:44Z</time>
      </trkpt>
      <trkpt lat="47.28956" lon="-1.49919">
        <ele>13</ele>
        <time>2023-11-15T08:18:21Z</time>
      </trkpt>
      <trkpt lat="47.28931" lon="-1.49918">
        <ele>13</ele>
        <time>2023-11-15T08:18:54Z</time>
      </trkpt>
      <trkpt lat="47.28903" lon="-1.49916">
        <ele>14</ele>
        <time>2023-11-15T08:19:31Z</time>
      </trkpt>
      <trkpt lat="47.28879" lon="-1.49908">
        <ele>15</ele>
        <time>2023-11-15T08:20:04Z</time>
      </trkpt>
      <trkpt lat="47.2886" lon="-1.49898">
        <ele>15</ele>
        <time>2023-11-15T08:20:31Z</time>
      </trkpt>
      <trkpt lat="47.28842" lon="-1.49887">
        <ele>15</ele>
        <time>2023-11-15T08:20:57Z</time>
      </trkpt>
      <trkpt lat="47.28808" lon="-1.49893">
        <ele>15</ele>
        <time>2023-11-15T08:21:43Z</time>
      </trkpt>
      <trkpt lat="47.28775" lon="-1.49897">
        <ele>15</ele>
        <time>2023-11-15T08:22:27Z</time>
      </trkpt>
      <trkpt lat="47.28742" lon="-1.49907">
        <ele>16</ele>
        <time>2023-11-15T08:23:12Z</time>
      </trkpt>
      <trkpt lat="47.28713" lon="-1.49927">
        <ele>16</ele>
        <time>2023-11-15T08:23:55Z</time>
      </trkpt>
      <trkpt lat="47.28687" lon="-1.49945">
        <ele>16</ele>
        <time>2023-11-15T08:24:33Z</time>
      </trkpt>
      <trkpt lat="47.28657" lon="-1.49984">
        <ele>17</ele>
        <time>2023-11-15T08:25:26Z</time>
      </trkpt>
      <trkpt lat="47.28627" lon="-1.50027">
        <ele>17</ele>
        <time>2023-11-15T08:26:22Z</time>
      </trkpt>
      <trkpt lat="47.2861" lon="-1.50047">
        <ele>17</ele>
        <time>2023-11-15T08:26:51Z</time>
      </trkpt>
      <trkpt lat="47.2858" lon="-1.50091">
        <ele>17</ele>
        <time>2023-11-15T08:27:48Z</time>
      </trkpt>
      <trkpt lat="47.28565" lon="-1.50113">
        <ele>16</ele>
        <time>2023-11-15T08:28:16Z</time>
      </trkpt>
      <trkpt lat="47.28541" lon="-1.50161">
        <ele>16</ele>
        <time>2023-11-15T08:29:10Z</time>
      </trkpt>
      <trkpt lat="47.2853" lon="-1.50183">
        <ele>16</ele>
        <time>2023-11-15T08:29:35Z</time>
      </trkpt>
      <trkpt lat="47.28514" lon="-1.50227">
        <ele>17</ele>
        <time>2023-11-15T08:30:20Z</time>
      </trkpt>
      <trkpt lat="47.28503" lon="-1.50251">
        <ele>17</ele>
        <time>2023-11-15T08:30:46Z</time>
      </trkpt>
      <trkpt lat="47.28488" lon="-1.50293">
        <ele>18</ele>
        <time>2023-11-15T08:31:29Z</time>
      </trkpt>
      <trkpt lat="47.28472" lon="-1.5033">
        <ele>18</ele>
        <time>2023-11-15T08:32:09Z</time>
      </trkpt>
      <trkpt lat="47.28448" lon="-1.50372">
        <ele>18</ele>
        <time>2023-11-15T08:32:58Z</time>
      </trkpt>
      <trkpt lat="47.28406" lon="-1.50459">
        <ele>17</ele>
        <time>2023-11-15T08:34:35Z</time>
      </trkpt>
      <trkpt lat="47.28394" lon="-1.50479">
        <ele>17</ele>
        <time>2023-11-15T08:34:59Z</time>
      </trkpt>
      <trkpt lat="47.28381" lon="-1.50499">
        <ele>18</ele>
        <time>2023-11-15T08:35:24Z</time>
      </trkpt>
      <trkpt lat="47.28368" lon="-1.5052">
        <ele>18</ele>
        <time>2023-11-15T08:35:50Z</time>
      </trkpt>
      <trkpt lat="47.28343" lon="-1.50543">
        <ele>18</ele>
        <time>2023-11-15T08:36:29Z</time>
      </trkpt>
      <trkpt lat="47.28311" lon="-1.5056">
        <ele>19</ele>
        <time>2023-11-15T08:37:15Z</time>
      </trkpt>
      <trkpt lat="47.28299" lon="-1.50584">
        <ele>19</ele>
        <time>2023-11-15T08:37:42Z</time>
      </trkpt>
      <trkpt lat="47.28292" lon="-1.50617">
        <ele>20</ele>
        <time>2023-11-15T08:38:13Z</time>
      </trkpt>
      <trkpt lat="47.28266" lon="-1.50638">
        <ele>20</ele>
        <time>2023-11-15T08:38:53Z</time>
      </trkpt>
      <trkpt lat="47.28239" lon="-1.50658">
        <ele>20</ele>
        <time>2023-11-15T08:39:33Z</time>
      </trkpt>
      <trkpt lat="47.28222" lon="-1.5067">
        <ele>20</ele>
        <time>2023-11-15T08:39:58Z</time>
      </trkpt>
      <trkpt lat="47.2819" lon="-1.50692">
        <ele>19</ele>
        <time>2023-11-15T08:40:45Z</time>
      </trkpt>
      <trkpt lat="47.28174" lon="-1.50704">
        <ele>19</ele>
        <time>2023-11-15T08:41:09Z</time>
      </trkpt>
      <trkpt lat="47.28129" lon="-1.50737">
        <ele>20</ele>
        <time>2023-11-15T08:42:16Z</time>
      </trkpt>
      <trkpt lat="47.281" lon="-1.50759">
        <ele>21</ele>
        <time>2023-11-15T08:43:00Z</time>
      </trkpt>
      <trkpt lat="47.2807" lon="-1.50779">
        <ele>22</ele>
        <time>2023-11-15T08:43:44Z</time>
      </trkpt>
      <trkpt lat="47.28043" lon="-1.50797">
        <ele>23</ele>
        <time>2023-11-15T08:44:23Z</time>
      </trkpt>
      <trkpt lat="47.28028" lon="-1.5081">
        <ele>24</ele>
        <time>2023-11-15T08:44:47Z</time>
      </trkpt>
      <trkpt lat="47.28" lon="-1.50827">
        <ele>25</ele>
        <time>2023-11-15T08:45:27Z</time>
      </trkpt>
      <trkpt lat="47.27953" lon="-1.50862">
        <ele>25</ele>
        <time>2023-11-15T08:46:37Z</time>
      </trkpt>
      <trkpt lat="47.27923" lon="-1.5088">
        <ele>25</ele>
        <time>2023-11-15T08:47:20Z</time>
      </trkpt>
      <trkpt lat="47.27892" lon="-1.50893">
        <ele>25</ele>
        <time>2023-11-15T08:48:03Z</time>
      </trkpt>
      <trkpt lat="47.27858" lon="-1.50901">
        <ele>25</ele>
        <time>2023-11-15T08:48:49Z</time>
      </trkpt>
      <trkpt lat="47.27839" lon="-1.50906">
        <ele>25</ele>
        <time>2023-11-15T08:49:15Z</time>
      </trkpt>
      <trkpt lat="47.2782" lon="-1.50912">
        <ele>25</ele>
        <time>2023-11-15T08:49:41Z</time>
      </trkpt>
      <trkpt lat="47.278" lon="-1.50919">
        <ele>25</ele>
        <time>2023-11-15T08:50:08Z</time>
      </trkpt>
      <trkpt lat="47.2778" lon="-1.50924">
        <ele>25</ele>
        <time>2023-11-15T08:50:36Z</time>
      </trkpt>
      <trkpt lat="47.2776" lon="-1.50929">
        <ele>25</ele>
        <time>2023-11-15T08:51:03Z</time>
      </trkpt>
      <trkpt lat="47.27719" lon="-1.50941">
        <ele>26</ele>
        <time>2023-11-15T08:51:58Z</time>
      </trkpt>
      <trkpt lat="47.27698" lon="-1.50947">
        <ele>27</ele>
        <time>2023-11-15T08:52:27Z</time>
      </trkpt>
      <trkpt lat="47.27677" lon="-1.50951">
        <ele>27</ele>
        <time>2023-11-15T08:52:55Z</time>
      </trkpt>
      <trkpt lat="47.27657" lon="-1.50954">
        <ele>27</ele>
        <time>2023-11-15T08:53:22Z</time>
      </trkpt>
      <trkpt lat="47.27635" lon="-1.50955">
        <ele>27</ele>
        <time>2023-11-15T08:53:51Z</time>
      </trkpt>
      <trkpt lat="47.27595" lon="-1.50955">
        <ele>26</ele>
        <time>2023-11-15T08:54:45Z</time>
      </trkpt>
      <trkpt lat="47.2756" lon="-1.50954">
        <ele>26</ele>
        <time>2023-11-15T08:55:32Z</time>
      </trkpt>
      <trkpt lat="47.27541" lon="-1.50958">
        <ele>26</ele>
        <time>2023-11-15T08:55:57Z</time>
      </trkpt>
      <trkpt lat="47.27518" lon="-1.50964">
        <ele>25</ele>
        <time>2023-11-15T08:56:28Z</time>
      </trkpt>
      <trkpt lat="47.2751" lon="-1.51004">
        <ele>25</ele>
        <time>2023-11-15T08:57:06Z</time>
      </trkpt>
      <trkpt lat="47.27517" lon="-1.51028">
        <ele>25</ele>
        <time>2023-11-15T08:57:30Z</time>
      </trkpt>
      <trkpt lat="47.27531" lon="-1.51068">
        <ele>26</ele>
        <time>2023-11-15T08:58:10Z</time>
      </trkpt>
      <trkpt lat="47.27546" lon="-1.51105">
        <ele>25</ele>
        <time>2023-11-15T08:58:49Z</time>
      </trkpt>
      <trkpt lat="47.27562" lon="-1.51131">
        <ele>25</ele>
        <time>2023-11-15T08:59:21Z</time>
      </trkpt>
      <trkpt lat="47.27576" lon="-1.51176">
        <ele>24</ele>
        <time>2023-11-15T09:00:06Z</time>
      </trkpt>
      <trkpt lat="47.27593" lon="-1.51225">
        <ele>23</ele>
        <time>2023-11-15T09:00:56Z</time>
      </trkpt>
      <trkpt lat="47.27601" lon="-1.51249">
        <ele>23</ele>
        <time>2023-11-15T09:01:20Z</time>
      </trkpt>
      <trkpt lat="47.27608" lon="-1.51279">
        <ele>23</ele>
        <time>2023-11-15T09:01:49Z</time>
      </trkpt>
      <trkpt lat="47.27591" lon="-1.51311">
        <ele>23</ele>
        <time>2023-11-15T09:02:26Z</time>
      </trkpt>
      <trkpt lat="47.27544" lon="-1.51335">
        <ele>22</ele>
        <time>2023-11-15T09:03:32Z</time>
      </trkpt>
      <trkpt lat="47.27525" lon="-1.51346">
        <ele>21</ele>
        <time>2023-11-15T09:03:59Z</time>
      </trkpt>
      <trkpt lat="47.27489" lon="-1.51363">
        <ele>21</ele>
        <time>2023-11-15T09:04:50Z</time>
      </trkpt>
      <trkpt lat="47.27471" lon="-1.5137">
        <ele>20</ele>
        <time>2023-11-15T09:05:15Z</time>
      </trkpt>
      <trkpt lat="47.27461" lon="-1.51403">
        <ele>19</ele>
        <time>2023-11-15T09:05:47Z</time>
      </trkpt>
      <trkpt lat="47.27447" lon="-1.51421">
        <ele>18</ele>
        <time>2023-11-15T09:06:12Z</time>
      </trkpt>
      <trkpt lat="47.27429" lon="-1.51434">
        <ele>17</ele>
        <time>2023-11-15T09:06:39Z</time>
      </trkpt>
      <trkpt lat="47.27409" lon="-1.51442">
        <ele>18</ele>
        <time>2023-11-15T09:07:06Z</time>
      </trkpt>
      <trkpt lat="47.27388" lon="-1.51451">
        <ele>19</ele>
        <time>2023-11-15T09:07:36Z</time>
      </trkpt>
      <trkpt lat="47.27371" lon="-1.5146">
        <ele>20</ele>
        <time>2023-11-15T09:08:00Z</time>
      </trkpt>
      <trkpt lat="47.27341" lon="-1.51474">
        <ele>23</ele>
        <time>2023-11-15T09:08:42Z</time>
      </trkpt>
      <trkpt lat="47.27315" lon="-1.51493">
        <ele>24</ele>
        <time>2023-11-15T09:09:20Z</time>
      </trkpt>
      <trkpt lat="47.27288" lon="-1.51511">
        <ele>25</ele>
        <time>2023-11-15T09:10:00Z</time>
      </trkpt>
      <trkpt lat="47.27262" lon="-1.51531">
        <ele>25</ele>
        <time>2023-11-15T09:10:39Z</time>
      </trkpt>
      <trkpt lat="47.27238" lon="-1.51552">
        <ele>26</ele>
        <time>2023-11-15T09:11:16Z</time>
      </trkpt>
      <trkpt lat="47.27219" lon="-1.51581">
        <ele>26</ele>
        <time>2023-11-15T09:11:53Z</time>
      </trkpt>
      <trkpt lat="47.27207" lon="-1.51619">
        <ele>27</ele>
        <time>2023-11-15T09:12:31Z</time>
      </trkpt>
      <trkpt lat="47.27182" lon="-1.51642">
        <ele>27</ele>
        <time>2023-11-15T09:13:10Z</time>
      </trkpt>
      <trkpt lat="47.2716" lon="-1.51674">
        <ele>27</ele>
        <time>2023-11-15T09:13:51Z</time>
      </trkpt>
      <trkpt lat="47.2714" lon="-1.51713">
        <ele>29</ele>
        <time>2023-11-15T09:14:36Z</time>
      </trkpt>
      <trkpt lat="47.2712" lon="-1.51752">
        <ele>30</ele>
        <time>2023-11-15T09:15:20Z</time>
      </trkpt>
      <trkpt lat="47.27099" lon="-1.51787">
        <ele>29</ele>
        <time>2023-11-15T09:16:02Z</time>
      </trkpt>
      <trkpt lat="47.27058" lon="-1.51866">
        <ele>28</ele>
        <time>2023-11-15T09:17:32Z</time>
      </trkpt>
      <trkpt lat="47.27036" lon="-1.51898">
        <ele>27</ele>
        <time>2023-11-15T09:18:14Z</time>
      </trkpt>
      <trkpt lat="47.27011" lon="-1.51929">
        <ele>27</ele>
        <time>2023-11-15T09:18:57Z</time>
      </trkpt>
      <trkpt lat="47.26981" lon="-1.51958">
        <ele>26</ele>
        <time>2023-11-15T09:19:45Z</time>
      </trkpt>
      <trkpt lat="47.26963" lon="-1.5197">
        <ele>26</ele>
        <time>2023-11-15T09:20:11Z</time>
      </trkpt>
      <trkpt lat="47.26943" lon="-1.51981">
        <ele>26</ele>
        <time>2023-11-15T09:20:40Z</time>
      </trkpt>
      <trkpt lat="47.26923" lon="-1.51999">
        <ele>25</ele>
        <time>2023-11-15T09:21:11Z</time>
      </trkpt>
      <trkpt lat="47.26884" lon="-1.52036">
        <ele>24</ele>
        <time>2023-11-15T09:22:13Z</time>
      </trkpt>
      <trkpt lat="47.26865" lon="-1.52055">
        <ele>23</ele>
        <time>2023-11-15T09:22:44Z</time>
      </trkpt>
      <trkpt lat="47.2685" lon="-1.52079">
        <ele>23</ele>
        <time>2023-11-15T09:23:13Z</time>
      </trkpt>
      <trkpt lat="47.26838" lon="-1.52109">
        <ele>22</ele>
        <time>2023-11-15T09:23:45Z</time>
      </trkpt>
      <trkpt lat="47.26825" lon="-1.52136">
        <ele>22</ele>
        <time>2023-11-15T09:24:15Z</time>
      </trkpt>
      <trkpt lat="47.26811" lon="-1.52165">
        <ele>22</ele>
        <time>2023-11-15T09:24:47Z</time>
      </trkpt>
      <trkpt lat="47.26752" lon="-1.52299">
        <ele>21</ele>
        <time>2023-11-15T09:27:12Z</time>
      </trkpt>
      <trkpt lat="47.26737" lon="-1.52329">
        <ele>21</ele>
        <time>2023-11-15T09:27:45Z</time>
      </trkpt>
      <trkpt lat="47.2672" lon="-1.52358">
        <ele>21</ele>
        <time>2023-11-15T09:28:20Z</time>
      </trkpt>
      <trkpt lat="47.26703" lon="-1.52385">
        <ele>21</ele>
        <time>2023-11-15T09:28:53Z</time>
      </trkpt>
      <trkpt lat="47.26683" lon="-1.52411">
        <ele>21</ele>
        <time>2023-11-15T09:29:29Z</time>
      </trkpt>
      <trkpt lat="47.26666" lon="-1.52438">
        <ele>22</ele>
        <time>2023-11-15T09:30:02Z</time>
      </trkpt>
      <trkpt lat="47.26651" lon="-1.52465">
        <ele>22</ele>
        <time>2023-11-15T09:30:34Z</time>
      </trkpt>
      <trkpt lat="47.26619" lon="-1.52515">
        <ele>23</ele>
        <time>2023-11-15T09:31:36Z</time>
      </trkpt>
      <trkpt lat="47.26603" lon="-1.52539">
        <ele>23</ele>
        <time>2023-11-15T09:32:07Z</time>
      </trkpt>
      <trkpt lat="47.26588" lon="-1.5256">
        <ele>24</ele>
        <time>2023-11-15T09:32:34Z</time>
      </trkpt>
      <trkpt lat="47.26572" lon="-1.52578">
        <ele>24</ele>
        <time>2023-11-15T09:33:01Z</time>
      </trkpt>
      <trkpt lat="47.26556" lon="-1.52594">
        <ele>23</ele>
        <time>2023-11-15T09:33:27Z</time>
      </trkpt>
      <trkpt lat="47.26539" lon="-1.52609">
        <ele>23</ele>
        <time>2023-11-15T09:33:53Z</time>
      </trkpt>
      <trkpt lat="47.26521" lon="-1.52627">
        <ele>22</ele>
        <time>2023-11-15T09:34:22Z</time>
      </trkpt>
      <trkpt lat="47.26501" lon="-1.5264">
        <ele>21</ele>
        <time>2023-11-15T09:34:52Z</time>
      </trkpt>
      <trkpt lat="47.26482" lon="-1.52655">
        <ele>21</ele>
        <time>2023-11-15T09:35:20Z</time>
      </trkpt>
      <trkpt lat="47.26417" lon="-1.52699">
        <ele>22</ele>
        <time>2023-11-15T09:36:56Z</time>
      </trkpt>
      <trkpt lat="47.26395" lon="-1.52717">
        <ele>22</ele>
        <time>2023-11-15T09:37:29Z</time>
      </trkpt>
      <trkpt lat="47.26374" lon="-1.52745">
        <ele>21</ele>
        <time>2023-11-15T09:38:07Z</time>
      </trkpt>
      <trkpt lat="47.26351" lon="-1.52774">
        <ele>20</ele>
        <time>2023-11-15T09:38:48Z</time>
      </trkpt>
      <trkpt lat="47.2632" lon="-1.52797">
        <ele>18</ele>
        <time>2023-11-15T09:39:34Z</time>
      </trkpt>
      <trkpt lat="47.26288" lon="-1.52817">
        <ele>15</ele>
        <time>2023-11-15T09:40:20Z</time>
      </trkpt>
      <trkpt lat="47.26255" lon="-1.52835">
        <ele>12</ele>
        <time>2023-11-15T09:41:07Z</time>
      </trkpt>
      <trkpt lat="47.26221" lon="-1.52849">
        <ele>12</ele>
        <time>2023-11-15T09:41:54Z</time>
      </trkpt>
      <trkpt lat="47.26135" lon="-1.52855">
        <ele>14</ele>
        <time>2023-11-15T09:43:49Z</time>
      </trkpt>
      <trkpt lat="47.2611" lon="-1.52855">
        <ele>16</ele>
        <time>2023-11-15T09:44:23Z</time>
      </trkpt>
      <trkpt lat="47.25969" lon="-1.52802">
        <ele>18</ele>
        <time>2023-11-15T09:47:37Z</time>
      </trkpt>
      <trkpt lat="47.25941" lon="-1.52792">
        <ele>18</ele>
        <time>2023-11-15T09:48:15Z</time>
      </trkpt>
      <trkpt lat="47.25906" lon="-1.52793">
        <ele>19</ele>
        <time>2023-11-15T09:49:02Z</time>
      </trkpt>
      <trkpt lat="47.25886" lon="-1.52795">
        <ele>19</ele>
        <time>2023-11-15T09:49:29Z</time>
      </trkpt>
      <trkpt lat="47.25866" lon="-1.52802">
        <ele>19</ele>
        <time>2023-11-15T09:49:56Z</time>
      </trkpt>
      <trkpt lat="47.25848" lon="-1.52813">
        <ele>20</ele>
        <time>2023-11-15T09:50:22Z</time>
      </trkpt>
      <trkpt lat="47.2583" lon="-1.52826">
        <ele>20</ele>
        <time>2023-11-15T09:50:49Z</time>
      </trkpt>
      <trkpt lat="47.2581" lon="-1.52838">
        <ele>19</ele>
        <time>2023-11-15T09:51:18Z</time>
      </trkpt>
      <trkpt lat="47.25763" lon="-1.52877">
        <ele>20</ele>
        <time>2023-11-15T09:52:30Z</time>
      </trkpt>
      <trkpt lat="47.25742" lon="-1.52895">
        <ele>20</ele>
        <time>2023-11-15T09:53:02Z</time>
      </trkpt>
      <trkpt lat="47.25721" lon="-1.52909">
        <ele>20</ele>
        <time>2023-11-15T09:53:33Z</time>
      </trkpt>
      <trkpt lat="47.25701" lon="-1.52925">
        <ele>21</ele>
        <time>2023-11-15T09:54:03Z</time>
      </trkpt>
      <trkpt lat="47.25683" lon="-1.52939">
        <ele>21</ele>
        <time>2023-11-15T09:54:30Z</time>
      </trkpt>
      <trkpt lat="47.25665" lon="-1.52951">
        <ele>21</ele>
        <time>2023-11-15T09:54:57Z</time>
      </trkpt>
      <trkpt lat="47.25636" lon="-1.52972">
        <ele>22</ele>
        <time>2023-11-15T09:55:40Z</time>
      </trkpt>
      <trkpt lat="47.2561" lon="-1.52985">
        <ele>22</ele>
        <time>2023-11-15T09:56:17Z</time>
      </trkpt>
      <trkpt lat="47.2559" lon="-1.53003">
        <ele>22</ele>
        <time>2023-11-15T09:56:48Z</time>
      </trkpt>
      <trkpt lat="47.25566" lon="-1.53004">
        <ele>22</ele>
        <time>2023-11-15T09:57:20Z</time>
      </trkpt>
      <trkpt lat="47.25538" lon="-1.53012">
        <ele>22</ele>
        <time>2023-11-15T09:57:58Z</time>
      </trkpt>
      <trkpt lat="47.2551" lon="-1.53011">
        <ele>21</ele>
        <time>2023-11-15T09:58:35Z</time>
      </trkpt>
      <trkpt lat="47.25491" lon="-1.5302">
        <ele>21</ele>
        <time>2023-11-15T09:59:02Z</time>
      </trkpt>
      <trkpt lat="47.25466" lon="-1.53025">
        <ele>22</ele>
        <time>2023-11-15T09:59:36Z</time>
      </trkpt>
      <trkpt lat="47.25467" lon="-1.53064">
        <ele>22</ele>
        <time>2023-11-15T10:00:11Z</time>
      </trkpt>
      <trkpt lat="47.25472" lon="-1.53097">
        <ele>22</ele>
        <time>2023-11-15T10:00:42Z</time>
      </trkpt>
      <trkpt lat="47.25478" lon="-1.53189">
        <ele>21</ele>
        <time>2023-11-15T10:02:05Z</time>
      </trkpt>
      <trkpt lat="47.2548" lon="-1.5322">
        <ele>21</ele>
        <time>2023-11-15T10:02:33Z</time>
      </trkpt>
      <trkpt lat="47.25498" lon="-1.53418">
        <ele>19</ele>
        <time>2023-11-15T10:05:34Z</time>
      </trkpt>
      <trkpt lat="47.25503" lon="-1.53449">
        <ele>20</ele>
        <time>2023-11-15T10:06:03Z</time>
      </trkpt>
      <trkpt lat="47.2551" lon="-1.53545">
        <ele>19</ele>
        <time>2023-11-15T10:07:31Z</time>
      </trkpt>
      <trkpt lat="47.25513" lon="-1.53574">
        <ele>18</ele>
        <time>2023-11-15T10:07:57Z</time>
      </trkpt>
      <trkpt lat="47.25515" lon="-1.53605">
        <ele>17</ele>
        <time>2023-11-15T10:08:26Z</time>
      </trkpt>
      <trkpt lat="47.25512" lon="-1.53665">
        <ele>17</ele>
        <time>2023-11-15T10:09:20Z</time>
      </trkpt>
      <trkpt lat="47.25517" lon="-1.53702">
        <ele>16</ele>
        <time>2023-11-15T10:09:54Z</time>
      </trkpt>
      <trkpt lat="47.25525" lon="-1.5374">
        <ele>15</ele>
        <time>2023-11-15T10:10:30Z</time>
      </trkpt>
      <trkpt lat="47.25543" lon="-1.53789">
        <ele>12</ele>
        <time>2023-11-15T10:11:21Z</time>
      </trkpt>
      <trkpt lat="47.2555" lon="-1.53815">
        <ele>10</ele>
        <time>2023-11-15T10:11:46Z</time>
      </trkpt>
      <trkpt lat="47.25558" lon="-1.53841">
        <ele>9</ele>
        <time>2023-11-15T10:12:12Z</time>
      </trkpt>
      <trkpt lat="47.25566" lon="-1.53867">
        <ele>8</ele>
        <time>2023-11-15T10:12:38Z</time>
      </trkpt>
      <trkpt lat="47.25596" lon="-1.5397">
        <ele>10</ele>
        <time>2023-11-15T10:14:19Z</time>
      </trkpt>
      <trkpt lat="47.25607" lon="-1.54009">
        <ele>13</ele>
        <time>2023-11-15T10:14:58Z</time>
      </trkpt>
      <trkpt lat="47.25615" lon="-1.5405">
        <ele>15</ele>
        <time>2023-11-15T10:15:36Z</time>
      </trkpt>
      <trkpt lat="47.25611" lon="-1.54004">
        <ele>13</ele>
        <time>2023-11-15T10:16:18Z</time>
      </trkpt>
      <trkpt lat="47.25588" lon="-1.54003">
        <ele>12</ele>
        <time>2023-11-15T10:16:49Z</time>
      </trkpt>
      <trkpt lat="47.25566" lon="-1.54016">
        <ele>13</ele>
        <time>2023-11-15T10:17:20Z</time>
      </trkpt>
      <trkpt lat="47.25594" lon="-1.53983">
        <ele>11</ele>
        <time>2023-11-15T10:18:08Z</time>
      </trkpt>
      <trkpt lat="47.25606" lon="-1.53961">
        <ele>9</ele>
        <time>2023-11-15T10:18:34Z</time>
      </trkpt>
      <trkpt lat="47.25646" lon="-1.53941">
        <ele>9</ele>
        <time>2023-11-15T10:19:30Z</time>
      </trkpt>
      <trkpt lat="47.25667" lon="-1.5394">
        <ele>9</ele>
        <time>2023-11-15T10:19:58Z</time>
      </trkpt>
      <trkpt lat="47.25699" lon="-1.53948">
        <ele>9</ele>
        <time>2023-11-15T10:20:42Z</time>
      </trkpt>
      <trkpt lat="47.25719" lon="-1.53968">
        <ele>10</ele>
        <time>2023-11-15T10:21:14Z</time>
      </trkpt>
      <trkpt lat="47.25737" lon="-1.54007">
        <ele>12</ele>
        <time>2023-11-15T10:21:57Z</time>
      </trkpt>
      <trkpt lat="47.25745" lon="-1.54045">
        <ele>13</ele>
        <time>2023-11-15T10:22:33Z</time>
      </trkpt>
      <trkpt lat="47.25755" lon="-1.54081">
        <ele>14</ele>
        <time>2023-11-15T10:23:08Z</time>
      </trkpt>
      <trkpt lat="47.25769" lon="-1.54111">
        <ele>16</ele>
        <time>2023-11-15T10:23:41Z</time>
      </trkpt>
      <trkpt lat="47.25779" lon="-1.54143">
        <ele>18</ele>
        <time>2023-11-15T10:24:13Z</time>
      </trkpt>
      <trkpt lat="47.25799" lon="-1.54203">
        <ele>22</ele>
        <time>2023-11-15T10:25:13Z</time>
      </trkpt>
      <trkpt lat="47.25814" lon="-1.54234">
        <ele>24</ele>
        <time>2023-11-15T10:25:48Z</time>
      </trkpt>
      <trkpt lat="47.25827" lon="-1.54258">
        <ele>25</ele>
        <time>2023-11-15T10:26:16Z</time>
      </trkpt>
      <trkpt lat="47.25848" lon="-1.54272">
        <ele>27</ele>
        <time>2023-11-15T10:26:46Z</time>
      </trkpt>
      <trkpt lat="47.25872" lon="-1.54288">
        <ele>28</ele>
        <time>2023-11-15T10:27:21Z</time>
      </trkpt>
      <trkpt lat="47.25899" lon="-1.54293">
        <ele>30</ele>
        <time>2023-11-15T10:27:58Z</time>
      </trkpt>
      <trkpt lat="47.2593" lon="-1.5429">
        <ele>30</ele>
        <time>2023-11-15T10:28:39Z</time>
      </trkpt>
      <trkpt lat="47.25963" lon="-1.54281">
        <ele>29</ele>
        <time>2023-11-15T10:29:24Z</time>
      </trkpt>
      <trkpt lat="47.26" lon="-1.54268">
        <ele>27</ele>
        <time>2023-11-15T10:30:15Z</time>
      </trkpt>
      <trkpt lat="47.2602" lon="-1.54262">
        <ele>26</ele>
        <time>2023-11-15T10:30:42Z</time>
      </trkpt>
      <trkpt lat="47.2606" lon="-1.54263">
        <ele>23</ele>
        <time>2023-11-15T10:31:35Z</time>
      </trkpt>
      <trkpt lat="47.26089" lon="-1.54266">
        <ele>22</ele>
        <time>2023-11-15T10:32:14Z</time>
      </trkpt>
      <trkpt lat="47.26109" lon="-1.5427">
        <ele>22</ele>
        <time>2023-11-15T10:32:41Z</time>
      </trkpt>
      <trkpt lat="47.26148" lon="-1.5427">
        <ele>22</ele>
        <time>2023-11-15T10:33:33Z</time>
      </trkpt>
      <trkpt lat="47.26169" lon="-1.54273">
        <ele>21</ele>
        <time>2023-11-15T10:34:01Z</time>
      </trkpt>
      <trkpt lat="47.26196" lon="-1.54277">
        <ele>21</ele>
        <time>2023-11-15T10:34:38Z</time>
      </trkpt>
      <trkpt lat="47.26217" lon="-1.54279">
        <ele>20</ele>
        <time>2023-11-15T10:35:06Z</time>
      </trkpt>
      <trkpt lat="47.26238" lon="-1.54281">
        <ele>20</ele>
        <time>2023-11-15T10:35:34Z</time>
      </trkpt>
      <trkpt lat="47.26259" lon="-1.54289">
        <ele>19</ele>
        <time>2023-11-15T10:36:03Z</time>
      </trkpt>
      <trkpt lat="47.2628" lon="-1.54307">
        <ele>19</ele>
        <time>2023-11-15T10:36:35Z</time>
      </trkpt>
      <trkpt lat="47.26299" lon="-1.54325">
        <ele>19</ele>
        <time>2023-11-15T10:37:05Z</time>
      </trkpt>
      <trkpt lat="47.26317" lon="-1.54345">
        <ele>19</ele>
        <time>2023-11-15T10:37:35Z</time>
      </trkpt>
      <trkpt lat="47.26361" lon="-1.54386">
        <ele>19</ele>
        <time>2023-11-15T10:38:45Z</time>
      </trkpt>
      <trkpt lat="47.26379" lon="-1.54401">
        <ele>19</ele>
        <time>2023-11-15T10:39:12Z</time>
      </trkpt>
      <trkpt lat="47.26396" lon="-1.54418">
        <ele>19</ele>
        <time>2023-11-15T10:39:40Z</time>
      </trkpt>
      <trkpt lat="47.26412" lon="-1.54433">
        <ele>19</ele>
        <time>2023-11-15T10:40:05Z</time>
      </trkpt>
      <trkpt lat="47.26443" lon="-1.54444">
        <ele>20</ele>
        <time>2023-11-15T10:40:48Z</time>
      </trkpt>
      <trkpt lat="47.26468" lon="-1.54435">
        <ele>21</ele>
        <time>2023-11-15T10:41:22Z</time>
      </trkpt>
      <trkpt lat="47.26492" lon="-1.54416">
        <ele>22</ele>
        <time>2023-11-15T10:41:58Z</time>
      </trkpt>
      <trkpt lat="47.26518" lon="-1.54398">
        <ele>22</ele>
        <time>2023-11-15T10:42:37Z</time>
      </trkpt>
      <trkpt lat="47.26536" lon="-1.54391">
        <ele>22</ele>
        <time>2023-11-15T10:43:02Z</time>
      </trkpt>
      <trkpt lat="47.26554" lon="-1.54389">
        <ele>22</ele>
        <time>2023-11-15T10:43:26Z</time>
      </trkpt>
      <trkpt lat="47.26569" lon="-1.54416">
        <ele>22</ele>
        <time>2023-11-15T10:43:57Z</time>
      </trkpt>
      <trkpt lat="47.26583" lon="-1.54459">
        <ele>23</ele>
        <time>2023-11-15T10:44:40Z</time>
      </trkpt>
      <trkpt lat="47.26601" lon="-1.54469">
        <ele>23</ele>
        <time>2023-11-15T10:45:06Z</time>
      </trkpt>
      <trkpt lat="47.26634" lon="-1.54461">
        <ele>23</ele>
        <time>2023-11-15T10:45:51Z</time>
      </trkpt>
      <trkpt lat="47.26662" lon="-1.54457">
        <ele>24</ele>
        <time>2023-11-15T10:46:28Z</time>
      </trkpt>
      <trkpt lat="47.2669" lon="-1.5446">
        <ele>25</ele>
        <time>2023-11-15T10:47:06Z</time>
      </trkpt>
      <trkpt lat="47.26721" lon="-1.54469">
        <ele>26</ele>
        <time>2023-11-15T10:47:48Z</time>
      </trkpt>
      <trkpt lat="47.26742" lon="-1.54486">
        <ele>27</ele>
        <time>2023-11-15T10:48:20Z</time>
      </trkpt>
      <trkpt lat="47.26761" lon="-1.54505">
        <ele>28</ele>
        <time>2023-11-15T10:48:50Z</time>
      </trkpt>
      <trkpt lat="47.26785" lon="-1.54519">
        <ele>28</ele>
        <time>2023-11-15T10:49:25Z</time>
      </trkpt>
      <trkpt lat="47.26803" lon="-1.54541">
        <ele>28</ele>
        <time>2023-11-15T10:49:56Z</time>
      </trkpt>
      <trkpt lat="47.26822" lon="-1.54558">
        <ele>29</ele>
        <time>2023-11-15T10:50:26Z</time>
      </trkpt>
      <trkpt lat="47.26847" lon="-1.54563">
        <ele>29</ele>
        <time>2023-11-15T10:50:59Z</time>
      </trkpt>
      <trkpt lat="47.2687" lon="-1.54553">
        <ele>29</ele>
        <time>2023-11-15T10:51:31Z</time>
      </trkpt>
      <trkpt lat="47.26892" lon="-1.54523">
        <ele>29</ele>
        <time>2023-11-15T10:52:11Z</time>
      </trkpt>
      <trkpt lat="47.26902" lon="-1.54479">
        <ele>28</ele>
        <time>2023-11-15T10:52:53Z</time>
      </trkpt>
      <trkpt lat="47.26884" lon="-1.54461">
        <ele>27</ele>
        <time>2023-11-15T10:53:23Z</time>
      </trkpt>
    </trkseg>
  </trk>
  <trk>
    <name><![CDATA[ChapelleE_GesvresTreillieres_23km-13558460]]></name>
    <extensions>
      <line xmlns="http://www.topografix.com/GPX/gpx_style/0/2">
        <color>FFFF00</color>
        <width>4</width>
      </line>
    </extensions>
    <trkseg>
      <trkpt lat="47.26873" lon="-1.54605">
        <ele>31</ele>
        <time>2023-11-15T07:52:42Z</time>
      </trkpt>
      <trkpt lat="47.26859" lon="-1.54643">
        <ele>30</ele>
        <time>2023-11-15T07:53:21Z</time>
      </trkpt>
      <trkpt lat="47.26931" lon="-1.54923">
        <ele>26</ele>
        <time>2023-11-15T07:57:52Z</time>
      </trkpt>
      <trkpt lat="47.26904" lon="-1.54997">
        <ele>24</ele>
        <time>2023-11-15T07:59:08Z</time>
      </trkpt>
      <trkpt lat="47.26969" lon="-1.55221">
        <ele>29</ele>
        <time>2023-11-15T08:02:49Z</time>
      </trkpt>
      <trkpt lat="47.27056" lon="-1.55538">
        <ele>24</ele>
        <time>2023-11-15T08:07:59Z</time>
      </trkpt>
      <trkpt lat="47.27071" lon="-1.5564">
        <ele>19</ele>
        <time>2023-11-15T08:09:33Z</time>
      </trkpt>
      <trkpt lat="47.27052" lon="-1.5573">
        <ele>11</ele>
        <time>2023-11-15T08:10:58Z</time>
      </trkpt>
      <trkpt lat="47.2721" lon="-1.56016">
        <ele>10</ele>
        <time>2023-11-15T08:16:32Z</time>
      </trkpt>
      <trkpt lat="47.27261" lon="-1.56034">
        <ele>10</ele>
        <time>2023-11-15T08:17:42Z</time>
      </trkpt>
      <trkpt lat="47.27291" lon="-1.56085">
        <ele>8</ele>
        <time>2023-11-15T08:18:43Z</time>
      </trkpt>
      <trkpt lat="47.27364" lon="-1.56119">
        <ele>10</ele>
        <time>2023-11-15T08:20:26Z</time>
      </trkpt>
      <trkpt lat="47.27509" lon="-1.56094">
        <ele>19</ele>
        <time>2023-11-15T08:23:40Z</time>
      </trkpt>
      <trkpt lat="47.27604" lon="-1.56007">
        <ele>27</ele>
        <time>2023-11-15T08:26:10Z</time>
      </trkpt>
      <trkpt lat="47.27658" lon="-1.56112">
        <ele>23</ele>
        <time>2023-11-15T08:28:09Z</time>
      </trkpt>
      <trkpt lat="47.27751" lon="-1.56172">
        <ele>27</ele>
        <time>2023-11-15T08:30:24Z</time>
      </trkpt>
      <trkpt lat="47.2786" lon="-1.56413">
        <ele>19</ele>
        <time>2023-11-15T08:34:47Z</time>
      </trkpt>
      <trkpt lat="47.27853" lon="-1.56514">
        <ele>13</ele>
        <time>2023-11-15T08:36:19Z</time>
      </trkpt>
      <trkpt lat="47.27879" lon="-1.56568">
        <ele>13</ele>
        <time>2023-11-15T08:37:19Z</time>
      </trkpt>
      <trkpt lat="47.27899" lon="-1.56569">
        <ele>15</ele>
        <time>2023-11-15T08:37:45Z</time>
      </trkpt>
      <trkpt lat="47.27928" lon="-1.56571">
        <ele>17</ele>
        <time>2023-11-15T08:38:24Z</time>
      </trkpt>
      <trkpt lat="47.28006" lon="-1.56608">
        <ele>20</ele>
        <time>2023-11-15T08:40:13Z</time>
      </trkpt>
      <trkpt lat="47.28124" lon="-1.56601">
        <ele>19</ele>
        <time>2023-11-15T08:42:51Z</time>
      </trkpt>
      <trkpt lat="47.28218" lon="-1.56512">
        <ele>21</ele>
        <time>2023-11-15T08:45:20Z</time>
      </trkpt>
      <trkpt lat="47.28319" lon="-1.56511">
        <ele>15</ele>
        <time>2023-11-15T08:47:35Z</time>
      </trkpt>
      <trkpt lat="47.28485" lon="-1.56472">
        <ele>22</ele>
        <time>2023-11-15T08:51:19Z</time>
      </trkpt>
      <trkpt lat="47.2852" lon="-1.56509">
        <ele>20</ele>
        <time>2023-11-15T08:52:17Z</time>
      </trkpt>
      <trkpt lat="47.28552" lon="-1.5662">
        <ele>14</ele>
        <time>2023-11-15T08:54:06Z</time>
      </trkpt>
      <trkpt lat="47.28674" lon="-1.56679">
        <ele>14</ele>
        <time>2023-11-15T08:56:57Z</time>
      </trkpt>
      <trkpt lat="47.2874" lon="-1.56733">
        <ele>12</ele>
        <time>2023-11-15T08:58:38Z</time>
      </trkpt>
      <trkpt lat="47.28827" lon="-1.56753">
        <ele>15</ele>
        <time>2023-11-15T09:00:35Z</time>
      </trkpt>
      <trkpt lat="47.28888" lon="-1.56489">
        <ele>30</ele>
        <time>2023-11-15T09:04:48Z</time>
      </trkpt>
      <trkpt lat="47.28963" lon="-1.56447">
        <ele>32</ele>
        <time>2023-11-15T09:06:35Z</time>
      </trkpt>
      <trkpt lat="47.29076" lon="-1.56453">
        <ele>31</ele>
        <time>2023-11-15T09:09:06Z</time>
      </trkpt>
      <trkpt lat="47.29144" lon="-1.56627">
        <ele>18</ele>
        <time>2023-11-15T09:12:08Z</time>
      </trkpt>
      <trkpt lat="47.29244" lon="-1.56616">
        <ele>20</ele>
        <time>2023-11-15T09:14:21Z</time>
      </trkpt>
      <trkpt lat="47.29277" lon="-1.56616">
        <ele>21</ele>
        <time>2023-11-15T09:15:05Z</time>
      </trkpt>
      <trkpt lat="47.29402" lon="-1.5674">
        <ele>24</ele>
        <time>2023-11-15T09:18:26Z</time>
      </trkpt>
      <trkpt lat="47.29557" lon="-1.56779">
        <ele>31</ele>
        <time>2023-11-15T09:21:56Z</time>
      </trkpt>
      <trkpt lat="47.29613" lon="-1.56752">
        <ele>32</ele>
        <time>2023-11-15T09:23:15Z</time>
      </trkpt>
      <trkpt lat="47.29615" lon="-1.56721">
        <ele>33</ele>
        <time>2023-11-15T09:23:43Z</time>
      </trkpt>
      <trkpt lat="47.29647" lon="-1.5669">
        <ele>33</ele>
        <time>2023-11-15T09:24:34Z</time>
      </trkpt>
      <trkpt lat="47.29725" lon="-1.56655">
        <ele>31</ele>
        <time>2023-11-15T09:26:23Z</time>
      </trkpt>
      <trkpt lat="47.29778" lon="-1.56656">
        <ele>29</ele>
        <time>2023-11-15T09:27:34Z</time>
      </trkpt>
      <trkpt lat="47.29882" lon="-1.56619">
        <ele>26</ele>
        <time>2023-11-15T09:29:56Z</time>
      </trkpt>
      <trkpt lat="47.30034" lon="-1.56608">
        <ele>18</ele>
        <time>2023-11-15T09:33:20Z</time>
      </trkpt>
      <trkpt lat="47.30152" lon="-1.56615">
        <ele>19</ele>
        <time>2023-11-15T09:35:57Z</time>
      </trkpt>
      <trkpt lat="47.30288" lon="-1.56545">
        <ele>28</ele>
        <time>2023-11-15T09:39:09Z</time>
      </trkpt>
      <trkpt lat="47.30359" lon="-1.56513">
        <ele>30</ele>
        <time>2023-11-15T09:40:48Z</time>
      </trkpt>
      <trkpt lat="47.30423" lon="-1.56468">
        <ele>32</ele>
        <time>2023-11-15T09:42:23Z</time>
      </trkpt>
      <trkpt lat="47.30449" lon="-1.56356">
        <ele>33</ele>
        <time>2023-11-15T09:44:10Z</time>
      </trkpt>
      <trkpt lat="47.30544" lon="-1.56492">
        <ele>37</ele>
        <time>2023-11-15T09:47:07Z</time>
      </trkpt>
      <trkpt lat="47.30634" lon="-1.5658">
        <ele>38</ele>
        <time>2023-11-15T09:49:31Z</time>
      </trkpt>
      <trkpt lat="47.30746" lon="-1.56484">
        <ele>38</ele>
        <time>2023-11-15T09:52:24Z</time>
      </trkpt>
      <trkpt lat="47.30768" lon="-1.56492">
        <ele>38</ele>
        <time>2023-11-15T09:52:54Z</time>
      </trkpt>
      <trkpt lat="47.30797" lon="-1.56568">
        <ele>37</ele>
        <time>2023-11-15T09:54:13Z</time>
      </trkpt>
      <trkpt lat="47.30842" lon="-1.56616">
        <ele>37</ele>
        <time>2023-11-15T09:55:27Z</time>
      </trkpt>
      <trkpt lat="47.30874" lon="-1.56675">
        <ele>37</ele>
        <time>2023-11-15T09:56:35Z</time>
      </trkpt>
      <trkpt lat="47.31003" lon="-1.56989">
        <ele>42</ele>
        <time>2023-11-15T10:02:08Z</time>
      </trkpt>
      <trkpt lat="47.3164" lon="-1.57734">
        <ele>41</ele>
        <time>2023-11-15T10:20:13Z</time>
      </trkpt>
      <trkpt lat="47.322" lon="-1.58351">
        <ele>40</ele>
        <time>2023-11-15T10:35:45Z</time>
      </trkpt>
      <trkpt lat="47.32387" lon="-1.58708">
        <ele>42</ele>
        <time>2023-11-15T10:42:33Z</time>
      </trkpt>
      <trkpt lat="47.32581" lon="-1.59545">
        <ele>43</ele>
        <time>2023-11-15T10:55:54Z</time>
      </trkpt>
      <trkpt lat="47.33033" lon="-1.61718">
        <ele>59</ele>
        <time>2023-11-15T11:30:10Z</time>
      </trkpt>
      <trkpt lat="47.32803" lon="-1.61963">
        <ele>55</ele>
        <time>2023-11-15T11:36:28Z</time>
      </trkpt>
      <trkpt lat="47.32421" lon="-1.6201">
        <ele>48</ele>
        <time>2023-11-15T11:45:00Z</time>
      </trkpt>
      <trkpt lat="47.32267" lon="-1.61885">
        <ele>35</ele>
        <time>2023-11-15T11:48:54Z</time>
      </trkpt>
      <trkpt lat="47.32236" lon="-1.61737">
        <ele>36</ele>
        <time>2023-11-15T11:51:14Z</time>
      </trkpt>
      <trkpt lat="47.32051" lon="-1.61594">
        <ele>19</ele>
        <time>2023-11-15T11:55:53Z</time>
      </trkpt>
      <trkpt lat="47.31902" lon="-1.61686">
        <ele>23</ele>
        <time>2023-11-15T11:59:29Z</time>
      </trkpt>
      <trkpt lat="47.31764" lon="-1.61201">
        <ele>23</ele>
        <time>2023-11-15T12:07:24Z</time>
      </trkpt>
      <trkpt lat="47.31612" lon="-1.61114">
        <ele>29</ele>
        <time>2023-11-15T12:11:02Z</time>
      </trkpt>
      <trkpt lat="47.31567" lon="-1.60675">
        <ele>20</ele>
        <time>2023-11-15T12:17:44Z</time>
      </trkpt>
      <trkpt lat="47.31415" lon="-1.6044">
        <ele>31</ele>
        <time>2023-11-15T12:22:38Z</time>
      </trkpt>
      <trkpt lat="47.31228" lon="-1.60456">
        <ele>34</ele>
        <time>2023-11-15T12:26:47Z</time>
      </trkpt>
      <trkpt lat="47.31075" lon="-1.60131">
        <ele>41</ele>
        <time>2023-11-15T12:32:45Z</time>
      </trkpt>
      <trkpt lat="47.3102" lon="-1.59974">
        <ele>40</ele>
        <time>2023-11-15T12:35:25Z</time>
      </trkpt>
      <trkpt lat="47.3099" lon="-1.59703">
        <ele>30</ele>
        <time>2023-11-15T12:39:34Z</time>
      </trkpt>
      <trkpt lat="47.30986" lon="-1.59505">
        <ele>35</ele>
        <time>2023-11-15T12:42:33Z</time>
      </trkpt>
      <trkpt lat="47.30858" lon="-1.59392">
        <ele>46</ele>
        <time>2023-11-15T12:45:52Z</time>
      </trkpt>
      <trkpt lat="47.30477" lon="-1.59357">
        <ele>37</ele>
        <time>2023-11-15T12:54:22Z</time>
      </trkpt>
      <trkpt lat="47.3037" lon="-1.59413">
        <ele>40</ele>
        <time>2023-11-15T12:56:53Z</time>
      </trkpt>
      <trkpt lat="47.30162" lon="-1.59372">
        <ele>49</ele>
        <time>2023-11-15T13:01:33Z</time>
      </trkpt>
      <trkpt lat="47.30041" lon="-1.59055">
        <ele>53</ele>
        <time>2023-11-15T13:07:02Z</time>
      </trkpt>
      <trkpt lat="47.29428" lon="-1.59377">
        <ele>56</ele>
        <time>2023-11-15T13:21:31Z</time>
      </trkpt>
      <trkpt lat="47.29373" lon="-1.59198">
        <ele>48</ele>
        <time>2023-11-15T13:24:29Z</time>
      </trkpt>
      <trkpt lat="47.2947" lon="-1.58989">
        <ele>42</ele>
        <time>2023-11-15T13:28:18Z</time>
      </trkpt>
      <trkpt lat="47.29445" lon="-1.58438">
        <ele>35</ele>
        <time>2023-11-15T13:36:38Z</time>
      </trkpt>
      <trkpt lat="47.29432" lon="-1.58167">
        <ele>39</ele>
        <time>2023-11-15T13:40:43Z</time>
      </trkpt>
      <trkpt lat="47.29342" lon="-1.58055">
        <ele>36</ele>
        <time>2023-11-15T13:43:21Z</time>
      </trkpt>
      <trkpt lat="47.2922" lon="-1.57708">
        <ele>20</ele>
        <time>2023-11-15T13:49:14Z</time>
      </trkpt>
      <trkpt lat="47.29342" lon="-1.57162">
        <ele>16</ele>
        <time>2023-11-15T13:57:55Z</time>
      </trkpt>
      <trkpt lat="47.29297" lon="-1.56995">
        <ele>20</ele>
        <time>2023-11-15T14:00:37Z</time>
      </trkpt>
      <trkpt lat="47.29263" lon="-1.56775">
        <ele>16</ele>
        <time>2023-11-15T14:04:02Z</time>
      </trkpt>
      <trkpt lat="47.29095" lon="-1.56811">
        <ele>25</ele>
        <time>2023-11-15T14:07:48Z</time>
      </trkpt>
      <trkpt lat="47.28974" lon="-1.56594">
        <ele>16</ele>
        <time>2023-11-15T14:12:02Z</time>
      </trkpt>
      <trkpt lat="47.289" lon="-1.56781">
        <ele>17</ele>
        <time>2023-11-15T14:15:18Z</time>
      </trkpt>
      <trkpt lat="47.28832" lon="-1.5685">
        <ele>19</ele>
        <time>2023-11-15T14:17:08Z</time>
      </trkpt>
      <trkpt lat="47.28581" lon="-1.56765">
        <ele>14</ele>
        <time>2023-11-15T14:22:52Z</time>
      </trkpt>
      <trkpt lat="47.28515" lon="-1.567">
        <ele>16</ele>
        <time>2023-11-15T14:24:38Z</time>
      </trkpt>
      <trkpt lat="47.28503" lon="-1.56578">
        <ele>13</ele>
        <time>2023-11-15T14:26:30Z</time>
      </trkpt>
      <trkpt lat="47.2847" lon="-1.56568">
        <ele>13</ele>
        <time>2023-11-15T14:27:15Z</time>
      </trkpt>
      <trkpt lat="47.28359" lon="-1.56823">
        <ele>25</ele>
        <time>2023-11-15T14:31:49Z</time>
      </trkpt>
      <trkpt lat="47.28346" lon="-1.56735">
        <ele>21</ele>
        <time>2023-11-15T14:33:10Z</time>
      </trkpt>
      <trkpt lat="47.28378" lon="-1.56628">
        <ele>13</ele>
        <time>2023-11-15T14:34:56Z</time>
      </trkpt>
      <trkpt lat="47.28277" lon="-1.56578">
        <ele>11</ele>
        <time>2023-11-15T14:37:18Z</time>
      </trkpt>
      <trkpt lat="47.28165" lon="-1.56666">
        <ele>16</ele>
        <time>2023-11-15T14:40:08Z</time>
      </trkpt>
      <trkpt lat="47.27999" lon="-1.56679">
        <ele>18</ele>
        <time>2023-11-15T14:43:50Z</time>
      </trkpt>
      <trkpt lat="47.27945" lon="-1.56682">
        <ele>18</ele>
        <time>2023-11-15T14:45:02Z</time>
      </trkpt>
      <trkpt lat="47.27925" lon="-1.56559">
        <ele>18</ele>
        <time>2023-11-15T14:46:56Z</time>
      </trkpt>
      <trkpt lat="47.27886" lon="-1.56555">
        <ele>15</ele>
        <time>2023-11-15T14:47:48Z</time>
      </trkpt>
      <trkpt lat="47.27844" lon="-1.56507">
        <ele>13</ele>
        <time>2023-11-15T14:48:59Z</time>
      </trkpt>
      <trkpt lat="47.27856" lon="-1.56411">
        <ele>19</ele>
        <time>2023-11-15T14:50:28Z</time>
      </trkpt>
      <trkpt lat="47.27757" lon="-1.56197">
        <ele>26</ele>
        <time>2023-11-15T14:54:22Z</time>
      </trkpt>
      <trkpt lat="47.27651" lon="-1.5609">
        <ele>26</ele>
        <time>2023-11-15T14:57:14Z</time>
      </trkpt>
      <trkpt lat="47.27595" lon="-1.56001">
        <ele>27</ele>
        <time>2023-11-15T14:59:04Z</time>
      </trkpt>
      <trkpt lat="47.27516" lon="-1.56078">
        <ele>21</ele>
        <time>2023-11-15T15:01:10Z</time>
      </trkpt>
      <trkpt lat="47.27377" lon="-1.56118">
        <ele>11</ele>
        <time>2023-11-15T15:04:19Z</time>
      </trkpt>
      <trkpt lat="47.27303" lon="-1.56101">
        <ele>9</ele>
        <time>2023-11-15T15:05:59Z</time>
      </trkpt>
      <trkpt lat="47.27252" lon="-1.56032">
        <ele>9</ele>
        <time>2023-11-15T15:07:31Z</time>
      </trkpt>
      <trkpt lat="47.27201" lon="-1.56014">
        <ele>10</ele>
        <time>2023-11-15T15:08:41Z</time>
      </trkpt>
      <trkpt lat="47.27048" lon="-1.55719">
        <ele>12</ele>
        <time>2023-11-15T15:14:17Z</time>
      </trkpt>
      <trkpt lat="47.27068" lon="-1.55627">
        <ele>20</ele>
        <time>2023-11-15T15:15:45Z</time>
      </trkpt>
      <trkpt lat="47.27054" lon="-1.55555">
        <ele>24</ele>
        <time>2023-11-15T15:16:53Z</time>
      </trkpt>
      <trkpt lat="47.26977" lon="-1.55221">
        <ele>29</ele>
        <time>2023-11-15T15:22:12Z</time>
      </trkpt>
      <trkpt lat="47.26912" lon="-1.55">
        <ele>24</ele>
        <time>2023-11-15T15:25:50Z</time>
      </trkpt>
      <trkpt lat="47.26934" lon="-1.54911">
        <ele>26</ele>
        <time>2023-11-15T15:27:16Z</time>
      </trkpt>
      <trkpt lat="47.26857" lon="-1.54658">
        <ele>30</ele>
        <time>2023-11-15T15:31:27Z</time>
      </trkpt>
      <trkpt lat="47.26876" lon="-1.54592">
        <ele>31</ele>
        <time>2023-11-15T15:32:32Z</time>
      </trkpt>
    </trkseg>
  </trk>
  <trk>
    <name><![CDATA[Velo_OrvaultVigneuxGarambeau_38km-14118743]]></name>
    <extensions>
      <line xmlns="http://www.topografix.com/GPX/gpx_style/0/2">
        <color>FF00FF</color>
        <width>4</width>
      </line>
    </extensions>
    <trkseg>
      <trkpt lat="47.26846" lon="-1.54578">
        <ele>29</ele>
        <time>2023-11-15T07:52:33Z</time>
      </trkpt>
      <trkpt lat="47.26251" lon="-1.54913">
        <ele>8</ele>
        <time>2023-11-15T07:54:26Z</time>
      </trkpt>
      <trkpt lat="47.25983" lon="-1.55694">
        <ele>11</ele>
        <time>2023-11-15T07:56:12Z</time>
      </trkpt>
      <trkpt lat="47.26432" lon="-1.57376">
        <ele>34</ele>
        <time>2023-11-15T07:59:50Z</time>
      </trkpt>
      <trkpt lat="47.2635" lon="-1.58011">
        <ele>44</ele>
        <time>2023-11-15T08:01:08Z</time>
      </trkpt>
      <trkpt lat="47.26793" lon="-1.58294">
        <ele>49</ele>
        <time>2023-11-15T08:02:34Z</time>
      </trkpt>
      <trkpt lat="47.26706" lon="-1.58663">
        <ele>51</ele>
        <time>2023-11-15T08:03:21Z</time>
      </trkpt>
      <trkpt lat="47.27323" lon="-1.59238">
        <ele>46</ele>
        <time>2023-11-15T08:05:31Z</time>
      </trkpt>
      <trkpt lat="47.27216" lon="-1.5927">
        <ele>49</ele>
        <time>2023-11-15T08:05:51Z</time>
      </trkpt>
      <trkpt lat="47.27278" lon="-1.59392">
        <ele>48</ele>
        <time>2023-11-15T08:06:09Z</time>
      </trkpt>
      <trkpt lat="47.27254" lon="-1.59693">
        <ele>50</ele>
        <time>2023-11-15T08:06:46Z</time>
      </trkpt>
      <trkpt lat="47.26703" lon="-1.60112">
        <ele>40</ele>
        <time>2023-11-15T08:08:36Z</time>
      </trkpt>
      <trkpt lat="47.26887" lon="-1.6102">
        <ele>52</ele>
        <time>2023-11-15T08:10:30Z</time>
      </trkpt>
      <trkpt lat="47.26987" lon="-1.6174">
        <ele>48</ele>
        <time>2023-11-15T08:11:59Z</time>
      </trkpt>
      <trkpt lat="47.27185" lon="-1.62067">
        <ele>37</ele>
        <time>2023-11-15T08:12:52Z</time>
      </trkpt>
      <trkpt lat="47.27101" lon="-1.62475">
        <ele>48</ele>
        <time>2023-11-15T08:13:44Z</time>
      </trkpt>
      <trkpt lat="47.27474" lon="-1.63702">
        <ele>62</ele>
        <time>2023-11-15T08:16:26Z</time>
      </trkpt>
      <trkpt lat="47.27572" lon="-1.65809">
        <ele>64</ele>
        <time>2023-11-15T08:20:41Z</time>
      </trkpt>
      <trkpt lat="47.27258" lon="-1.66502">
        <ele>62</ele>
        <time>2023-11-15T08:22:21Z</time>
      </trkpt>
      <trkpt lat="47.27503" lon="-1.67065">
        <ele>65</ele>
        <time>2023-11-15T08:23:42Z</time>
      </trkpt>
      <trkpt lat="47.2767" lon="-1.67455">
        <ele>69</ele>
        <time>2023-11-15T08:24:38Z</time>
      </trkpt>
      <trkpt lat="47.28708" lon="-1.67642">
        <ele>58</ele>
        <time>2023-11-15T08:27:44Z</time>
      </trkpt>
      <trkpt lat="47.28864" lon="-1.67397">
        <ele>61</ele>
        <time>2023-11-15T08:28:24Z</time>
      </trkpt>
      <trkpt lat="47.29277" lon="-1.67331">
        <ele>72</ele>
        <time>2023-11-15T08:29:38Z</time>
      </trkpt>
      <trkpt lat="47.29434" lon="-1.66996">
        <ele>73</ele>
        <time>2023-11-15T08:30:28Z</time>
      </trkpt>
      <trkpt lat="47.29946" lon="-1.68181">
        <ele>68</ele>
        <time>2023-11-15T08:33:17Z</time>
      </trkpt>
      <trkpt lat="47.29952" lon="-1.68451">
        <ele>66</ele>
        <time>2023-11-15T08:33:50Z</time>
      </trkpt>
      <trkpt lat="47.30086" lon="-1.68765">
        <ele>66</ele>
        <time>2023-11-15T08:34:34Z</time>
      </trkpt>
      <trkpt lat="47.30665" lon="-1.68614">
        <ele>76</ele>
        <time>2023-11-15T08:36:19Z</time>
      </trkpt>
      <trkpt lat="47.30825" lon="-1.69043">
        <ele>71</ele>
        <time>2023-11-15T08:37:18Z</time>
      </trkpt>
      <trkpt lat="47.31056" lon="-1.69898">
        <ele>69</ele>
        <time>2023-11-15T08:39:09Z</time>
      </trkpt>
      <trkpt lat="47.31076" lon="-1.70159">
        <ele>67</ele>
        <time>2023-11-15T08:39:41Z</time>
      </trkpt>
      <trkpt lat="47.31583" lon="-1.70876">
        <ele>74</ele>
        <time>2023-11-15T08:41:46Z</time>
      </trkpt>
      <trkpt lat="47.31673" lon="-1.69741">
        <ele>76</ele>
        <time>2023-11-15T08:44:04Z</time>
      </trkpt>
      <trkpt lat="47.31567" lon="-1.68889">
        <ele>76</ele>
        <time>2023-11-15T08:45:48Z</time>
      </trkpt>
      <trkpt lat="47.31634" lon="-1.67623">
        <ele>61</ele>
        <time>2023-11-15T08:48:21Z</time>
      </trkpt>
      <trkpt lat="47.31503" lon="-1.67348">
        <ele>69</ele>
        <time>2023-11-15T08:49:02Z</time>
      </trkpt>
      <trkpt lat="47.31357" lon="-1.66336">
        <ele>64</ele>
        <time>2023-11-15T08:51:07Z</time>
      </trkpt>
      <trkpt lat="47.31145" lon="-1.66057">
        <ele>71</ele>
        <time>2023-11-15T08:51:57Z</time>
      </trkpt>
      <trkpt lat="47.31023" lon="-1.65967">
        <ele>73</ele>
        <time>2023-11-15T08:52:22Z</time>
      </trkpt>
      <trkpt lat="47.3093" lon="-1.65207">
        <ele>68</ele>
        <time>2023-11-15T08:53:55Z</time>
      </trkpt>
      <trkpt lat="47.31018" lon="-1.65087">
        <ele>66</ele>
        <time>2023-11-15T08:54:16Z</time>
      </trkpt>
      <trkpt lat="47.32202" lon="-1.64582">
        <ele>38</ele>
        <time>2023-11-15T08:57:55Z</time>
      </trkpt>
      <trkpt lat="47.32212" lon="-1.64337">
        <ele>33</ele>
        <time>2023-11-15T08:58:25Z</time>
      </trkpt>
      <trkpt lat="47.31419" lon="-1.63413">
        <ele>51</ele>
        <time>2023-11-15T09:01:25Z</time>
      </trkpt>
      <trkpt lat="47.30871" lon="-1.6311">
        <ele>65</ele>
        <time>2023-11-15T09:03:09Z</time>
      </trkpt>
      <trkpt lat="47.30597" lon="-1.63326">
        <ele>69</ele>
        <time>2023-11-15T09:04:04Z</time>
      </trkpt>
      <trkpt lat="47.29647" lon="-1.61248">
        <ele>62</ele>
        <time>2023-11-15T09:09:07Z</time>
      </trkpt>
      <trkpt lat="47.29452" lon="-1.60945">
        <ele>62</ele>
        <time>2023-11-15T09:09:57Z</time>
      </trkpt>
      <trkpt lat="47.30109" lon="-1.60346">
        <ele>61</ele>
        <time>2023-11-15T09:12:14Z</time>
      </trkpt>
      <trkpt lat="47.30451" lon="-1.60036">
        <ele>64</ele>
        <time>2023-11-15T09:13:26Z</time>
      </trkpt>
      <trkpt lat="47.29969" lon="-1.58913">
        <ele>50</ele>
        <time>2023-11-15T09:16:06Z</time>
      </trkpt>
      <trkpt lat="47.29883" lon="-1.57958">
        <ele>33</ele>
        <time>2023-11-15T09:18:02Z</time>
      </trkpt>
      <trkpt lat="47.29941" lon="-1.57728">
        <ele>35</ele>
        <time>2023-11-15T09:18:32Z</time>
      </trkpt>
      <trkpt lat="47.29743" lon="-1.57454">
        <ele>34</ele>
        <time>2023-11-15T09:19:20Z</time>
      </trkpt>
      <trkpt lat="47.29883" lon="-1.57175">
        <ele>25</ele>
        <time>2023-11-15T09:20:02Z</time>
      </trkpt>
      <trkpt lat="47.29797" lon="-1.56866">
        <ele>18</ele>
        <time>2023-11-15T09:20:43Z</time>
      </trkpt>
      <trkpt lat="47.29932" lon="-1.5672">
        <ele>18</ele>
        <time>2023-11-15T09:21:12Z</time>
      </trkpt>
      <trkpt lat="47.29813" lon="-1.56447">
        <ele>32</ele>
        <time>2023-11-15T09:21:51Z</time>
      </trkpt>
      <trkpt lat="47.29945" lon="-1.55943">
        <ele>33</ele>
        <time>2023-11-15T09:22:57Z</time>
      </trkpt>
      <trkpt lat="47.29389" lon="-1.55822">
        <ele>47</ele>
        <time>2023-11-15T09:24:37Z</time>
      </trkpt>
      <trkpt lat="47.28949" lon="-1.55907">
        <ele>41</ele>
        <time>2023-11-15T09:25:56Z</time>
      </trkpt>
      <trkpt lat="47.28636" lon="-1.55791">
        <ele>40</ele>
        <time>2023-11-15T09:26:53Z</time>
      </trkpt>
      <trkpt lat="47.2852" lon="-1.55791">
        <ele>38</ele>
        <time>2023-11-15T09:27:14Z</time>
      </trkpt>
      <trkpt lat="47.28549" lon="-1.55658">
        <ele>36</ele>
        <time>2023-11-15T09:27:31Z</time>
      </trkpt>
      <trkpt lat="47.27384" lon="-1.5513">
        <ele>38</ele>
        <time>2023-11-15T09:31:07Z</time>
      </trkpt>
      <trkpt lat="47.2697" lon="-1.55224">
        <ele>29</ele>
        <time>2023-11-15T09:32:22Z</time>
      </trkpt>
      <trkpt lat="47.26857" lon="-1.54621">
        <ele>30</ele>
        <time>2023-11-15T09:33:37Z</time>
      </trkpt>
    </trkseg>
  </trk>
  <trk>
    <name><![CDATA[IkeaDom-13426926]]></name>
    <extensions>
      <line xmlns="http://www.topografix.com/GPX/gpx_style/0/2">
        <color>000088</color>
        <width>4</width>
      </line>
    </extensions>
    <trkseg>
      <trkpt lat="47.26764" lon="-1.54509">
        <ele>28</ele>
        <time>2023-11-15T07:51:40Z</time>
      </trkpt>
      <trkpt lat="47.26758" lon="-1.54646">
        <ele>28</ele>
        <time>2023-11-15T07:53:44Z</time>
      </trkpt>
      <trkpt lat="47.26467" lon="-1.54681">
        <ele>19</ele>
        <time>2023-11-15T08:00:14Z</time>
      </trkpt>
      <trkpt lat="47.26211" lon="-1.54981">
        <ele>11</ele>
        <time>2023-11-15T08:07:30Z</time>
      </trkpt>
      <trkpt lat="47.25989" lon="-1.55599">
        <ele>8</ele>
        <time>2023-11-15T08:18:04Z</time>
      </trkpt>
      <trkpt lat="47.2603" lon="-1.55745">
        <ele>13</ele>
        <time>2023-11-15T08:20:27Z</time>
      </trkpt>
      <trkpt lat="47.25803" lon="-1.55718">
        <ele>13</ele>
        <time>2023-11-15T08:25:31Z</time>
      </trkpt>
      <trkpt lat="47.25651" lon="-1.56299">
        <ele>15</ele>
        <time>2023-11-15T08:34:55Z</time>
      </trkpt>
      <trkpt lat="47.25592" lon="-1.56292">
        <ele>20</ele>
        <time>2023-11-15T08:36:14Z</time>
      </trkpt>
      <trkpt lat="47.25404" lon="-1.56427">
        <ele>26</ele>
        <time>2023-11-15T08:40:53Z</time>
      </trkpt>
      <trkpt lat="47.25455" lon="-1.56571">
        <ele>26</ele>
        <time>2023-11-15T08:43:20Z</time>
      </trkpt>
      <trkpt lat="47.25346" lon="-1.56592">
        <ele>29</ele>
        <time>2023-11-15T08:45:47Z</time>
      </trkpt>
      <trkpt lat="47.25264" lon="-1.56781">
        <ele>33</ele>
        <time>2023-11-15T08:49:10Z</time>
      </trkpt>
      <trkpt lat="47.25293" lon="-1.57002">
        <ele>34</ele>
        <time>2023-11-15T08:52:34Z</time>
      </trkpt>
      <trkpt lat="47.25134" lon="-1.57142">
        <ele>37</ele>
        <time>2023-11-15T08:56:41Z</time>
      </trkpt>
      <trkpt lat="47.25309" lon="-1.57618">
        <ele>37</ele>
        <time>2023-11-15T09:04:51Z</time>
      </trkpt>
      <trkpt lat="47.24766" lon="-1.57747">
        <ele>11</ele>
        <time>2023-11-15T09:17:05Z</time>
      </trkpt>
      <trkpt lat="47.24708" lon="-1.57743">
        <ele>11</ele>
        <time>2023-11-15T09:18:23Z</time>
      </trkpt>
      <trkpt lat="47.24601" lon="-1.57991">
        <ele>29</ele>
        <time>2023-11-15T09:22:49Z</time>
      </trkpt>
      <trkpt lat="47.24428" lon="-1.58251">
        <ele>32</ele>
        <time>2023-11-15T09:28:19Z</time>
      </trkpt>
      <trkpt lat="47.24237" lon="-1.58294">
        <ele>37</ele>
        <time>2023-11-15T09:32:36Z</time>
      </trkpt>
      <trkpt lat="47.24067" lon="-1.58436">
        <ele>43</ele>
        <time>2023-11-15T09:36:57Z</time>
      </trkpt>
      <trkpt lat="47.23981" lon="-1.5847">
        <ele>46</ele>
        <time>2023-11-15T09:38:56Z</time>
      </trkpt>
      <trkpt lat="47.2378" lon="-1.58614">
        <ele>47</ele>
        <time>2023-11-15T09:43:54Z</time>
      </trkpt>
      <trkpt lat="47.23528" lon="-1.58803">
        <ele>45</ele>
        <time>2023-11-15T09:50:12Z</time>
      </trkpt>
      <trkpt lat="47.23347" lon="-1.59024">
        <ele>37</ele>
        <time>2023-11-15T09:55:25Z</time>
      </trkpt>
      <trkpt lat="47.23165" lon="-1.59232">
        <ele>26</ele>
        <time>2023-11-15T10:00:33Z</time>
      </trkpt>
      <trkpt lat="47.22942" lon="-1.59736">
        <ele>14</ele>
        <time>2023-11-15T10:09:38Z</time>
      </trkpt>
      <trkpt lat="47.22922" lon="-1.59796">
        <ele>16</ele>
        <time>2023-11-15T10:10:39Z</time>
      </trkpt>
      <trkpt lat="47.22942" lon="-1.60002">
        <ele>20</ele>
        <time>2023-11-15T10:13:47Z</time>
      </trkpt>
      <trkpt lat="47.22971" lon="-1.60343">
        <ele>34</ele>
        <time>2023-11-15T10:18:59Z</time>
      </trkpt>
      <trkpt lat="47.2288" lon="-1.6052">
        <ele>40</ele>
        <time>2023-11-15T10:22:20Z</time>
      </trkpt>
      <trkpt lat="47.22848" lon="-1.60531">
        <ele>41</ele>
        <time>2023-11-15T10:23:04Z</time>
      </trkpt>
      <trkpt lat="47.22933" lon="-1.60825">
        <ele>44</ele>
        <time>2023-11-15T10:27:53Z</time>
      </trkpt>
      <trkpt lat="47.23079" lon="-1.61154">
        <ele>40</ele>
        <time>2023-11-15T10:33:49Z</time>
      </trkpt>
      <trkpt lat="47.23056" lon="-1.61517">
        <ele>40</ele>
        <time>2023-11-15T10:39:20Z</time>
      </trkpt>
      <trkpt lat="47.23026" lon="-1.61681">
        <ele>41</ele>
        <time>2023-11-15T10:41:54Z</time>
      </trkpt>
      <trkpt lat="47.23042" lon="-1.61713">
        <ele>41</ele>
        <time>2023-11-15T10:42:30Z</time>
      </trkpt>
      <trkpt lat="47.23008" lon="-1.61719">
        <ele>40</ele>
        <time>2023-11-15T10:43:15Z</time>
      </trkpt>
      <trkpt lat="47.22884" lon="-1.62078">
        <ele>46</ele>
        <time>2023-11-15T10:49:20Z</time>
      </trkpt>
      <trkpt lat="47.22849" lon="-1.62124">
        <ele>47</ele>
        <time>2023-11-15T10:50:23Z</time>
      </trkpt>
      <trkpt lat="47.22758" lon="-1.62127">
        <ele>49</ele>
        <time>2023-11-15T10:52:24Z</time>
      </trkpt>
      <trkpt lat="47.22748" lon="-1.62141">
        <ele>49</ele>
        <time>2023-11-15T10:52:43Z</time>
      </trkpt>
      <trkpt lat="47.22741" lon="-1.62116">
        <ele>49</ele>
        <time>2023-11-15T10:53:07Z</time>
      </trkpt>
      <trkpt lat="47.22611" lon="-1.62007">
        <ele>50</ele>
        <time>2023-11-15T10:56:27Z</time>
      </trkpt>
      <trkpt lat="47.22563" lon="-1.62121">
        <ele>50</ele>
        <time>2023-11-15T10:58:28Z</time>
      </trkpt>
      <trkpt lat="47.22577" lon="-1.62185">
        <ele>48</ele>
        <time>2023-11-15T10:59:29Z</time>
      </trkpt>
      <trkpt lat="47.22548" lon="-1.62247">
        <ele>48</ele>
        <time>2023-11-15T11:00:38Z</time>
      </trkpt>
      <trkpt lat="47.22508" lon="-1.62242">
        <ele>49</ele>
        <time>2023-11-15T11:01:31Z</time>
      </trkpt>
      <trkpt lat="47.22444" lon="-1.62348">
        <ele>50</ele>
        <time>2023-11-15T11:03:40Z</time>
      </trkpt>
      <trkpt lat="47.2246" lon="-1.62462">
        <ele>48</ele>
        <time>2023-11-15T11:05:25Z</time>
      </trkpt>
      <trkpt lat="47.22511" lon="-1.62603">
        <ele>44</ele>
        <time>2023-11-15T11:07:50Z</time>
      </trkpt>
      <trkpt lat="47.22571" lon="-1.62662">
        <ele>45</ele>
        <time>2023-11-15T11:09:26Z</time>
      </trkpt>
      <trkpt lat="47.22454" lon="-1.62927">
        <ele>42</ele>
        <time>2023-11-15T11:14:13Z</time>
      </trkpt>
      <trkpt lat="47.22267" lon="-1.63045">
        <ele>38</ele>
        <time>2023-11-15T11:18:44Z</time>
      </trkpt>
    </trkseg>
  </trk>
  <trk>
    <name><![CDATA[Casson_TourVeloDom_34km-12998252]]></name>
    <extensions>
      <line xmlns="http://www.topografix.com/GPX/gpx_style/0/2">
        <color>008800</color>
        <width>4</width>
      </line>
    </extensions>
    <trkseg>
      <trkpt lat="47.2691" lon="-1.54495">
        <ele>28</ele>
        <time>2023-11-15T07:51:25Z</time>
      </trkpt>
      <trkpt lat="47.26886" lon="-1.54612">
        <ele>31</ele>
        <time>2023-11-15T07:52:31Z</time>
      </trkpt>
      <trkpt lat="47.27655" lon="-1.54801">
        <ele>38</ele>
        <time>2023-11-15T08:02:56Z</time>
      </trkpt>
      <trkpt lat="47.28552" lon="-1.54964">
        <ele>26</ele>
        <time>2023-11-15T08:14:59Z</time>
      </trkpt>
      <trkpt lat="47.29984" lon="-1.54767">
        <ele>26</ele>
        <time>2023-11-15T08:34:11Z</time>
      </trkpt>
      <trkpt lat="47.30758" lon="-1.54286">
        <ele>23</ele>
        <time>2023-11-15T08:45:23Z</time>
      </trkpt>
      <trkpt lat="47.31608" lon="-1.5432">
        <ele>9</ele>
        <time>2023-11-15T08:56:44Z</time>
      </trkpt>
      <trkpt lat="47.31939" lon="-1.54921">
        <ele>25</ele>
        <time>2023-11-15T09:03:44Z</time>
      </trkpt>
      <trkpt lat="47.32312" lon="-1.55187">
        <ele>30</ele>
        <time>2023-11-15T09:09:16Z</time>
      </trkpt>
      <trkpt lat="47.32614" lon="-1.55942">
        <ele>32</ele>
        <time>2023-11-15T09:17:12Z</time>
      </trkpt>
      <trkpt lat="47.33347" lon="-1.57033">
        <ele>33</ele>
        <time>2023-11-15T09:31:06Z</time>
      </trkpt>
      <trkpt lat="47.33527" lon="-1.57178">
        <ele>38</ele>
        <time>2023-11-15T09:33:50Z</time>
      </trkpt>
      <trkpt lat="47.33964" lon="-1.5723">
        <ele>33</ele>
        <time>2023-11-15T09:39:41Z</time>
      </trkpt>
      <trkpt lat="47.34266" lon="-1.57264">
        <ele>24</ele>
        <time>2023-11-15T09:43:43Z</time>
      </trkpt>
      <trkpt lat="47.34569" lon="-1.57093">
        <ele>29</ele>
        <time>2023-11-15T09:48:03Z</time>
      </trkpt>
      <trkpt lat="47.34923" lon="-1.57299">
        <ele>36</ele>
        <time>2023-11-15T09:53:08Z</time>
      </trkpt>
      <trkpt lat="47.35034" lon="-1.57144">
        <ele>30</ele>
        <time>2023-11-15T09:55:10Z</time>
      </trkpt>
      <trkpt lat="47.3522" lon="-1.57436">
        <ele>13</ele>
        <time>2023-11-15T09:58:48Z</time>
      </trkpt>
      <trkpt lat="47.35487" lon="-1.57376">
        <ele>18</ele>
        <time>2023-11-15T10:02:24Z</time>
      </trkpt>
      <trkpt lat="47.3572" lon="-1.57565">
        <ele>28</ele>
        <time>2023-11-15T10:05:57Z</time>
      </trkpt>
      <trkpt lat="47.36162" lon="-1.57522">
        <ele>29</ele>
        <time>2023-11-15T10:11:51Z</time>
      </trkpt>
      <trkpt lat="47.36272" lon="-1.57968">
        <ele>31</ele>
        <time>2023-11-15T10:16:09Z</time>
      </trkpt>
      <trkpt lat="47.36609" lon="-1.58286">
        <ele>31</ele>
        <time>2023-11-15T10:21:29Z</time>
      </trkpt>
      <trkpt lat="47.37417" lon="-1.58723">
        <ele>31</ele>
        <time>2023-11-15T10:32:58Z</time>
      </trkpt>
      <trkpt lat="47.37569" lon="-1.58972">
        <ele>32</ele>
        <time>2023-11-15T10:36:00Z</time>
      </trkpt>
      <trkpt lat="47.37574" lon="-1.59084">
        <ele>33</ele>
        <time>2023-11-15T10:37:01Z</time>
      </trkpt>
      <trkpt lat="47.37894" lon="-1.58809">
        <ele>37</ele>
        <time>2023-11-15T10:41:57Z</time>
      </trkpt>
      <trkpt lat="47.38411" lon="-1.5814">
        <ele>36</ele>
        <time>2023-11-15T10:51:07Z</time>
      </trkpt>
      <trkpt lat="47.38894" lon="-1.58251">
        <ele>34</ele>
        <time>2023-11-15T10:57:39Z</time>
      </trkpt>
      <trkpt lat="47.38882" lon="-1.57934">
        <ele>32</ele>
        <time>2023-11-15T11:00:31Z</time>
      </trkpt>
      <trkpt lat="47.39155" lon="-1.57599">
        <ele>27</ele>
        <time>2023-11-15T11:05:15Z</time>
      </trkpt>
      <trkpt lat="47.39208" lon="-1.57177">
        <ele>21</ele>
        <time>2023-11-15T11:09:08Z</time>
      </trkpt>
      <trkpt lat="47.39052" lon="-1.56427">
        <ele>20</ele>
        <time>2023-11-15T11:16:13Z</time>
      </trkpt>
      <trkpt lat="47.38921" lon="-1.5634">
        <ele>22</ele>
        <time>2023-11-15T11:18:08Z</time>
      </trkpt>
      <trkpt lat="47.38748" lon="-1.55692">
        <ele>32</ele>
        <time>2023-11-15T11:24:26Z</time>
      </trkpt>
      <trkpt lat="47.38572" lon="-1.55529">
        <ele>28</ele>
        <time>2023-11-15T11:27:12Z</time>
      </trkpt>
      <trkpt lat="47.38496" lon="-1.55213">
        <ele>22</ele>
        <time>2023-11-15T11:30:14Z</time>
      </trkpt>
      <trkpt lat="47.38386" lon="-1.55141">
        <ele>21</ele>
        <time>2023-11-15T11:31:50Z</time>
      </trkpt>
      <trkpt lat="47.38268" lon="-1.54753">
        <ele>27</ele>
        <time>2023-11-15T11:35:41Z</time>
      </trkpt>
      <trkpt lat="47.38016" lon="-1.54503">
        <ele>31</ele>
        <time>2023-11-15T11:39:44Z</time>
      </trkpt>
      <trkpt lat="47.37891" lon="-1.54279">
        <ele>30</ele>
        <time>2023-11-15T11:42:21Z</time>
      </trkpt>
      <trkpt lat="47.37926" lon="-1.53916">
        <ele>29</ele>
        <time>2023-11-15T11:45:40Z</time>
      </trkpt>
      <trkpt lat="47.37781" lon="-1.53911">
        <ele>29</ele>
        <time>2023-11-15T11:47:36Z</time>
      </trkpt>
      <trkpt lat="47.37601" lon="-1.54069">
        <ele>31</ele>
        <time>2023-11-15T11:50:24Z</time>
      </trkpt>
      <trkpt lat="47.37287" lon="-1.54074">
        <ele>22</ele>
        <time>2023-11-15T11:54:35Z</time>
      </trkpt>
      <trkpt lat="47.37155" lon="-1.54064">
        <ele>20</ele>
        <time>2023-11-15T11:56:21Z</time>
      </trkpt>
      <trkpt lat="47.37096" lon="-1.54176">
        <ele>19</ele>
        <time>2023-11-15T11:57:38Z</time>
      </trkpt>
      <trkpt lat="47.36924" lon="-1.54187">
        <ele>20</ele>
        <time>2023-11-15T11:59:56Z</time>
      </trkpt>
      <trkpt lat="47.36689" lon="-1.54355">
        <ele>19</ele>
        <time>2023-11-15T12:03:25Z</time>
      </trkpt>
      <trkpt lat="47.36467" lon="-1.54299">
        <ele>20</ele>
        <time>2023-11-15T12:06:25Z</time>
      </trkpt>
      <trkpt lat="47.3645" lon="-1.53926">
        <ele>24</ele>
        <time>2023-11-15T12:09:48Z</time>
      </trkpt>
      <trkpt lat="47.36301" lon="-1.53748">
        <ele>26</ele>
        <time>2023-11-15T12:12:21Z</time>
      </trkpt>
      <trkpt lat="47.3618" lon="-1.53794">
        <ele>27</ele>
        <time>2023-11-15T12:14:01Z</time>
      </trkpt>
      <trkpt lat="47.36018" lon="-1.53824">
        <ele>28</ele>
        <time>2023-11-15T12:16:12Z</time>
      </trkpt>
      <trkpt lat="47.35624" lon="-1.53574">
        <ele>32</ele>
        <time>2023-11-15T12:21:55Z</time>
      </trkpt>
      <trkpt lat="47.35486" lon="-1.53518">
        <ele>33</ele>
        <time>2023-11-15T12:23:50Z</time>
      </trkpt>
      <trkpt lat="47.35302" lon="-1.53636">
        <ele>33</ele>
        <time>2023-11-15T12:26:31Z</time>
      </trkpt>
      <trkpt lat="47.35254" lon="-1.53809">
        <ele>36</ele>
        <time>2023-11-15T12:28:12Z</time>
      </trkpt>
      <trkpt lat="47.35178" lon="-1.54141">
        <ele>31</ele>
        <time>2023-11-15T12:31:22Z</time>
      </trkpt>
      <trkpt lat="47.34694" lon="-1.54314">
        <ele>31</ele>
        <time>2023-11-15T12:38:01Z</time>
      </trkpt>
      <trkpt lat="47.34421" lon="-1.54641">
        <ele>28</ele>
        <time>2023-11-15T12:42:42Z</time>
      </trkpt>
      <trkpt lat="47.34341" lon="-1.54753">
        <ele>24</ele>
        <time>2023-11-15T12:44:11Z</time>
      </trkpt>
      <trkpt lat="47.33846" lon="-1.54942">
        <ele>22</ele>
        <time>2023-11-15T12:51:00Z</time>
      </trkpt>
      <trkpt lat="47.33629" lon="-1.5435">
        <ele>24</ele>
        <time>2023-11-15T12:57:05Z</time>
      </trkpt>
      <trkpt lat="47.33376" lon="-1.53927">
        <ele>20</ele>
        <time>2023-11-15T13:02:11Z</time>
      </trkpt>
      <trkpt lat="47.33301" lon="-1.53949">
        <ele>18</ele>
        <time>2023-11-15T13:03:13Z</time>
      </trkpt>
      <trkpt lat="47.33254" lon="-1.53567">
        <ele>22</ele>
        <time>2023-11-15T13:06:43Z</time>
      </trkpt>
      <trkpt lat="47.32704" lon="-1.53682">
        <ele>23</ele>
        <time>2023-11-15T13:14:08Z</time>
      </trkpt>
      <trkpt lat="47.32236" lon="-1.53549">
        <ele>15</ele>
        <time>2023-11-15T13:20:30Z</time>
      </trkpt>
      <trkpt lat="47.32" lon="-1.53691">
        <ele>15</ele>
        <time>2023-11-15T13:23:54Z</time>
      </trkpt>
      <trkpt lat="47.31733" lon="-1.54223">
        <ele>11</ele>
        <time>2023-11-15T13:29:53Z</time>
      </trkpt>
      <trkpt lat="47.3161" lon="-1.543">
        <ele>9</ele>
        <time>2023-11-15T13:31:40Z</time>
      </trkpt>
      <trkpt lat="47.31218" lon="-1.54253">
        <ele>6</ele>
        <time>2023-11-15T13:36:55Z</time>
      </trkpt>
    </trkseg>
  </trk>
  <trk>
    <name><![CDATA[ChapelleE_boucleHéric_40km-14251590]]></name>
    <extensions>
      <line xmlns="http://www.topografix.com/GPX/gpx_style/0/2">
        <color>880000</color>
        <width>4</width>
      </line>
    </extensions>
    <trkseg>
      <trkpt lat="47.26833" lon="-1.5456">
        <ele>29</ele>
        <time>2023-11-15T08:00:52Z</time>
      </trkpt>
      <trkpt lat="47.28547" lon="-1.55015">
        <ele>27</ele>
        <time>2023-11-15T08:06:02Z</time>
      </trkpt>
      <trkpt lat="47.30006" lon="-1.54791">
        <ele>26</ele>
        <time>2023-11-15T08:10:23Z</time>
      </trkpt>
      <trkpt lat="47.30818" lon="-1.54278">
        <ele>19</ele>
        <time>2023-11-15T08:13:00Z</time>
      </trkpt>
      <trkpt lat="47.31611" lon="-1.54358">
        <ele>11</ele>
        <time>2023-11-15T08:15:21Z</time>
      </trkpt>
      <trkpt lat="47.32365" lon="-1.55368">
        <ele>29</ele>
        <time>2023-11-15T08:18:23Z</time>
      </trkpt>
      <trkpt lat="47.33348" lon="-1.5705">
        <ele>33</ele>
        <time>2023-11-15T08:22:51Z</time>
      </trkpt>
      <trkpt lat="47.33989" lon="-1.57259">
        <ele>33</ele>
        <time>2023-11-15T08:24:47Z</time>
      </trkpt>
      <trkpt lat="47.34556" lon="-1.57115">
        <ele>28</ele>
        <time>2023-11-15T08:26:30Z</time>
      </trkpt>
      <trkpt lat="47.34918" lon="-1.57295">
        <ele>36</ele>
        <time>2023-11-15T08:27:38Z</time>
      </trkpt>
      <trkpt lat="47.35021" lon="-1.57129">
        <ele>30</ele>
        <time>2023-11-15T08:28:05Z</time>
      </trkpt>
      <trkpt lat="47.35211" lon="-1.57454">
        <ele>13</ele>
        <time>2023-11-15T08:28:57Z</time>
      </trkpt>
      <trkpt lat="47.35578" lon="-1.57418">
        <ele>23</ele>
        <time>2023-11-15T08:30:02Z</time>
      </trkpt>
      <trkpt lat="47.3572" lon="-1.57555">
        <ele>28</ele>
        <time>2023-11-15T08:30:32Z</time>
      </trkpt>
      <trkpt lat="47.3616" lon="-1.57541">
        <ele>30</ele>
        <time>2023-11-15T08:31:50Z</time>
      </trkpt>
      <trkpt lat="47.36277" lon="-1.57988">
        <ele>31</ele>
        <time>2023-11-15T08:32:48Z</time>
      </trkpt>
      <trkpt lat="47.36971" lon="-1.58527">
        <ele>38</ele>
        <time>2023-11-15T08:35:08Z</time>
      </trkpt>
      <trkpt lat="47.3743" lon="-1.58715">
        <ele>31</ele>
        <time>2023-11-15T08:36:33Z</time>
      </trkpt>
      <trkpt lat="47.3756" lon="-1.58978">
        <ele>32</ele>
        <time>2023-11-15T08:37:12Z</time>
      </trkpt>
      <trkpt lat="47.37361" lon="-1.60499">
        <ele>38</ele>
        <time>2023-11-15T08:40:18Z</time>
      </trkpt>
      <trkpt lat="47.39043" lon="-1.60781">
        <ele>36</ele>
        <time>2023-11-15T08:45:20Z</time>
      </trkpt>
      <trkpt lat="47.3919" lon="-1.62817">
        <ele>33</ele>
        <time>2023-11-15T08:49:26Z</time>
      </trkpt>
      <trkpt lat="47.39957" lon="-1.64433">
        <ele>40</ele>
        <time>2023-11-15T08:53:24Z</time>
      </trkpt>
      <trkpt lat="47.37553" lon="-1.64087">
        <ele>45</ele>
        <time>2023-11-15T09:00:34Z</time>
      </trkpt>
      <trkpt lat="47.36936" lon="-1.63701">
        <ele>47</ele>
        <time>2023-11-15T09:02:33Z</time>
      </trkpt>
      <trkpt lat="47.36712" lon="-1.63725">
        <ele>45</ele>
        <time>2023-11-15T09:03:13Z</time>
      </trkpt>
      <trkpt lat="47.36438" lon="-1.63553">
        <ele>34</ele>
        <time>2023-11-15T09:04:06Z</time>
      </trkpt>
      <trkpt lat="47.36162" lon="-1.63338">
        <ele>48</ele>
        <time>2023-11-15T09:05:01Z</time>
      </trkpt>
      <trkpt lat="47.35912" lon="-1.63428">
        <ele>52</ele>
        <time>2023-11-15T09:05:47Z</time>
      </trkpt>
      <trkpt lat="47.35597" lon="-1.63659">
        <ele>54</ele>
        <time>2023-11-15T09:06:50Z</time>
      </trkpt>
      <trkpt lat="47.35228" lon="-1.63554">
        <ele>54</ele>
        <time>2023-11-15T09:07:57Z</time>
      </trkpt>
      <trkpt lat="47.35123" lon="-1.63446">
        <ele>49</ele>
        <time>2023-11-15T09:08:19Z</time>
      </trkpt>
      <trkpt lat="47.34763" lon="-1.63543">
        <ele>46</ele>
        <time>2023-11-15T09:09:25Z</time>
      </trkpt>
      <trkpt lat="47.34286" lon="-1.63183">
        <ele>60</ele>
        <time>2023-11-15T09:11:00Z</time>
      </trkpt>
      <trkpt lat="47.33858" lon="-1.63598">
        <ele>63</ele>
        <time>2023-11-15T09:12:31Z</time>
      </trkpt>
      <trkpt lat="47.3333" lon="-1.62804">
        <ele>59</ele>
        <time>2023-11-15T09:14:45Z</time>
      </trkpt>
      <trkpt lat="47.33227" lon="-1.62732">
        <ele>58</ele>
        <time>2023-11-15T09:15:05Z</time>
      </trkpt>
      <trkpt lat="47.33117" lon="-1.62793">
        <ele>54</ele>
        <time>2023-11-15T09:15:26Z</time>
      </trkpt>
      <trkpt lat="47.32787" lon="-1.61616">
        <ele>55</ele>
        <time>2023-11-15T09:18:00Z</time>
      </trkpt>
      <trkpt lat="47.3279" lon="-1.61373">
        <ele>50</ele>
        <time>2023-11-15T09:18:29Z</time>
      </trkpt>
      <trkpt lat="47.3301" lon="-1.60774">
        <ele>49</ele>
        <time>2023-11-15T09:19:51Z</time>
      </trkpt>
      <trkpt lat="47.32893" lon="-1.59251">
        <ele>47</ele>
        <time>2023-11-15T09:22:56Z</time>
      </trkpt>
      <trkpt lat="47.32555" lon="-1.58537">
        <ele>49</ele>
        <time>2023-11-15T09:24:41Z</time>
      </trkpt>
      <trkpt lat="47.30921" lon="-1.56696">
        <ele>35</ele>
        <time>2023-11-15T09:30:47Z</time>
      </trkpt>
      <trkpt lat="47.30852" lon="-1.56608">
        <ele>36</ele>
        <time>2023-11-15T09:31:03Z</time>
      </trkpt>
      <trkpt lat="47.30253" lon="-1.555">
        <ele>25</ele>
        <time>2023-11-15T09:33:54Z</time>
      </trkpt>
      <trkpt lat="47.29751" lon="-1.55485">
        <ele>32</ele>
        <time>2023-11-15T09:35:24Z</time>
      </trkpt>
      <trkpt lat="47.29628" lon="-1.5555">
        <ele>36</ele>
        <time>2023-11-15T09:35:47Z</time>
      </trkpt>
      <trkpt lat="47.29562" lon="-1.5551">
        <ele>38</ele>
        <time>2023-11-15T09:36:00Z</time>
      </trkpt>
      <trkpt lat="47.29349" lon="-1.54919">
        <ele>31</ele>
        <time>2023-11-15T09:37:20Z</time>
      </trkpt>
      <trkpt lat="47.27555" lon="-1.54807">
        <ele>37</ele>
        <time>2023-11-15T09:42:40Z</time>
      </trkpt>
      <trkpt lat="47.26887" lon="-1.54641">
        <ele>31</ele>
        <time>2023-11-15T09:44:40Z</time>
      </trkpt>
    </trkseg>
  </trk>
  <trk>
    <name><![CDATA[ChapelleE_SuceStMarsD_40km-14357364]]></name>
    <extensions>
      <line xmlns="http://www.topografix.com/GPX/gpx_style/0/2">
        <color>008888</color>
        <width>4</width>
      </line>
    </extensions>
    <trkseg>
      <trkpt lat="47.26745" lon="-1.54529">
        <ele>28</ele>
        <time>2023-11-15T08:00:35Z</time>
      </trkpt>
      <trkpt lat="47.27659" lon="-1.54809">
        <ele>38</ele>
        <time>2023-11-15T08:21:21Z</time>
      </trkpt>
      <trkpt lat="47.28566" lon="-1.54983">
        <ele>26</ele>
        <time>2023-11-15T08:41:41Z</time>
      </trkpt>
      <trkpt lat="47.29715" lon="-1.5484">
        <ele>26</ele>
        <time>2023-11-15T09:07:20Z</time>
      </trkpt>
      <trkpt lat="47.303" lon="-1.54636">
        <ele>20</ele>
        <time>2023-11-15T09:20:42Z</time>
      </trkpt>
      <trkpt lat="47.30774" lon="-1.54273">
        <ele>22</ele>
        <time>2023-11-15T09:32:35Z</time>
      </trkpt>
      <trkpt lat="47.31608" lon="-1.54304">
        <ele>9</ele>
        <time>2023-11-15T09:51:08Z</time>
      </trkpt>
      <trkpt lat="47.32103" lon="-1.53564">
        <ele>16</ele>
        <time>2023-11-15T10:06:49Z</time>
      </trkpt>
      <trkpt lat="47.3265" lon="-1.53707">
        <ele>26</ele>
        <time>2023-11-15T10:19:10Z</time>
      </trkpt>
      <trkpt lat="47.3366" lon="-1.53493">
        <ele>13</ele>
        <time>2023-11-15T10:41:52Z</time>
      </trkpt>
      <trkpt lat="47.33961" lon="-1.53176">
        <ele>11</ele>
        <time>2023-11-15T10:50:05Z</time>
      </trkpt>
      <trkpt lat="47.34002" lon="-1.52885">
        <ele>10</ele>
        <time>2023-11-15T10:54:34Z</time>
      </trkpt>
      <trkpt lat="47.33909" lon="-1.52799">
        <ele>6</ele>
        <time>2023-11-15T10:57:00Z</time>
      </trkpt>
      <trkpt lat="47.33936" lon="-1.52594">
        <ele>7</ele>
        <time>2023-11-15T11:00:09Z</time>
      </trkpt>
      <trkpt lat="47.33691" lon="-1.52472">
        <ele>10</ele>
        <time>2023-11-15T11:05:54Z</time>
      </trkpt>
      <trkpt lat="47.33051" lon="-1.51237">
        <ele>7</ele>
        <time>2023-11-15T11:29:20Z</time>
      </trkpt>
      <trkpt lat="47.33649" lon="-1.51084">
        <ele>16</ele>
        <time>2023-11-15T11:42:50Z</time>
      </trkpt>
      <trkpt lat="47.33798" lon="-1.50385">
        <ele>11</ele>
        <time>2023-11-15T11:53:53Z</time>
      </trkpt>
      <trkpt lat="47.33545" lon="-1.49342">
        <ele>9</ele>
        <time>2023-11-15T12:10:35Z</time>
      </trkpt>
      <trkpt lat="47.33725" lon="-1.49093">
        <ele>14</ele>
        <time>2023-11-15T12:16:04Z</time>
      </trkpt>
      <trkpt lat="47.34412" lon="-1.47917">
        <ele>8</ele>
        <time>2023-11-15T12:39:28Z</time>
      </trkpt>
      <trkpt lat="47.35011" lon="-1.47231">
        <ele>12</ele>
        <time>2023-11-15T12:56:20Z</time>
      </trkpt>
      <trkpt lat="47.35188" lon="-1.47239">
        <ele>12</ele>
        <time>2023-11-15T13:00:16Z</time>
      </trkpt>
      <trkpt lat="47.35252" lon="-1.47314">
        <ele>10</ele>
        <time>2023-11-15T13:02:05Z</time>
      </trkpt>
      <trkpt lat="47.35368" lon="-1.47271">
        <ele>13</ele>
        <time>2023-11-15T13:04:45Z</time>
      </trkpt>
      <trkpt lat="47.35747" lon="-1.4696">
        <ele>7</ele>
        <time>2023-11-15T13:14:24Z</time>
      </trkpt>
      <trkpt lat="47.35766" lon="-1.46659">
        <ele>3</ele>
        <time>2023-11-15T13:18:57Z</time>
      </trkpt>
      <trkpt lat="47.35889" lon="-1.46569">
        <ele>3</ele>
        <time>2023-11-15T13:22:00Z</time>
      </trkpt>
      <trkpt lat="47.35912" lon="-1.46384">
        <ele>5</ele>
        <time>2023-11-15T13:24:50Z</time>
      </trkpt>
      <trkpt lat="47.35825" lon="-1.4623">
        <ele>6</ele>
        <time>2023-11-15T13:27:51Z</time>
      </trkpt>
      <trkpt lat="47.35772" lon="-1.45569">
        <ele>13</ele>
        <time>2023-11-15T13:37:53Z</time>
      </trkpt>
      <trkpt lat="47.35801" lon="-1.44307">
        <ele>32</ele>
        <time>2023-11-15T13:56:55Z</time>
      </trkpt>
      <trkpt lat="47.35944" lon="-1.44088">
        <ele>34</ele>
        <time>2023-11-15T14:01:30Z</time>
      </trkpt>
      <trkpt lat="47.35612" lon="-1.43389">
        <ele>48</ele>
        <time>2023-11-15T14:14:21Z</time>
      </trkpt>
      <trkpt lat="47.3549" lon="-1.42908">
        <ele>55</ele>
        <time>2023-11-15T14:22:06Z</time>
      </trkpt>
      <trkpt lat="47.35429" lon="-1.41539">
        <ele>63</ele>
        <time>2023-11-15T14:42:46Z</time>
      </trkpt>
      <trkpt lat="47.35266" lon="-1.40578">
        <ele>70</ele>
        <time>2023-11-15T14:57:41Z</time>
      </trkpt>
      <trkpt lat="47.34766" lon="-1.41187">
        <ele>66</ele>
        <time>2023-11-15T15:12:07Z</time>
      </trkpt>
      <trkpt lat="47.34598" lon="-1.41556">
        <ele>68</ele>
        <time>2023-11-15T15:18:49Z</time>
      </trkpt>
      <trkpt lat="47.34542" lon="-1.42015">
        <ele>66</ele>
        <time>2023-11-15T15:25:50Z</time>
      </trkpt>
      <trkpt lat="47.34633" lon="-1.43509">
        <ele>57</ele>
        <time>2023-11-15T15:48:27Z</time>
      </trkpt>
      <trkpt lat="47.3456" lon="-1.4411">
        <ele>53</ele>
        <time>2023-11-15T15:57:39Z</time>
      </trkpt>
      <trkpt lat="47.34313" lon="-1.4451">
        <ele>45</ele>
        <time>2023-11-15T16:05:48Z</time>
      </trkpt>
      <trkpt lat="47.33324" lon="-1.45849">
        <ele>51</ele>
        <time>2023-11-15T16:35:39Z</time>
      </trkpt>
      <trkpt lat="47.32509" lon="-1.46166">
        <ele>38</ele>
        <time>2023-11-15T16:54:24Z</time>
      </trkpt>
      <trkpt lat="47.31957" lon="-1.46149">
        <ele>30</ele>
        <time>2023-11-15T17:06:41Z</time>
      </trkpt>
      <trkpt lat="47.31631" lon="-1.46398">
        <ele>20</ele>
        <time>2023-11-15T17:14:51Z</time>
      </trkpt>
      <trkpt lat="47.30723" lon="-1.47926">
        <ele>11</ele>
        <time>2023-11-15T17:45:29Z</time>
      </trkpt>
      <trkpt lat="47.30822" lon="-1.48063">
        <ele>11</ele>
        <time>2023-11-15T17:48:30Z</time>
      </trkpt>
      <trkpt lat="47.30751" lon="-1.48251">
        <ele>21</ele>
        <time>2023-11-15T17:51:45Z</time>
      </trkpt>
      <trkpt lat="47.30627" lon="-1.48072">
        <ele>11</ele>
        <time>2023-11-15T17:55:36Z</time>
      </trkpt>
      <trkpt lat="47.30349" lon="-1.48443">
        <ele>18</ele>
        <time>2023-11-15T18:03:57Z</time>
      </trkpt>
      <trkpt lat="47.2978" lon="-1.48613">
        <ele>26</ele>
        <time>2023-11-15T18:16:51Z</time>
      </trkpt>
      <trkpt lat="47.29652" lon="-1.48634">
        <ele>27</ele>
        <time>2023-11-15T18:19:43Z</time>
      </trkpt>
      <trkpt lat="47.29393" lon="-1.48779">
        <ele>28</ele>
        <time>2023-11-15T18:25:53Z</time>
      </trkpt>
      <trkpt lat="47.29295" lon="-1.49522">
        <ele>19</ele>
        <time>2023-11-15T18:37:18Z</time>
      </trkpt>
      <trkpt lat="47.29094" lon="-1.49869">
        <ele>12</ele>
        <time>2023-11-15T18:44:11Z</time>
      </trkpt>
      <trkpt lat="47.28717" lon="-1.49905">
        <ele>16</ele>
        <time>2023-11-15T18:52:35Z</time>
      </trkpt>
      <trkpt lat="47.28335" lon="-1.50605">
        <ele>21</ele>
        <time>2023-11-15T19:06:08Z</time>
      </trkpt>
      <trkpt lat="47.27508" lon="-1.50966">
        <ele>25</ele>
        <time>2023-11-15T19:25:19Z</time>
      </trkpt>
      <trkpt lat="47.26166" lon="-1.51702">
        <ele>26</ele>
        <time>2023-11-15T19:57:10Z</time>
      </trkpt>
      <trkpt lat="47.25862" lon="-1.51962">
        <ele>32</ele>
        <time>2023-11-15T20:04:59Z</time>
      </trkpt>
      <trkpt lat="47.25872" lon="-1.52748">
        <ele>19</ele>
        <time>2023-11-15T20:16:51Z</time>
      </trkpt>
      <trkpt lat="47.2547" lon="-1.52994">
        <ele>22</ele>
        <time>2023-11-15T20:26:32Z</time>
      </trkpt>
      <trkpt lat="47.25622" lon="-1.53939">
        <ele>8</ele>
        <time>2023-11-15T20:41:12Z</time>
      </trkpt>
      <trkpt lat="47.25848" lon="-1.54293">
        <ele>27</ele>
        <time>2023-11-15T20:48:32Z</time>
      </trkpt>
      <trkpt lat="47.26249" lon="-1.54286">
        <ele>20</ele>
        <time>2023-11-15T20:57:27Z</time>
      </trkpt>
      <trkpt lat="47.2645" lon="-1.54459">
        <ele>20</ele>
        <time>2023-11-15T21:02:38Z</time>
      </trkpt>
      <trkpt lat="47.26764" lon="-1.5461">
        <ele>28</ele>
        <time>2023-11-15T21:09:59Z</time>
      </trkpt>
    </trkseg>
  </trk>
  <trk>
    <name><![CDATA[Gesvrine_OrvaultTourChapelle_28km-14716825]]></name>
    <extensions>
      <line xmlns="http://www.topografix.com/GPX/gpx_style/0/2">
        <color>888800</color>
        <width>4</width>
      </line>
    </extensions>
    <trkseg>
      <trkpt lat="47.26759" lon="-1.54546">
        <ele>28</ele>
        <time>2023-11-15T08:00:26Z</time>
      </trkpt>
      <trkpt lat="47.26339" lon="-1.54814">
        <ele>11</ele>
        <time>2023-11-15T08:10:37Z</time>
      </trkpt>
      <trkpt lat="47.25996" lon="-1.5557">
        <ele>8</ele>
        <time>2023-11-15T08:24:20Z</time>
      </trkpt>
      <trkpt lat="47.26096" lon="-1.56391">
        <ele>25</ele>
        <time>2023-11-15T08:36:56Z</time>
      </trkpt>
      <trkpt lat="47.26439" lon="-1.57397">
        <ele>34</ele>
        <time>2023-11-15T08:53:55Z</time>
      </trkpt>
      <trkpt lat="47.26235" lon="-1.58336">
        <ele>42</ele>
        <time>2023-11-15T09:08:48Z</time>
      </trkpt>
      <trkpt lat="47.26058" lon="-1.58662">
        <ele>39</ele>
        <time>2023-11-15T09:15:06Z</time>
      </trkpt>
      <trkpt lat="47.26186" lon="-1.59265">
        <ele>30</ele>
        <time>2023-11-15T09:24:38Z</time>
      </trkpt>
      <trkpt lat="47.26453" lon="-1.5976">
        <ele>28</ele>
        <time>2023-11-15T09:34:11Z</time>
      </trkpt>
      <trkpt lat="47.2672" lon="-1.60143">
        <ele>42</ele>
        <time>2023-11-15T09:42:28Z</time>
      </trkpt>
      <trkpt lat="47.269" lon="-1.61122">
        <ele>52</ele>
        <time>2023-11-15T09:57:47Z</time>
      </trkpt>
      <trkpt lat="47.26986" lon="-1.6176">
        <ele>48</ele>
        <time>2023-11-15T10:07:36Z</time>
      </trkpt>
      <trkpt lat="47.27205" lon="-1.62072">
        <ele>39</ele>
        <time>2023-11-15T10:14:22Z</time>
      </trkpt>
      <trkpt lat="47.27142" lon="-1.62322">
        <ele>41</ele>
        <time>2023-11-15T10:18:24Z</time>
      </trkpt>
      <trkpt lat="47.27537" lon="-1.62521">
        <ele>38</ele>
        <time>2023-11-15T10:27:41Z</time>
      </trkpt>
      <trkpt lat="47.27852" lon="-1.62403">
        <ele>44</ele>
        <time>2023-11-15T10:34:55Z</time>
      </trkpt>
      <trkpt lat="47.28216" lon="-1.62567">
        <ele>48</ele>
        <time>2023-11-15T10:43:22Z</time>
      </trkpt>
      <trkpt lat="47.28461" lon="-1.6248">
        <ele>51</ele>
        <time>2023-11-15T10:48:59Z</time>
      </trkpt>
      <trkpt lat="47.28759" lon="-1.62572">
        <ele>62</ele>
        <time>2023-11-15T10:55:45Z</time>
      </trkpt>
      <trkpt lat="47.2886" lon="-1.62898">
        <ele>50</ele>
        <time>2023-11-15T11:01:09Z</time>
      </trkpt>
      <trkpt lat="47.29078" lon="-1.62704">
        <ele>47</ele>
        <time>2023-11-15T11:06:49Z</time>
      </trkpt>
      <trkpt lat="47.29296" lon="-1.63">
        <ele>53</ele>
        <time>2023-11-15T11:13:25Z</time>
      </trkpt>
      <trkpt lat="47.29233" lon="-1.63159">
        <ele>53</ele>
        <time>2023-11-15T11:16:11Z</time>
      </trkpt>
      <trkpt lat="47.29628" lon="-1.63577">
        <ele>52</ele>
        <time>2023-11-15T11:27:00Z</time>
      </trkpt>
      <trkpt lat="47.30355" lon="-1.6247">
        <ele>66</ele>
        <time>2023-11-15T11:50:15Z</time>
      </trkpt>
      <trkpt lat="47.30621" lon="-1.62613">
        <ele>63</ele>
        <time>2023-11-15T11:56:33Z</time>
      </trkpt>
      <trkpt lat="47.31037" lon="-1.62495">
        <ele>51</ele>
        <time>2023-11-15T12:05:58Z</time>
      </trkpt>
      <trkpt lat="47.30964" lon="-1.62337">
        <ele>54</ele>
        <time>2023-11-15T12:08:51Z</time>
      </trkpt>
      <trkpt lat="47.30774" lon="-1.62266">
        <ele>63</ele>
        <time>2023-11-15T12:13:13Z</time>
      </trkpt>
      <trkpt lat="47.30912" lon="-1.61903">
        <ele>58</ele>
        <time>2023-11-15T12:19:29Z</time>
      </trkpt>
      <trkpt lat="47.30919" lon="-1.61765">
        <ele>55</ele>
        <time>2023-11-15T12:21:34Z</time>
      </trkpt>
      <trkpt lat="47.30663" lon="-1.61475">
        <ele>51</ele>
        <time>2023-11-15T12:28:45Z</time>
      </trkpt>
      <trkpt lat="47.30812" lon="-1.61071">
        <ele>36</ele>
        <time>2023-11-15T12:35:41Z</time>
      </trkpt>
      <trkpt lat="47.30791" lon="-1.60755">
        <ele>47</ele>
        <time>2023-11-15T12:40:29Z</time>
      </trkpt>
      <trkpt lat="47.30726" lon="-1.60262">
        <ele>58</ele>
        <time>2023-11-15T12:48:03Z</time>
      </trkpt>
      <trkpt lat="47.31349" lon="-1.59981">
        <ele>20</ele>
        <time>2023-11-15T13:02:32Z</time>
      </trkpt>
      <trkpt lat="47.3149" lon="-1.60132">
        <ele>26</ele>
        <time>2023-11-15T13:06:25Z</time>
      </trkpt>
      <trkpt lat="47.31552" lon="-1.59811">
        <ele>31</ele>
        <time>2023-11-15T13:11:27Z</time>
      </trkpt>
      <trkpt lat="47.31635" lon="-1.60061">
        <ele>39</ele>
        <time>2023-11-15T13:15:39Z</time>
      </trkpt>
      <trkpt lat="47.3195" lon="-1.59954">
        <ele>45</ele>
        <time>2023-11-15T13:22:50Z</time>
      </trkpt>
      <trkpt lat="47.32088" lon="-1.59826">
        <ele>46</ele>
        <time>2023-11-15T13:26:28Z</time>
      </trkpt>
      <trkpt lat="47.32158" lon="-1.59357">
        <ele>39</ele>
        <time>2023-11-15T13:33:42Z</time>
      </trkpt>
      <trkpt lat="47.3231" lon="-1.59484">
        <ele>40</ele>
        <time>2023-11-15T13:37:35Z</time>
      </trkpt>
      <trkpt lat="47.32569" lon="-1.59551">
        <ele>43</ele>
        <time>2023-11-15T13:43:26Z</time>
      </trkpt>
      <trkpt lat="47.32351" lon="-1.58606">
        <ele>42</ele>
        <time>2023-11-15T13:58:29Z</time>
      </trkpt>
      <trkpt lat="47.3187" lon="-1.57989">
        <ele>43</ele>
        <time>2023-11-15T14:12:40Z</time>
      </trkpt>
      <trkpt lat="47.31321" lon="-1.57368">
        <ele>39</ele>
        <time>2023-11-15T14:28:03Z</time>
      </trkpt>
      <trkpt lat="47.31448" lon="-1.57177">
        <ele>33</ele>
        <time>2023-11-15T14:32:05Z</time>
      </trkpt>
      <trkpt lat="47.31566" lon="-1.5732">
        <ele>33</ele>
        <time>2023-11-15T14:35:29Z</time>
      </trkpt>
      <trkpt lat="47.32023" lon="-1.57325">
        <ele>33</ele>
        <time>2023-11-15T14:45:39Z</time>
      </trkpt>
      <trkpt lat="47.32241" lon="-1.56626">
        <ele>25</ele>
        <time>2023-11-15T14:57:15Z</time>
      </trkpt>
      <trkpt lat="47.32241" lon="-1.5631">
        <ele>18</ele>
        <time>2023-11-15T15:02:00Z</time>
      </trkpt>
      <trkpt lat="47.32365" lon="-1.56223">
        <ele>15</ele>
        <time>2023-11-15T15:05:04Z</time>
      </trkpt>
      <trkpt lat="47.32324" lon="-1.55728">
        <ele>22</ele>
        <time>2023-11-15T15:12:35Z</time>
      </trkpt>
      <trkpt lat="47.31742" lon="-1.54672">
        <ele>24</ele>
        <time>2023-11-15T15:33:06Z</time>
      </trkpt>
      <trkpt lat="47.31635" lon="-1.54355">
        <ele>13</ele>
        <time>2023-11-15T15:38:26Z</time>
      </trkpt>
      <trkpt lat="47.3085" lon="-1.54253">
        <ele>17</ele>
        <time>2023-11-15T15:55:58Z</time>
      </trkpt>
      <trkpt lat="47.30331" lon="-1.54656">
        <ele>18</ele>
        <time>2023-11-15T16:09:01Z</time>
      </trkpt>
      <trkpt lat="47.29708" lon="-1.54871">
        <ele>27</ele>
        <time>2023-11-15T16:23:14Z</time>
      </trkpt>
      <trkpt lat="47.28586" lon="-1.54988">
        <ele>26</ele>
        <time>2023-11-15T16:48:15Z</time>
      </trkpt>
      <trkpt lat="47.27658" lon="-1.54814">
        <ele>38</ele>
        <time>2023-11-15T17:09:04Z</time>
      </trkpt>
      <trkpt lat="47.26838" lon="-1.5462">
        <ele>29</ele>
        <time>2023-11-15T17:27:32Z</time>
      </trkpt>
    </trkseg>
  </trk>
  <trk>
    <name><![CDATA[BasseGoulaine_DomicileTourBG_35km-12977199]]></name>
    <extensions>
      <line xmlns="http://www.topografix.com/GPX/gpx_style/0/2">
        <color>880088</color>
        <width>4</width>
      </line>
    </extensions>
    <trkseg>
      <trkpt lat="47.26918" lon="-1.54495">
        <ele>28</ele>
        <time>2023-11-15T08:10:48Z</time>
      </trkpt>
      <trkpt lat="47.26835" lon="-1.54554">
        <ele>29</ele>
        <time>2023-11-15T08:12:02Z</time>
      </trkpt>
      <trkpt lat="47.26762" lon="-1.54483">
        <ele>28</ele>
        <time>2023-11-15T08:13:12Z</time>
      </trkpt>
      <trkpt lat="47.26589" lon="-1.54457">
        <ele>23</ele>
        <time>2023-11-15T08:15:31Z</time>
      </trkpt>
      <trkpt lat="47.26544" lon="-1.54396">
        <ele>22</ele>
        <time>2023-11-15T08:16:20Z</time>
      </trkpt>
      <trkpt lat="47.26433" lon="-1.54457">
        <ele>19</ele>
        <time>2023-11-15T08:17:55Z</time>
      </trkpt>
      <trkpt lat="47.2626" lon="-1.54289">
        <ele>19</ele>
        <time>2023-11-15T08:20:41Z</time>
      </trkpt>
      <trkpt lat="47.25865" lon="-1.54284">
        <ele>28</ele>
        <time>2023-11-15T08:25:57Z</time>
      </trkpt>
      <trkpt lat="47.25702" lon="-1.53942">
        <ele>9</ele>
        <time>2023-11-15T08:29:44Z</time>
      </trkpt>
      <trkpt lat="47.2565" lon="-1.53947">
        <ele>9</ele>
        <time>2023-11-15T08:30:26Z</time>
      </trkpt>
      <trkpt lat="47.25609" lon="-1.54028">
        <ele>14</ele>
        <time>2023-11-15T08:31:21Z</time>
      </trkpt>
      <trkpt lat="47.25505" lon="-1.5362">
        <ele>18</ele>
        <time>2023-11-15T08:35:18Z</time>
      </trkpt>
      <trkpt lat="47.25314" lon="-1.52987">
        <ele>27</ele>
        <time>2023-11-15T08:41:34Z</time>
      </trkpt>
      <trkpt lat="47.2485" lon="-1.5212">
        <ele>24</ele>
        <time>2023-11-15T08:51:34Z</time>
      </trkpt>
      <trkpt lat="47.24663" lon="-1.51905">
        <ele>21</ele>
        <time>2023-11-15T08:54:44Z</time>
      </trkpt>
      <trkpt lat="47.24814" lon="-1.51618">
        <ele>24</ele>
        <time>2023-11-15T08:58:01Z</time>
      </trkpt>
      <trkpt lat="47.24638" lon="-1.5134">
        <ele>24</ele>
        <time>2023-11-15T09:01:28Z</time>
      </trkpt>
      <trkpt lat="47.24591" lon="-1.51333">
        <ele>24</ele>
        <time>2023-11-15T09:02:06Z</time>
      </trkpt>
      <trkpt lat="47.24577" lon="-1.51094">
        <ele>23</ele>
        <time>2023-11-15T09:04:16Z</time>
      </trkpt>
      <trkpt lat="47.24486" lon="-1.50985">
        <ele>18</ele>
        <time>2023-11-15T09:05:50Z</time>
      </trkpt>
      <trkpt lat="47.24539" lon="-1.50762">
        <ele>17</ele>
        <time>2023-11-15T09:07:59Z</time>
      </trkpt>
      <trkpt lat="47.24403" lon="-1.50461">
        <ele>11</ele>
        <time>2023-11-15T09:11:15Z</time>
      </trkpt>
      <trkpt lat="47.24625" lon="-1.50221">
        <ele>11</ele>
        <time>2023-11-15T09:14:56Z</time>
      </trkpt>
      <trkpt lat="47.2467" lon="-1.49915">
        <ele>13</ele>
        <time>2023-11-15T09:17:46Z</time>
      </trkpt>
      <trkpt lat="47.2466" lon="-1.49553">
        <ele>16</ele>
        <time>2023-11-15T09:21:03Z</time>
      </trkpt>
      <trkpt lat="47.24736" lon="-1.49175">
        <ele>9</ele>
        <time>2023-11-15T09:24:37Z</time>
      </trkpt>
      <trkpt lat="47.24965" lon="-1.4869">
        <ele>16</ele>
        <time>2023-11-15T09:29:58Z</time>
      </trkpt>
      <trkpt lat="47.24743" lon="-1.48654">
        <ele>9</ele>
        <time>2023-11-15T09:32:57Z</time>
      </trkpt>
      <trkpt lat="47.24344" lon="-1.48256">
        <ele>4</ele>
        <time>2023-11-15T09:39:23Z</time>
      </trkpt>
      <trkpt lat="47.24074" lon="-1.47991">
        <ele>6</ele>
        <time>2023-11-15T09:43:43Z</time>
      </trkpt>
      <trkpt lat="47.23911" lon="-1.47644">
        <ele>8</ele>
        <time>2023-11-15T09:47:32Z</time>
      </trkpt>
      <trkpt lat="47.23686" lon="-1.47792">
        <ele>7</ele>
        <time>2023-11-15T09:50:49Z</time>
      </trkpt>
      <trkpt lat="47.2335" lon="-1.47491">
        <ele>5</ele>
        <time>2023-11-15T09:56:04Z</time>
      </trkpt>
      <trkpt lat="47.23132" lon="-1.47083">
        <ele>4</ele>
        <time>2023-11-15T10:00:46Z</time>
      </trkpt>
      <trkpt lat="47.22941" lon="-1.46889">
        <ele>5</ele>
        <time>2023-11-15T10:03:52Z</time>
      </trkpt>
      <trkpt lat="47.22592" lon="-1.4705">
        <ele>4</ele>
        <time>2023-11-15T10:08:45Z</time>
      </trkpt>
      <trkpt lat="47.22586" lon="-1.4681">
        <ele>4</ele>
        <time>2023-11-15T10:10:56Z</time>
      </trkpt>
      <trkpt lat="47.22506" lon="-1.46656">
        <ele>6</ele>
        <time>2023-11-15T10:12:41Z</time>
      </trkpt>
      <trkpt lat="47.22971" lon="-1.45916">
        <ele>5</ele>
        <time>2023-11-15T10:21:49Z</time>
      </trkpt>
      <trkpt lat="47.23449" lon="-1.45292">
        <ele>4</ele>
        <time>2023-11-15T10:30:21Z</time>
      </trkpt>
      <trkpt lat="47.22954" lon="-1.44917">
        <ele>4</ele>
        <time>2023-11-15T10:37:46Z</time>
      </trkpt>
      <trkpt lat="47.22761" lon="-1.45122">
        <ele>4</ele>
        <time>2023-11-15T10:40:57Z</time>
      </trkpt>
      <trkpt lat="47.22753" lon="-1.45277">
        <ele>5</ele>
        <time>2023-11-15T10:42:21Z</time>
      </trkpt>
      <trkpt lat="47.22486" lon="-1.45725">
        <ele>7</ele>
        <time>2023-11-15T10:47:45Z</time>
      </trkpt>
      <trkpt lat="47.22081" lon="-1.45579">
        <ele>4</ele>
        <time>2023-11-15T10:53:19Z</time>
      </trkpt>
      <trkpt lat="47.22075" lon="-1.45278">
        <ele>3</ele>
        <time>2023-11-15T10:56:03Z</time>
      </trkpt>
      <trkpt lat="47.21984" lon="-1.45155">
        <ele>2</ele>
        <time>2023-11-15T10:57:42Z</time>
      </trkpt>
      <trkpt lat="47.21915" lon="-1.4537">
        <ele>5</ele>
        <time>2023-11-15T10:59:51Z</time>
      </trkpt>
      <trkpt lat="47.21756" lon="-1.45753">
        <ele>4</ele>
        <time>2023-11-15T11:03:55Z</time>
      </trkpt>
      <trkpt lat="47.21712" lon="-1.46141">
        <ele>5</ele>
        <time>2023-11-15T11:07:29Z</time>
      </trkpt>
      <trkpt lat="47.21694" lon="-1.45806">
        <ele>5</ele>
        <time>2023-11-15T11:10:32Z</time>
      </trkpt>
      <trkpt lat="47.21455" lon="-1.45729">
        <ele>5</ele>
        <time>2023-11-15T11:13:48Z</time>
      </trkpt>
      <trkpt lat="47.21234" lon="-1.45694">
        <ele>4</ele>
        <time>2023-11-15T11:16:46Z</time>
      </trkpt>
      <trkpt lat="47.20808" lon="-1.45334">
        <ele>9</ele>
        <time>2023-11-15T11:23:19Z</time>
      </trkpt>
      <trkpt lat="47.20931" lon="-1.45145">
        <ele>6</ele>
        <time>2023-11-15T11:25:42Z</time>
      </trkpt>
      <trkpt lat="47.20779" lon="-1.45111">
        <ele>6</ele>
        <time>2023-11-15T11:27:45Z</time>
      </trkpt>
      <trkpt lat="47.20458" lon="-1.45548">
        <ele>13</ele>
        <time>2023-11-15T11:33:35Z</time>
      </trkpt>
      <trkpt lat="47.2054" lon="-1.45669">
        <ele>9</ele>
        <time>2023-11-15T11:35:08Z</time>
      </trkpt>
      <trkpt lat="47.20418" lon="-1.45952">
        <ele>14</ele>
        <time>2023-11-15T11:38:10Z</time>
      </trkpt>
      <trkpt lat="47.20307" lon="-1.46063">
        <ele>14</ele>
        <time>2023-11-15T11:39:58Z</time>
      </trkpt>
      <trkpt lat="47.20324" lon="-1.46149">
        <ele>16</ele>
        <time>2023-11-15T11:40:46Z</time>
      </trkpt>
      <trkpt lat="47.20878" lon="-1.46647">
        <ele>23</ele>
        <time>2023-11-15T11:49:26Z</time>
      </trkpt>
      <trkpt lat="47.20791" lon="-1.46922">
        <ele>24</ele>
        <time>2023-11-15T11:52:11Z</time>
      </trkpt>
      <trkpt lat="47.20628" lon="-1.4701">
        <ele>21</ele>
        <time>2023-11-15T11:54:30Z</time>
      </trkpt>
      <trkpt lat="47.20587" lon="-1.46743">
        <ele>23</ele>
        <time>2023-11-15T11:56:59Z</time>
      </trkpt>
      <trkpt lat="47.20236" lon="-1.46707">
        <ele>20</ele>
        <time>2023-11-15T12:01:41Z</time>
      </trkpt>
      <trkpt lat="47.20123" lon="-1.46674">
        <ele>22</ele>
        <time>2023-11-15T12:03:13Z</time>
      </trkpt>
      <trkpt lat="47.20099" lon="-1.46844">
        <ele>24</ele>
        <time>2023-11-15T12:04:47Z</time>
      </trkpt>
      <trkpt lat="47.19733" lon="-1.46974">
        <ele>25</ele>
        <time>2023-11-15T12:09:49Z</time>
      </trkpt>
      <trkpt lat="47.19383" lon="-1.47002">
        <ele>29</ele>
        <time>2023-11-15T12:14:29Z</time>
      </trkpt>
      <trkpt lat="47.19361" lon="-1.4732">
        <ele>25</ele>
        <time>2023-11-15T12:17:23Z</time>
      </trkpt>
      <trkpt lat="47.19608" lon="-1.47291">
        <ele>28</ele>
        <time>2023-11-15T12:20:42Z</time>
      </trkpt>
      <trkpt lat="47.19917" lon="-1.47349">
        <ele>17</ele>
        <time>2023-11-15T12:24:51Z</time>
      </trkpt>
      <trkpt lat="47.20062" lon="-1.47428">
        <ele>17</ele>
        <time>2023-11-15T12:26:55Z</time>
      </trkpt>
      <trkpt lat="47.20283" lon="-1.47265">
        <ele>20</ele>
        <time>2023-11-15T12:30:13Z</time>
      </trkpt>
      <trkpt lat="47.20515" lon="-1.47409">
        <ele>19</ele>
        <time>2023-11-15T12:33:34Z</time>
      </trkpt>
      <trkpt lat="47.20612" lon="-1.47598">
        <ele>15</ele>
        <time>2023-11-15T12:35:43Z</time>
      </trkpt>
      <trkpt lat="47.20816" lon="-1.47394">
        <ele>22</ele>
        <time>2023-11-15T12:39:01Z</time>
      </trkpt>
      <trkpt lat="47.20868" lon="-1.47532">
        <ele>21</ele>
        <time>2023-11-15T12:40:27Z</time>
      </trkpt>
      <trkpt lat="47.21208" lon="-1.47506">
        <ele>19</ele>
        <time>2023-11-15T12:44:59Z</time>
      </trkpt>
      <trkpt lat="47.21461" lon="-1.47746">
        <ele>4</ele>
        <time>2023-11-15T12:49:00Z</time>
      </trkpt>
      <trkpt lat="47.216" lon="-1.4747">
        <ele>5</ele>
        <time>2023-11-15T12:52:07Z</time>
      </trkpt>
      <trkpt lat="47.21794" lon="-1.47445">
        <ele>3</ele>
        <time>2023-11-15T12:54:43Z</time>
      </trkpt>
      <trkpt lat="47.21974" lon="-1.46302">
        <ele>3</ele>
        <time>2023-11-15T13:05:21Z</time>
      </trkpt>
      <trkpt lat="47.22314" lon="-1.46409">
        <ele>5</ele>
        <time>2023-11-15T13:09:59Z</time>
      </trkpt>
      <trkpt lat="47.2257" lon="-1.46858">
        <ele>4</ele>
        <time>2023-11-15T13:15:18Z</time>
      </trkpt>
      <trkpt lat="47.22618" lon="-1.47019">
        <ele>4</ele>
        <time>2023-11-15T13:16:54Z</time>
      </trkpt>
    </trkseg>
  </trk>
</gpx>